Wetterdaten: Dienstag, 14.11.2017
Datum Zeit Temp. A. Pool Temp. Feuchte A. Luftdruck Regen Wind Richtung Richtung Sonnenschein ET UV Solar Taupunkt Windchill Windben Empfang
14.11.2017 00:00 2,0 C 7,2 C 91 % 1019,9 hPa 0,0 l/m 5,3 km/h (1 Bft) SW 236 0 min 0,000 mm 0,0 UV-I 0 W/m 0,7 C 2,0 C 6,4 km/h (2 Bft) 96,15 %
14.11.2017 00:02 1,9 C 7,2 C 92 % 1020,0 hPa 0,0 l/m 5,0 km/h (1 Bft) SW 234 0 min 0,000 mm 0,0 UV-I 0 W/m 0,7 C 1,9 C 6,4 km/h (2 Bft) 97,22 %
14.11.2017 00:04 1,9 C 7,2 C 92 % 1020,0 hPa 0,0 l/m 4,7 km/h (1 Bft) SW 234 0 min 0,000 mm 0,0 UV-I 0 W/m 0,7 C 1,9 C 6,4 km/h (2 Bft) 96,00 %
14.11.2017 00:06 1,8 C 7,2 C 92 % 1020,0 hPa 0,0 l/m 5,9 km/h (2 Bft) SW 223 0 min 0,000 mm 0,0 UV-I 0 W/m 0,6 C 1,8 C 8,0 km/h (2 Bft) 96,00 %
14.11.2017 00:08 1,8 C 7,2 C 92 % 1020,1 hPa 0,0 l/m 6,1 km/h (2 Bft) SW 236 0 min 0,000 mm 0,0 UV-I 0 W/m 0,6 C 1,8 C 8,0 km/h (2 Bft) 97,37 %
14.11.2017 00:10 1,8 C 7,2 C 92 % 1020,1 hPa 0,0 l/m 5,9 km/h (2 Bft) SW 229 0 min 0,000 mm 0,0 UV-I 0 W/m 0,6 C 1,8 C 8,0 km/h (2 Bft) 96,61 %
14.11.2017 00:12 1,8 C 7,2 C 92 % 1020,1 hPa 0,0 l/m 5,0 km/h (1 Bft) SW 235 0 min 0,000 mm 0,0 UV-I 0 W/m 0,6 C 1,8 C 6,4 km/h (2 Bft) 93,10 %
14.11.2017 00:14 1,8 C 7,2 C 92 % 1020,1 hPa 0,0 l/m 6,1 km/h (2 Bft) S-SW 211 0 min 0,000 mm 0,0 UV-I 0 W/m 0,6 C 1,8 C 9,7 km/h (2 Bft) 100,00 %
14.11.2017 00:16 1,7 C 7,2 C 92 % 1020,1 hPa 0,0 l/m 7,3 km/h (2 Bft) SW 232 0 min 0,000 mm 0,0 UV-I 0 W/m 0,5 C 0,8 C 9,7 km/h (2 Bft) 100,00 %
14.11.2017 00:18 1,7 C 7,2 C 92 % 1020,1 hPa 0,0 l/m 6,4 km/h (2 Bft) SW 235 0 min 0,000 mm 0,0 UV-I 0 W/m 0,5 C 1,7 C 8,0 km/h (2 Bft) 94,00 %
14.11.2017 00:20 1,7 C 7,2 C 92 % 1020,2 hPa 0,0 l/m 5,7 km/h (1 Bft) SW 233 0 min 0,000 mm 0,0 UV-I 0 W/m 0,5 C 1,7 C 9,7 km/h (2 Bft) 97,37 %
14.11.2017 00:22 1,6 C 7,2 C 93 % 1020,2 hPa 0,0 l/m 6,3 km/h (2 Bft) SW 228 0 min 0,000 mm 0,0 UV-I 0 W/m 0,6 C 1,6 C 8,0 km/h (2 Bft) 97,87 %
14.11.2017 00:24 1,6 C 7,2 C 93 % 1020,2 hPa 0,0 l/m 5,4 km/h (1 Bft) SW 229 0 min 0,000 mm 0,0 UV-I 0 W/m 0,6 C 1,6 C 8,0 km/h (2 Bft) 98,00 %
14.11.2017 00:26 1,5 C 7,2 C 93 % 1020,2 hPa 0,0 l/m 7,0 km/h (2 Bft) SW 231 0 min 0,000 mm 0,0 UV-I 0 W/m 0,5 C 0,9 C 8,0 km/h (2 Bft) 94,34 %
14.11.2017 00:28 1,4 C 7,2 C 93 % 1020,3 hPa 0,0 l/m 5,7 km/h (1 Bft) SW 220 0 min 0,000 mm 0,0 UV-I 0 W/m 0,4 C 1,4 C 8,0 km/h (2 Bft) 97,37 %
14.11.2017 00:30 1,4 C 7,2 C 93 % 1020,3 hPa 0,0 l/m 6,3 km/h (2 Bft) W-SW 246 0 min 0,000 mm 0,0 UV-I 0 W/m 0,4 C 1,4 C 9,7 km/h (2 Bft) 100,00 %
14.11.2017 00:32 1,4 C 7,2 C 93 % 1020,4 hPa 0,0 l/m 5,3 km/h (1 Bft) W-SW 244 0 min 0,000 mm 0,0 UV-I 0 W/m 0,4 C 1,4 C 8,0 km/h (2 Bft) 95,12 %
14.11.2017 00:34 1,5 C 7,2 C 93 % 1020,4 hPa 0,0 l/m 6,0 km/h (2 Bft) SW 234 0 min 0,000 mm 0,0 UV-I 0 W/m 0,5 C 1,5 C 9,7 km/h (2 Bft) 98,11 %
14.11.2017 00:36 1,5 C 7,2 C 93 % 1020,4 hPa 0,0 l/m 7,8 km/h (2 Bft) SW 233 0 min 0,000 mm 0,0 UV-I 0 W/m 0,5 C 0,1 C 11,3 km/h (2 Bft) 98,00 %
14.11.2017 00:38 1,6 C 7,2 C 93 % 1020,4 hPa 0,0 l/m 8,6 km/h (2 Bft) SW 230 0 min 0,000 mm 0,0 UV-I 0 W/m 0,6 C -0,5 C 11,3 km/h (2 Bft) 97,44 %
14.11.2017 00:40 1,6 C 7,2 C 93 % 1020,4 hPa 0,0 l/m 7,5 km/h (2 Bft) W 277 0 min 0,000 mm 0,0 UV-I 0 W/m 0,6 C 0,5 C 11,3 km/h (2 Bft) 96,15 %
14.11.2017 00:42 1,7 C 7,2 C 93 % 1020,4 hPa 0,0 l/m 8,3 km/h (2 Bft) W 259 0 min 0,000 mm 0,0 UV-I 0 W/m 0,7 C -0,1 C 12,9 km/h (3 Bft) 97,44 %
14.11.2017 00:44 1,7 C 7,2 C 93 % 1020,5 hPa 0,0 l/m 7,0 km/h (2 Bft) W-SW 254 0 min 0,000 mm 0,0 UV-I 0 W/m 0,7 C 1,1 C 11,3 km/h (2 Bft) 98,31 %
14.11.2017 00:46 1,7 C 7,2 C 93 % 1020,5 hPa 0,0 l/m 5,5 km/h (1 Bft) W-SW 250 0 min 0,000 mm 0,0 UV-I 0 W/m 0,7 C 1,7 C 8,0 km/h (2 Bft) 96,15 %
14.11.2017 00:48 1,8 C 7,2 C 93 % 1020,5 hPa 0,0 l/m 6,1 km/h (2 Bft) W-SW 252 0 min 0,000 mm 0,0 UV-I 0 W/m 0,8 C 1,8 C 9,7 km/h (2 Bft) 97,06 %
14.11.2017 00:50 1,8 C 7,2 C 93 % 1020,5 hPa 0,0 l/m 7,8 km/h (2 Bft) W 261 0 min 0,000 mm 0,0 UV-I 0 W/m 0,8 C 0,4 C 12,9 km/h (3 Bft) 97,87 %
14.11.2017 00:52 1,8 C 7,2 C 92 % 1020,5 hPa 0,0 l/m 6,7 km/h (2 Bft) W 259 0 min 0,000 mm 0,0 UV-I 0 W/m 0,6 C 1,5 C 11,3 km/h (2 Bft) 94,74 %
14.11.2017 00:54 1,8 C 7,2 C 92 % 1020,5 hPa 0,0 l/m 7,5 km/h (2 Bft) W 261 0 min 0,000 mm 0,0 UV-I 0 W/m 0,6 C 0,7 C 11,3 km/h (2 Bft) 98,00 %
14.11.2017 00:56 1,8 C 7,2 C 92 % 1020,5 hPa 0,0 l/m 6,7 km/h (2 Bft) W-SW 257 0 min 0,000 mm 0,0 UV-I 0 W/m 0,6 C 1,5 C 9,7 km/h (2 Bft) 98,11 %
14.11.2017 00:58 1,8 C 7,2 C 92 % 1020,6 hPa 0,0 l/m 6,8 km/h (2 Bft) W 263 0 min 0,000 mm 0,0 UV-I 0 W/m 0,6 C 1,4 C 11,3 km/h (2 Bft) 95,12 %
14.11.2017 01:00 1,8 C 7,2 C 92 % 1020,6 hPa 0,0 l/m 9,5 km/h (2 Bft) W 261 0 min 0,000 mm 0,0 UV-I 0 W/m 0,6 C -1,1 C 11,3 km/h (2 Bft) 95,45 %
14.11.2017 01:02 1,8 C 7,2 C 92 % 1020,6 hPa 0,0 l/m 7,2 km/h (2 Bft) W 265 0 min 0,000 mm 0,0 UV-I 0 W/m 0,6 C 1,0 C 11,3 km/h (2 Bft) 97,73 %
14.11.2017 01:04 1,8 C 7,2 C 92 % 1020,7 hPa 0,0 l/m 7,3 km/h (2 Bft) W-SW 258 0 min 0,000 mm 0,0 UV-I 0 W/m 0,6 C 0,9 C 11,3 km/h (2 Bft) 96,00 %
14.11.2017 01:06 1,8 C 7,2 C 92 % 1020,7 hPa 0,0 l/m 7,9 km/h (2 Bft) W-SW 253 0 min 0,000 mm 0,0 UV-I 0 W/m 0,6 C 0,3 C 12,9 km/h (3 Bft) 95,74 %
14.11.2017 01:08 1,9 C 7,2 C 93 % 1020,7 hPa 0,0 l/m 8,0 km/h (2 Bft) W-SW 237 0 min 0,000 mm 0,0 UV-I 0 W/m 0,9 C 0,3 C 12,9 km/h (3 Bft) 98,11 %
14.11.2017 01:10 1,9 C 7,2 C 92 % 1020,7 hPa 0,0 l/m 7,0 km/h (2 Bft) SW 227 0 min 0,000 mm 0,0 UV-I 0 W/m 0,7 C 1,3 C 9,7 km/h (2 Bft) 94,74 %
14.11.2017 01:12 1,9 C 7,2 C 92 % 1020,8 hPa 0,0 l/m 7,7 km/h (2 Bft) SW 234 0 min 0,000 mm 0,0 UV-I 0 W/m 0,7 C 0,6 C 12,9 km/h (3 Bft) 98,21 %
14.11.2017 01:14 1,9 C 7,2 C 92 % 1020,8 hPa 0,0 l/m 8,1 km/h (2 Bft) W 261 0 min 0,000 mm 0,0 UV-I 0 W/m 0,7 C 0,3 C 12,9 km/h (3 Bft) 100,00 %
14.11.2017 01:16 1,9 C 7,2 C 92 % 1020,8 hPa 0,0 l/m 7,5 km/h (2 Bft) W 259 0 min 0,000 mm 0,0 UV-I 0 W/m 0,7 C 0,8 C 9,7 km/h (2 Bft) 100,00 %
14.11.2017 01:18 1,9 C 7,2 C 92 % 1020,9 hPa 0,0 l/m 6,8 km/h (2 Bft) W-SW 258 0 min 0,000 mm 0,0 UV-I 0 W/m 0,7 C 1,5 C 9,7 km/h (2 Bft) 94,44 %
14.11.2017 01:20 1,9 C 7,2 C 92 % 1020,9 hPa 0,0 l/m 8,0 km/h (2 Bft) W 267 0 min 0,000 mm 0,0 UV-I 0 W/m 0,7 C 0,3 C 11,3 km/h (2 Bft) 98,18 %
14.11.2017 01:22 1,9 C 7,2 C 92 % 1020,9 hPa 0,0 l/m 6,9 km/h (2 Bft) W 259 0 min 0,000 mm 0,0 UV-I 0 W/m 0,7 C 1,4 C 11,3 km/h (2 Bft) 100,00 %
14.11.2017 01:24 1,9 C 7,2 C 92 % 1020,9 hPa 0,0 l/m 8,1 km/h (2 Bft) W-SW 254 0 min 0,000 mm 0,0 UV-I 0 W/m 0,7 C 0,3 C 12,9 km/h (3 Bft) 97,92 %
14.11.2017 01:26 1,9 C 7,2 C 92 % 1020,9 hPa 0,0 l/m 7,9 km/h (2 Bft) W-SW 256 0 min 0,000 mm 0,0 UV-I 0 W/m 0,7 C 0,4 C 14,5 km/h (3 Bft) 97,14 %
14.11.2017 01:28 1,9 C 7,2 C 92 % 1020,9 hPa 0,0 l/m 8,1 km/h (2 Bft) W-SW 256 0 min 0,000 mm 0,0 UV-I 0 W/m 0,7 C 0,3 C 12,9 km/h (3 Bft) 100,00 %
14.11.2017 01:30 1,9 C 7,2 C 92 % 1020,9 hPa 0,0 l/m 9,2 km/h (2 Bft) W 276 0 min 0,000 mm 0,0 UV-I 0 W/m 0,7 C -0,7 C 12,9 km/h (3 Bft) 97,37 %
14.11.2017 01:32 1,9 C 7,2 C 92 % 1021,0 hPa 0,0 l/m 6,4 km/h (2 Bft) W 279 0 min 0,000 mm 0,0 UV-I 0 W/m 0,7 C 1,9 C 9,7 km/h (2 Bft) 98,11 %
14.11.2017 01:34 1,9 C 7,2 C 92 % 1021,0 hPa 0,0 l/m 6,0 km/h (2 Bft) W-SW 257 0 min 0,000 mm 0,0 UV-I 0 W/m 0,7 C 1,9 C 9,7 km/h (2 Bft) 97,87 %
14.11.2017 01:36 1,8 C 7,2 C 92 % 1021,1 hPa 0,0 l/m 6,1 km/h (2 Bft) W 260 0 min 0,000 mm 0,0 UV-I 0 W/m 0,6 C 1,8 C 9,7 km/h (2 Bft) 100,00 %
14.11.2017 01:38 1,8 C 7,2 C 92 % 1021,2 hPa 0,0 l/m 7,7 km/h (2 Bft) W-SW 252 0 min 0,000 mm 0,0 UV-I 0 W/m 0,6 C 0,5 C 12,9 km/h (3 Bft) 100,00 %
14.11.2017 01:40 1,8 C 7,2 C 92 % 1021,2 hPa 0,0 l/m 8,6 km/h (2 Bft) W-SW 256 0 min 0,000 mm 0,0 UV-I 0 W/m 0,6 C -0,3 C 11,3 km/h (2 Bft) 100,00 %
14.11.2017 01:42 1,8 C 7,2 C 92 % 1021,2 hPa 0,0 l/m 5,5 km/h (1 Bft) W 263 0 min 0,000 mm 0,0 UV-I 0 W/m 0,6 C 1,8 C 8,0 km/h (2 Bft) 100,00 %
14.11.2017 01:44 1,8 C 7,2 C 92 % 1021,2 hPa 0,0 l/m 6,1 km/h (2 Bft) W 269 0 min 0,000 mm 0,0 UV-I 0 W/m 0,6 C 1,8 C 9,7 km/h (2 Bft) 100,00 %
14.11.2017 01:46 1,8 C 7,2 C 92 % 1021,2 hPa 0,0 l/m 4,7 km/h (1 Bft) W 261 0 min 0,000 mm 0,0 UV-I 0 W/m 0,6 C 1,8 C 6,4 km/h (2 Bft) 97,37 %
14.11.2017 01:48 1,8 C 7,2 C 92 % 1021,2 hPa 0,0 l/m 6,0 km/h (2 Bft) W 261 0 min 0,000 mm 0,0 UV-I 0 W/m 0,6 C 1,8 C 11,3 km/h (2 Bft) 98,11 %
14.11.2017 01:50 1,8 C 7,2 C 92 % 1021,3 hPa 0,0 l/m 5,4 km/h (1 Bft) W 265 0 min 0,000 mm 0,0 UV-I 0 W/m 0,6 C 1,8 C 9,7 km/h (2 Bft) 100,00 %
14.11.2017 01:52 1,8 C 7,2 C 92 % 1021,3 hPa 0,0 l/m 4,5 km/h (1 Bft) W 267 0 min 0,000 mm 0,0 UV-I 0 W/m 0,6 C 1,8 C 6,4 km/h (2 Bft) 97,22 %
14.11.2017 01:54 1,8 C 7,2 C 92 % 1021,3 hPa 0,0 l/m 4,8 km/h (1 Bft) W-SW 257 0 min 0,000 mm 0,0 UV-I 0 W/m 0,6 C 1,8 C 6,4 km/h (2 Bft) 98,00 %
14.11.2017 01:56 1,8 C 7,2 C 92 % 1021,3 hPa 0,0 l/m 6,2 km/h (2 Bft) W-SW 258 0 min 0,000 mm 0,0 UV-I 0 W/m 0,6 C 1,8 C 9,7 km/h (2 Bft) 97,62 %
14.11.2017 01:58 1,8 C 7,2 C 92 % 1021,3 hPa 0,0 l/m 6,5 km/h (2 Bft) W 272 0 min 0,000 mm 0,0 UV-I 0 W/m 0,6 C 1,7 C 11,3 km/h (2 Bft) 98,18 %
14.11.2017 02:00 1,8 C 7,2 C 92 % 1021,3 hPa 0,0 l/m 6,3 km/h (2 Bft) W-SW 255 0 min 0,000 mm 0,0 UV-I 0 W/m 0,6 C 1,8 C 9,7 km/h (2 Bft) 97,87 %
14.11.2017 02:02 1,8 C 7,2 C 92 % 1021,4 hPa 0,0 l/m 5,7 km/h (1 Bft) W-SW 256 0 min 0,000 mm 0,0 UV-I 0 W/m 0,6 C 1,8 C 6,4 km/h (2 Bft) 97,44 %
14.11.2017 02:04 1,8 C 7,2 C 92 % 1021,4 hPa 0,0 l/m 5,8 km/h (2 Bft) W-SW 250 0 min 0,000 mm 0,0 UV-I 0 W/m 0,6 C 1,8 C 8,0 km/h (2 Bft) 96,23 %
14.11.2017 02:06 1,8 C 7,2 C 92 % 1021,5 hPa 0,0 l/m 6,4 km/h (2 Bft) W 273 0 min 0,000 mm 0,0 UV-I 0 W/m 0,6 C 1,8 C 9,7 km/h (2 Bft) 97,87 %
14.11.2017 02:08 1,8 C 7,2 C 92 % 1021,5 hPa 0,0 l/m 5,3 km/h (1 Bft) W-SW 255 0 min 0,000 mm 0,0 UV-I 0 W/m 0,6 C 1,8 C 9,7 km/h (2 Bft) 96,00 %
14.11.2017 02:10 1,8 C 7,2 C 92 % 1021,5 hPa 0,0 l/m 5,9 km/h (2 Bft) W-SW 246 0 min 0,000 mm 0,0 UV-I 0 W/m 0,6 C 1,8 C 9,7 km/h (2 Bft) 95,12 %
14.11.2017 02:12 1,8 C 7,2 C 92 % 1021,5 hPa 0,0 l/m 7,0 km/h (2 Bft) W-NW 285 0 min 0,000 mm 0,0 UV-I 0 W/m 0,6 C 1,2 C 11,3 km/h (2 Bft) 97,73 %
14.11.2017 02:14 1,8 C 7,2 C 92 % 1021,4 hPa 0,0 l/m 7,2 km/h (2 Bft) W 259 0 min 0,000 mm 0,0 UV-I 0 W/m 0,6 C 1,0 C 11,3 km/h (2 Bft) 98,00 %
14.11.2017 02:16 1,8 C 7,2 C 92 % 1021,4 hPa 0,0 l/m 6,6 km/h (2 Bft) W-SW 250 0 min 0,000 mm 0,0 UV-I 0 W/m 0,6 C 1,6 C 9,7 km/h (2 Bft) 96,23 %
14.11.2017 02:18 1,8 C 7,2 C 92 % 1021,4 hPa 0,0 l/m 8,3 km/h (2 Bft) W-SW 254 0 min 0,000 mm 0,0 UV-I 0 W/m 0,6 C -0,0 C 12,9 km/h (3 Bft) 97,87 %
14.11.2017 02:20 1,8 C 7,2 C 92 % 1021,4 hPa 0,0 l/m 9,1 km/h (2 Bft) SW 234 0 min 0,000 mm 0,0 UV-I 0 W/m 0,6 C -0,7 C 14,5 km/h (3 Bft) 97,87 %
14.11.2017 02:22 1,7 C 7,2 C 92 % 1021,4 hPa 0,0 l/m 7,4 km/h (2 Bft) W-SW 256 0 min 0,000 mm 0,0 UV-I 0 W/m 0,5 C 0,7 C 11,3 km/h (2 Bft) 94,74 %
14.11.2017 02:24 1,7 C 7,2 C 92 % 1021,4 hPa 0,0 l/m 6,1 km/h (2 Bft) W-SW 254 0 min 0,000 mm 0,0 UV-I 0 W/m 0,5 C 1,7 C 9,7 km/h (2 Bft) 96,43 %
14.11.2017 02:26 1,6 C 7,2 C 92 % 1021,5 hPa 0,0 l/m 5,7 km/h (1 Bft) W 261 0 min 0,000 mm 0,0 UV-I 0 W/m 0,4 C 1,6 C 8,0 km/h (2 Bft) 97,56 %
14.11.2017 02:28 1,5 C 7,2 C 92 % 1021,4 hPa 0,0 l/m 6,5 km/h (2 Bft) W-SW 254 0 min 0,000 mm 0,0 UV-I 0 W/m 0,3 C 1,4 C 11,3 km/h (2 Bft) 98,11 %
14.11.2017 02:30 1,5 C 7,2 C 93 % 1021,4 hPa 0,0 l/m 7,0 km/h (2 Bft) W-SW 242 0 min 0,000 mm 0,0 UV-I 0 W/m 0,5 C 0,9 C 12,9 km/h (3 Bft) 97,37 %
14.11.2017 02:32 1,4 C 7,2 C 93 % 1021,5 hPa 0,0 l/m 6,4 km/h (2 Bft) W-SW 255 0 min 0,000 mm 0,0 UV-I 0 W/m 0,4 C 1,4 C 9,7 km/h (2 Bft) 98,11 %
14.11.2017 02:34 1,4 C 7,2 C 93 % 1021,5 hPa 0,0 l/m 6,6 km/h (2 Bft) W 265 0 min 0,000 mm 0,0 UV-I 0 W/m 0,4 C 1,2 C 11,3 km/h (2 Bft) 97,87 %
14.11.2017 02:36 1,4 C 7,2 C 93 % 1021,5 hPa 0,0 l/m 7,8 km/h (2 Bft) W 272 0 min 0,000 mm 0,0 UV-I 0 W/m 0,4 C 0,0 C 11,3 km/h (2 Bft) 100,00 %
14.11.2017 02:38 1,4 C 7,2 C 93 % 1021,6 hPa 0,0 l/m 5,4 km/h (1 Bft) W-SW 254 0 min 0,000 mm 0,0 UV-I 0 W/m 0,4 C 1,4 C 6,4 km/h (2 Bft) 100,00 %
14.11.2017 02:40 1,3 C 7,2 C 93 % 1021,6 hPa 0,0 l/m 5,5 km/h (1 Bft) W 259 0 min 0,000 mm 0,0 UV-I 0 W/m 0,3 C 1,3 C 12,9 km/h (3 Bft) 98,00 %
14.11.2017 02:42 1,3 C 7,2 C 93 % 1021,6 hPa 0,0 l/m 6,9 km/h (2 Bft) W-SW 254 0 min 0,000 mm 0,0 UV-I 0 W/m 0,3 C 0,8 C 11,3 km/h (2 Bft) 97,78 %
14.11.2017 02:44 1,3 C 7,2 C 93 % 1021,6 hPa 0,0 l/m 5,7 km/h (1 Bft) W-SW 242 0 min 0,000 mm 0,0 UV-I 0 W/m 0,3 C 1,3 C 8,0 km/h (2 Bft) 100,00 %
14.11.2017 02:46 1,3 C 7,2 C 93 % 1021,7 hPa 0,0 l/m 5,5 km/h (1 Bft) W 259 0 min 0,000 mm 0,0 UV-I 0 W/m 0,3 C 1,3 C 8,0 km/h (2 Bft) 100,00 %
14.11.2017 02:48 1,3 C 7,2 C 93 % 1021,7 hPa 0,0 l/m 6,0 km/h (2 Bft) W-SW 240 0 min 0,000 mm 0,0 UV-I 0 W/m 0,3 C 1,3 C 9,7 km/h (2 Bft) 100,00 %
14.11.2017 02:50 1,3 C 7,2 C 93 % 1021,7 hPa 0,0 l/m 8,5 km/h (2 Bft) W-SW 258 0 min 0,000 mm 0,0 UV-I 0 W/m 0,3 C -0,7 C 12,9 km/h (3 Bft) 98,11 %
14.11.2017 02:52 1,3 C 7,2 C 93 % 1021,8 hPa 0,0 l/m 6,3 km/h (2 Bft) SW 232 0 min 0,000 mm 0,0 UV-I 0 W/m 0,3 C 1,3 C 8,0 km/h (2 Bft) 100,00 %
14.11.2017 02:54 1,4 C 7,2 C 93 % 1021,8 hPa 0,0 l/m 5,4 km/h (1 Bft) W-SW 238 0 min 0,000 mm 0,0 UV-I 0 W/m 0,4 C 1,4 C 6,4 km/h (2 Bft) 100,00 %
14.11.2017 02:56 1,3 C 7,2 C 93 % 1021,8 hPa 0,0 l/m 5,1 km/h (1 Bft) SW 222 0 min 0,000 mm 0,0 UV-I 0 W/m 0,3 C 1,3 C 6,4 km/h (2 Bft) 100,00 %
14.11.2017 02:58 1,3 C 7,2 C 93 % 1021,8 hPa 0,0 l/m 4,5 km/h (1 Bft) SW 236 0 min 0,000 mm 0,0 UV-I 0 W/m 0,3 C 1,3 C 6,4 km/h (2 Bft) 100,00 %
14.11.2017 03:00 1,2 C 7,2 C 93 % 1021,8 hPa 0,0 l/m 4,8 km/h (1 Bft) SW 235 0 min 0,000 mm 0,0 UV-I 0 W/m 0,2 C 1,2 C 8,0 km/h (2 Bft) 98,11 %
14.11.2017 03:02 1,2 C 7,2 C 93 % 1021,8 hPa 0,0 l/m 5,5 km/h (1 Bft) W-SW 239 0 min 0,000 mm 0,0 UV-I 0 W/m 0,2 C 1,2 C 8,0 km/h (2 Bft) 100,00 %
14.11.2017 03:04 1,2 C 7,2 C 93 % 1021,8 hPa 0,0 l/m 6,3 km/h (2 Bft) W-SW 241 0 min 0,000 mm 0,0 UV-I 0 W/m 0,2 C 1,2 C 8,0 km/h (2 Bft) 100,00 %
14.11.2017 03:06 1,1 C 7,2 C 93 % 1021,8 hPa 0,0 l/m 5,6 km/h (1 Bft) SW 233 0 min 0,000 mm 0,0 UV-I 0 W/m 0,1 C 1,1 C 8,0 km/h (2 Bft) 100,00 %
14.11.2017 03:08 1,1 C 7,2 C 93 % 1021,9 hPa 0,0 l/m 5,4 km/h (1 Bft) SW 218 0 min 0,000 mm 0,0 UV-I 0 W/m 0,1 C 1,1 C 6,4 km/h (2 Bft) 95,74 %
14.11.2017 03:10 1,1 C 7,2 C 94 % 1021,9 hPa 0,0 l/m 5,4 km/h (1 Bft) W-SW 240 0 min 0,000 mm 0,0 UV-I 0 W/m 0,2 C 1,1 C 8,0 km/h (2 Bft) 93,62 %
14.11.2017 03:12 1,0 C 7,2 C 94 % 1021,9 hPa 0,0 l/m 5,5 km/h (1 Bft) SW 230 0 min 0,000 mm 0,0 UV-I 0 W/m 0,1 C 1,0 C 8,0 km/h (2 Bft) 100,00 %
14.11.2017 03:14 0,9 C 7,2 C 94 % 1022,0 hPa 0,0 l/m 5,8 km/h (2 Bft) SW 236 0 min 0,000 mm 0,0 UV-I 0 W/m 0,0 C 0,9 C 8,0 km/h (2 Bft) 96,23 %
14.11.2017 03:16 0,9 C 7,2 C 94 % 1022,0 hPa 0,0 l/m 5,0 km/h (1 Bft) W-SW 237 0 min 0,000 mm 0,0 UV-I 0 W/m 0,0 C 0,9 C 8,0 km/h (2 Bft) 100,00 %
14.11.2017 03:18 1,0 C 7,2 C 94 % 1022,0 hPa 0,0 l/m 5,4 km/h (1 Bft) SW 234 0 min 0,000 mm 0,0 UV-I 0 W/m 0,1 C 1,0 C 8,0 km/h (2 Bft) 100,00 %
14.11.2017 03:20 1,0 C 7,2 C 94 % 1022,0 hPa 0,0 l/m 4,7 km/h (1 Bft) W-SW 237 0 min 0,000 mm 0,0 UV-I 0 W/m 0,1 C 1,0 C 6,4 km/h (2 Bft) 100,00 %
14.11.2017 03:22 1,0 C 7,2 C 94 % 1022,0 hPa 0,0 l/m 4,1 km/h (1 Bft) SW 234 0 min 0,000 mm 0,0 UV-I 0 W/m 0,1 C 1,0 C 6,4 km/h (2 Bft) 100,00 %
14.11.2017 03:24 1,1 C 7,2 C 94 % 1022,1 hPa 0,0 l/m 4,1 km/h (1 Bft) SW 234 0 min 0,000 mm 0,0 UV-I 0 W/m 0,2 C 1,1 C 6,4 km/h (2 Bft) 100,00 %
14.11.2017 03:26 1,1 C 7,2 C 94 % 1022,1 hPa 0,0 l/m 6,0 km/h (2 Bft) W-SW 239 0 min 0,000 mm 0,0 UV-I 0 W/m 0,2 C 1,1 C 8,0 km/h (2 Bft) 100,00 %
14.11.2017 03:28 1,1 C 7,2 C 94 % 1022,1 hPa 0,0 l/m 6,0 km/h (2 Bft) SW 227 0 min 0,000 mm 0,0 UV-I 0 W/m 0,2 C 1,1 C 9,7 km/h (2 Bft) 100,00 %
14.11.2017 03:30 1,2 C 7,2 C 94 % 1022,2 hPa 0,0 l/m 4,7 km/h (1 Bft) SW 234 0 min 0,000 mm 0,0 UV-I 0 W/m 0,3 C 1,2 C 6,4 km/h (2 Bft) 97,14 %
14.11.2017 03:32 1,2 C 7,2 C 94 % 1022,1 hPa 0,0 l/m 4,1 km/h (1 Bft) SW 232 0 min 0,000 mm 0,0 UV-I 0 W/m 0,3 C 1,2 C 6,4 km/h (2 Bft) 98,21 %
14.11.2017 03:34 1,2 C 7,2 C 94 % 1022,2 hPa 0,0 l/m 4,3 km/h (1 Bft) SW 232 0 min 0,000 mm 0,0 UV-I 0 W/m 0,3 C 1,2 C 6,4 km/h (2 Bft) 100,00 %
14.11.2017 03:36 1,2 C 7,2 C 94 % 1022,2 hPa 0,0 l/m 6,5 km/h (2 Bft) W-SW 241 0 min 0,000 mm 0,0 UV-I 0 W/m 0,3 C 1,1 C 8,0 km/h (2 Bft) 100,00 %
14.11.2017 03:38 1,3 C 7,2 C 94 % 1022,3 hPa 0,0 l/m 5,2 km/h (1 Bft) W-SW 257 0 min 0,000 mm 0,0 UV-I 0 W/m 0,4 C 1,3 C 6,4 km/h (2 Bft) 100,00 %
14.11.2017 03:40 1,3 C 7,2 C 94 % 1022,3 hPa 0,0 l/m 6,4 km/h (2 Bft) W 265 0 min 0,000 mm 0,0 UV-I 0 W/m 0,4 C 1,3 C 9,7 km/h (2 Bft) 98,00 %
14.11.2017 03:42 1,3 C 7,2 C 94 % 1022,4 hPa 0,0 l/m 6,1 km/h (2 Bft) W 279 0 min 0,000 mm 0,0 UV-I 0 W/m 0,4 C 1,3 C 9,7 km/h (2 Bft) 97,87 %
14.11.2017 03:44 1,3 C 7,2 C 94 % 1022,4 hPa 0,0 l/m 5,5 km/h (1 Bft) SW 232 0 min 0,000 mm 0,0 UV-I 0 W/m 0,4 C 1,3 C 9,7 km/h (2 Bft) 98,11 %
14.11.2017 03:46 1,4 C 7,2 C 94 % 1022,4 hPa 0,0 l/m 5,4 km/h (1 Bft) W-SW 246 0 min 0,000 mm 0,0 UV-I 0 W/m 0,5 C 1,4 C 8,0 km/h (2 Bft) 97,37 %
14.11.2017 03:48 1,4 C 7,2 C 94 % 1022,4 hPa 0,0 l/m 7,6 km/h (2 Bft) W-SW 252 0 min 0,000 mm 0,0 UV-I 0 W/m 0,5 C 0,2 C 12,9 km/h (3 Bft) 98,11 %
14.11.2017 03:50 1,4 C 7,2 C 94 % 1022,5 hPa 0,0 l/m 7,2 km/h (2 Bft) W-SW 250 0 min 0,000 mm 0,0 UV-I 0 W/m 0,5 C 0,6 C 11,3 km/h (2 Bft) 97,37 %
14.11.2017 03:52 1,4 C 7,2 C 93 % 1022,5 hPa 0,0 l/m 6,5 km/h (2 Bft) W-SW 249 0 min 0,000 mm 0,0 UV-I 0 W/m 0,4 C 1,3 C 11,3 km/h (2 Bft) 98,11 %
14.11.2017 03:54 1,4 C 7,2 C 93 % 1022,5 hPa 0,0 l/m 6,4 km/h (2 Bft) W-SW 254 0 min 0,000 mm 0,0 UV-I 0 W/m 0,4 C 1,4 C 11,3 km/h (2 Bft) 96,67 %
14.11.2017 03:56 1,4 C 7,2 C 93 % 1022,4 hPa 0,0 l/m 5,1 km/h (1 Bft) W-SW 246 0 min 0,000 mm 0,0 UV-I 0 W/m 0,4 C 1,4 C 8,0 km/h (2 Bft) 97,01 %
14.11.2017 03:58 1,4 C 7,2 C 93 % 1022,4 hPa 0,0 l/m 4,1 km/h (1 Bft) SW 234 0 min 0,000 mm 0,0 UV-I 0 W/m 0,4 C 1,4 C 6,4 km/h (2 Bft) 95,24 %
14.11.2017 04:00 1,3 C 7,2 C 93 % 1022,5 hPa 0,0 l/m 4,0 km/h (1 Bft) SW 234 0 min 0,000 mm 0,0 UV-I 0 W/m 0,3 C 1,3 C 6,4 km/h (2 Bft) 96,00 %
14.11.2017 04:02 1,3 C 7,2 C 93 % 1022,4 hPa 0,0 l/m 5,4 km/h (1 Bft) SW 225 0 min 0,000 mm 0,0 UV-I 0 W/m 0,3 C 1,3 C 6,4 km/h (2 Bft) 100,00 %
14.11.2017 04:04 1,3 C 7,2 C 93 % 1022,4 hPa 0,0 l/m 5,1 km/h (1 Bft) SW 231 0 min 0,000 mm 0,0 UV-I 0 W/m 0,3 C 1,3 C 8,0 km/h (2 Bft) 94,00 %
14.11.2017 04:06 1,2 C 7,2 C 93 % 1022,5 hPa 0,0 l/m 5,6 km/h (1 Bft) S-SW 209 0 min 0,000 mm 0,0 UV-I 0 W/m 0,2 C 1,2 C 8,0 km/h (2 Bft) 98,00 %
14.11.2017 04:08 1,2 C 7,2 C 93 % 1022,4 hPa 0,0 l/m 5,4 km/h (1 Bft) S-SW 209 0 min 0,000 mm 0,0 UV-I 0 W/m 0,2 C 1,2 C 8,0 km/h (2 Bft) 94,00 %
14.11.2017 04:10 1,1 C 7,2 C 93 % 1022,4 hPa 0,0 l/m 3,7 km/h (1 Bft) S-SW 209 0 min 0,000 mm 0,0 UV-I 0 W/m 0,1 C 1,1 C 4,8 km/h (1 Bft) 95,12 %
14.11.2017 04:12 1,0 C 7,2 C 93 % 1022,4 hPa 0,0 l/m 3,9 km/h (1 Bft) S-SW 209 0 min 0,000 mm 0,0 UV-I 0 W/m -0,0 C 1,0 C 6,4 km/h (2 Bft) 93,62 %
14.11.2017 04:14 0,9 C 7,2 C 94 % 1022,5 hPa 0,0 l/m 4,3 km/h (1 Bft) S-SW 209 0 min 0,000 mm 0,0 UV-I 0 W/m 0,0 C 0,9 C 6,4 km/h (2 Bft) 94,64 %
14.11.2017 04:16 0,9 C 6,7 C 94 % 1022,5 hPa 0,0 l/m 3,9 km/h (1 Bft) S-SW 211 0 min 0,000 mm 0,0 UV-I 0 W/m 0,0 C 0,9 C 6,4 km/h (2 Bft) 95,74 %
14.11.2017 04:18 0,8 C 6,7 C 94 % 1022,6 hPa 0,0 l/m 3,4 km/h (1 Bft) S-SW 211 0 min 0,000 mm 0,0 UV-I 0 W/m -0,1 C 0,8 C 6,4 km/h (2 Bft) 95,74 %
14.11.2017 04:20 0,7 C 6,7 C 94 % 1022,5 hPa 0,0 l/m 4,1 km/h (1 Bft) S-SW 213 0 min 0,000 mm 0,0 UV-I 0 W/m -0,2 C 0,7 C 6,4 km/h (2 Bft) 93,62 %
14.11.2017 04:22 0,6 C 7,2 C 94 % 1022,6 hPa 0,0 l/m 4,2 km/h (1 Bft) S-SW 213 0 min 0,000 mm 0,0 UV-I 0 W/m -0,3 C 0,6 C 4,8 km/h (1 Bft) 95,74 %
14.11.2017 04:24 0,6 C 7,2 C 94 % 1022,6 hPa 0,0 l/m 4,2 km/h (1 Bft) S-SW 213 0 min 0,000 mm 0,0 UV-I 0 W/m -0,3 C 0,6 C 6,4 km/h (2 Bft) 95,45 %
14.11.2017 04:26 0,6 C 7,2 C 94 % 1022,6 hPa 0,0 l/m 3,6 km/h (1 Bft) S-SW 213 0 min 0,000 mm 0,0 UV-I 0 W/m -0,3 C 0,6 C 4,8 km/h (1 Bft) 93,62 %
14.11.2017 04:28 0,6 C 6,7 C 95 % 1022,6 hPa 0,0 l/m 3,9 km/h (1 Bft) S-SW 213 0 min 0,000 mm 0,0 UV-I 0 W/m -0,1 C 0,6 C 4,8 km/h (1 Bft) 94,74 %
14.11.2017 04:30 0,4 C 6,7 C 94 % 1022,7 hPa 0,0 l/m 3,4 km/h (1 Bft) S-SW 213 0 min 0,000 mm 0,0 UV-I 0 W/m -0,5 C 0,4 C 4,8 km/h (1 Bft) 92,00 %
14.11.2017 04:32 0,4 C 6,7 C 94 % 1022,7 hPa 0,0 l/m 3,7 km/h (1 Bft) S-SW 213 0 min 0,000 mm 0,0 UV-I 0 W/m -0,5 C 0,4 C 4,8 km/h (1 Bft) 94,00 %
14.11.2017 04:34 0,4 C 6,7 C 95 % 1022,7 hPa 0,0 l/m 3,6 km/h (1 Bft) S-SW 213 0 min 0,000 mm 0,0 UV-I 0 W/m -0,3 C 0,4 C 4,8 km/h (1 Bft) 96,00 %
14.11.2017 04:36 0,4 C 6,7 C 95 % 1022,8 hPa 0,0 l/m 2,7 km/h (1 Bft) S-SW 213 0 min 0,000 mm 0,0 UV-I 0 W/m -0,3 C 0,4 C 4,8 km/h (1 Bft) 97,56 %
14.11.2017 04:38 0,4 C 6,7 C 95 % 1022,8 hPa 0,0 l/m 2,6 km/h (1 Bft) SW 215 0 min 0,000 mm 0,0 UV-I 0 W/m -0,3 C 0,4 C 4,8 km/h (1 Bft) 98,00 %
14.11.2017 04:40 0,3 C 6,7 C 95 % 1022,8 hPa 0,0 l/m 3,9 km/h (1 Bft) SW 215 0 min 0,000 mm 0,0 UV-I 0 W/m -0,4 C 0,3 C 6,4 km/h (2 Bft) 97,22 %
14.11.2017 04:42 0,3 C 6,7 C 95 % 1022,9 hPa 0,0 l/m 4,2 km/h (1 Bft) SW 222 0 min 0,000 mm 0,0 UV-I 0 W/m -0,4 C 0,3 C 6,4 km/h (2 Bft) 96,77 %
14.11.2017 04:44 0,3 C 6,7 C 95 % 1022,9 hPa 0,0 l/m 3,7 km/h (1 Bft) SW 222 0 min 0,000 mm 0,0 UV-I 0 W/m -0,4 C 0,3 C 4,8 km/h (1 Bft) 100,00 %
14.11.2017 04:46 0,2 C 6,7 C 95 % 1022,9 hPa 0,0 l/m 3,0 km/h (1 Bft) SW 222 0 min 0,000 mm 0,0 UV-I 0 W/m -0,5 C 0,2 C 4,8 km/h (1 Bft) 97,87 %
14.11.2017 04:48 0,2 C 6,7 C 95 % 1023,0 hPa 0,0 l/m 3,5 km/h (1 Bft) SW 222 0 min 0,000 mm 0,0 UV-I 0 W/m -0,5 C 0,2 C 4,8 km/h (1 Bft) 100,00 %
14.11.2017 04:50 0,2 C 6,7 C 95 % 1022,9 hPa 0,0 l/m 2,8 km/h (1 Bft) SW 222 0 min 0,000 mm 0,0 UV-I 0 W/m -0,5 C 0,2 C 4,8 km/h (1 Bft) 100,00 %
14.11.2017 04:52 0,2 C 6,7 C 95 % 1022,9 hPa 0,0 l/m 3,0 km/h (1 Bft) SW 222 0 min 0,000 mm 0,0 UV-I 0 W/m -0,5 C 0,2 C 4,8 km/h (1 Bft) 100,00 %
14.11.2017 04:54 0,2 C 6,7 C 95 % 1022,9 hPa 0,0 l/m 2,7 km/h (1 Bft) SW 222 0 min 0,000 mm 0,0 UV-I 0 W/m -0,5 C 0,2 C 4,8 km/h (1 Bft) 96,15 %
14.11.2017 04:56 0,2 C 6,7 C 95 % 1022,9 hPa 0,0 l/m 3,8 km/h (1 Bft) SW 222 0 min 0,000 mm 0,0 UV-I 0 W/m -0,5 C 0,2 C 4,8 km/h (1 Bft) 98,53 %
14.11.2017 04:58 0,1 C 6,7 C 95 % 1023,0 hPa 0,0 l/m 3,4 km/h (1 Bft) SW 222 0 min 0,000 mm 0,0 UV-I 0 W/m -0,6 C 0,1 C 4,8 km/h (1 Bft) 100,00 %
14.11.2017 05:00 0,1 C 6,7 C 95 % 1022,9 hPa 0,0 l/m 3,2 km/h (1 Bft) SW 222 0 min 0,000 mm 0,0 UV-I 0 W/m -0,6 C 0,1 C 6,4 km/h (2 Bft) 100,00 %
14.11.2017 05:02 -0,1 C 6,7 C 95 % 1022,9 hPa 0,0 l/m 2,7 km/h (1 Bft) SW 222 0 min 0,000 mm 0,0 UV-I 0 W/m -0,8 C -0,1 C 4,8 km/h (1 Bft) 96,00 %
14.11.2017 05:04 -0,1 C 6,7 C 95 % 1022,9 hPa 0,0 l/m 2,9 km/h (1 Bft) SW 222 0 min 0,000 mm 0,0 UV-I 0 W/m -0,8 C -0,1 C 4,8 km/h (1 Bft) 97,87 %
14.11.2017 05:06 -0,1 C 6,7 C 95 % 1022,9 hPa 0,0 l/m 4,1 km/h (1 Bft) W-SW 251 0 min 0,000 mm 0,0 UV-I 0 W/m -0,8 C -0,1 C 6,4 km/h (2 Bft) 100,00 %
14.11.2017 05:08 0,0 C 6,7 C 95 % 1023,0 hPa 0,0 l/m 3,8 km/h (1 Bft) W-SW 251 0 min 0,000 mm 0,0 UV-I 0 W/m -0,7 C 0,0 C 6,4 km/h (2 Bft) 100,00 %
14.11.2017 05:10 0,0 C 6,7 C 95 % 1023,0 hPa 0,0 l/m 4,4 km/h (1 Bft) W-SW 251 0 min 0,000 mm 0,0 UV-I 0 W/m -0,7 C 0,0 C 6,4 km/h (2 Bft) 98,11 %
14.11.2017 05:12 0,1 C 6,7 C 95 % 1023,0 hPa 0,0 l/m 5,3 km/h (1 Bft) W 259 0 min 0,000 mm 0,0 UV-I 0 W/m -0,6 C 0,1 C 6,4 km/h (2 Bft) 100,00 %
14.11.2017 05:14 0,1 C 6,7 C 95 % 1023,1 hPa 0,0 l/m 5,5 km/h (1 Bft) W-SW 252 0 min 0,000 mm 0,0 UV-I 0 W/m -0,6 C 0,1 C 9,7 km/h (2 Bft) 100,00 %
14.11.2017 05:16 0,1 C 6,7 C 95 % 1023,1 hPa 0,0 l/m 5,6 km/h (1 Bft) W-SW 250 0 min 0,000 mm 0,0 UV-I 0 W/m -0,6 C 0,1 C 8,0 km/h (2 Bft) 100,00 %
14.11.2017 05:18 0,1 C 6,7 C 95 % 1023,1 hPa 0,0 l/m 5,1 km/h (1 Bft) W-SW 240 0 min 0,000 mm 0,0 UV-I 0 W/m -0,6 C 0,1 C 8,0 km/h (2 Bft) 100,00 %
14.11.2017 05:20 0,1 C 6,7 C 95 % 1023,1 hPa 0,0 l/m 4,7 km/h (1 Bft) W-SW 252 0 min 0,000 mm 0,0 UV-I 0 W/m -0,6 C 0,1 C 6,4 km/h (2 Bft) 100,00 %
14.11.2017 05:22 0,1 C 6,7 C 95 % 1023,1 hPa 0,0 l/m 6,1 km/h (2 Bft) W-SW 252 0 min 0,000 mm 0,0 UV-I 0 W/m -0,6 C 0,1 C 9,7 km/h (2 Bft) 100,00 %
14.11.2017 05:24 0,2 C 6,7 C 95 % 1023,1 hPa 0,0 l/m 6,9 km/h (2 Bft) W 261 0 min 0,000 mm 0,0 UV-I 0 W/m -0,5 C -0,3 C 11,3 km/h (2 Bft) 100,00 %
14.11.2017 05:26 0,3 C 6,7 C 95 % 1023,1 hPa 0,0 l/m 6,0 km/h (2 Bft) W-SW 253 0 min 0,000 mm 0,0 UV-I 0 W/m -0,4 C 0,3 C 9,7 km/h (2 Bft) 98,00 %
14.11.2017 05:28 0,3 C 6,7 C 95 % 1023,2 hPa 0,0 l/m 6,9 km/h (2 Bft) W-SW 250 0 min 0,000 mm 0,0 UV-I 0 W/m -0,4 C -0,2 C 11,3 km/h (2 Bft) 97,73 %
14.11.2017 05:30 0,3 C 6,7 C 95 % 1023,2 hPa 0,0 l/m 4,7 km/h (1 Bft) W 259 0 min 0,000 mm 0,0 UV-I 0 W/m -0,4 C 0,3 C 8,0 km/h (2 Bft) 96,00 %
14.11.2017 05:32 0,3 C 6,7 C 95 % 1023,2 hPa 0,0 l/m 5,8 km/h (2 Bft) W-SW 254 0 min 0,000 mm 0,0 UV-I 0 W/m -0,4 C 0,3 C 9,7 km/h (2 Bft) 100,00 %
14.11.2017 05:34 0,3 C 6,7 C 95 % 1023,3 hPa 0,0 l/m 5,4 km/h (1 Bft) W 264 0 min 0,000 mm 0,0 UV-I 0 W/m -0,4 C 0,3 C 8,0 km/h (2 Bft) 100,00 %
14.11.2017 05:36 0,4 C 6,7 C 95 % 1023,3 hPa 0,0 l/m 5,8 km/h (2 Bft) W-SW 252 0 min 0,000 mm 0,0 UV-I 0 W/m -0,3 C 0,4 C 9,7 km/h (2 Bft) 100,00 %
14.11.2017 05:38 0,4 C 6,7 C 95 % 1023,3 hPa 0,0 l/m 7,1 km/h (2 Bft) W-SW 257 0 min 0,000 mm 0,0 UV-I 0 W/m -0,3 C -0,3 C 11,3 km/h (2 Bft) 100,00 %
14.11.2017 05:40 0,4 C 6,7 C 95 % 1023,3 hPa 0,0 l/m 6,2 km/h (2 Bft) W-SW 250 0 min 0,000 mm 0,0 UV-I 0 W/m -0,3 C 0,4 C 8,0 km/h (2 Bft) 100,00 %
14.11.2017 05:42 0,5 C 6,7 C 95 % 1023,3 hPa 0,0 l/m 7,7 km/h (2 Bft) W 262 0 min 0,000 mm 0,0 UV-I 0 W/m -0,2 C -0,8 C 11,3 km/h (2 Bft) 100,00 %
14.11.2017 05:44 0,4 C 6,7 C 95 % 1023,4 hPa 0,0 l/m 4,9 km/h (1 Bft) W 272 0 min 0,000 mm 0,0 UV-I 0 W/m -0,3 C 0,4 C 9,7 km/h (2 Bft) 100,00 %
14.11.2017 05:46 0,4 C 6,7 C 95 % 1023,4 hPa 0,0 l/m 4,6 km/h (1 Bft) W 272 0 min 0,000 mm 0,0 UV-I 0 W/m -0,3 C 0,4 C 6,4 km/h (2 Bft) 100,00 %
14.11.2017 05:48 0,3 C 6,7 C 95 % 1023,5 hPa 0,0 l/m 5,5 km/h (1 Bft) W-SW 250 0 min 0,000 mm 0,0 UV-I 0 W/m -0,4 C 0,3 C 8,0 km/h (2 Bft) 100,00 %
14.11.2017 05:50 0,3 C 6,7 C 95 % 1023,5 hPa 0,0 l/m 5,5 km/h (1 Bft) SW 234 0 min 0,000 mm 0,0 UV-I 0 W/m -0,4 C 0,3 C 8,0 km/h (2 Bft) 100,00 %
14.11.2017 05:52 0,4 C 6,7 C 95 % 1023,5 hPa 0,0 l/m 4,9 km/h (1 Bft) SW 233 0 min 0,000 mm 0,0 UV-I 0 W/m -0,3 C 0,4 C 8,0 km/h (2 Bft) 98,36 %
14.11.2017 05:54 0,4 C 6,7 C 95 % 1023,5 hPa 0,0 l/m 3,9 km/h (1 Bft) SW 233 0 min 0,000 mm 0,0 UV-I 0 W/m -0,3 C 0,4 C 6,4 km/h (2 Bft) 100,00 %
14.11.2017 05:56 0,2 C 6,7 C 94 % 1023,6 hPa 0,0 l/m 3,0 km/h (1 Bft) SW 233 0 min 0,000 mm 0,0 UV-I 0 W/m -0,6 C 0,2 C 4,8 km/h (1 Bft) 100,00 %
14.11.2017 05:58 0,1 C 6,7 C 94 % 1023,5 hPa 0,0 l/m 1,7 km/h (1 Bft) SW 233 0 min 0,000 mm 0,0 UV-I 0 W/m -0,7 C 0,1 C 4,8 km/h (1 Bft) 94,34 %
14.11.2017 06:00 -0,1 C 6,7 C 95 % 1023,6 hPa 0,0 l/m 1,5 km/h (1 Bft) SW 233 0 min 0,000 mm 0,0 UV-I 0 W/m -0,8 C -0,1 C 3,2 km/h (1 Bft) 97,22 %
14.11.2017 06:02 -0,1 C 6,7 C 95 % 1023,7 hPa 0,0 l/m 0,9 km/h (0 Bft) SW 233 0 min 0,000 mm 0,0 UV-I 0 W/m -0,8 C -0,1 C 3,2 km/h (1 Bft) 100,00 %
14.11.2017 06:04 -0,2 C 6,7 C 95 % 1023,7 hPa 0,0 l/m 0,6 km/h (0 Bft) SW 233 0 min 0,000 mm 0,0 UV-I 0 W/m -0,9 C -0,2 C 3,2 km/h (1 Bft) 100,00 %
14.11.2017 06:06 -0,3 C 6,7 C 95 % 1023,8 hPa 0,0 l/m 0,2 km/h (0 Bft) SW 233 0 min 0,000 mm 0,0 UV-I 0 W/m -1,0 C -0,3 C 1,6 km/h (1 Bft) 100,00 %
14.11.2017 06:08 -0,3 C 6,7 C 95 % 1023,8 hPa 0,0 l/m 0,5 km/h (0 Bft) SW 233 0 min 0,000 mm 0,0 UV-I 0 W/m -1,0 C -0,3 C 1,6 km/h (1 Bft) 100,00 %
14.11.2017 06:10 -0,3 C 6,7 C 95 % 1023,8 hPa 0,0 l/m 1,2 km/h (1 Bft) SW 233 0 min 0,000 mm 0,0 UV-I 0 W/m -1,0 C -0,3 C 3,2 km/h (1 Bft) 98,00 %
14.11.2017 06:12 -0,3 C 6,7 C 95 % 1023,8 hPa 0,0 l/m 0,2 km/h (0 Bft) SW 233 0 min 0,000 mm 0,0 UV-I 0 W/m -1,0 C -0,3 C 1,6 km/h (1 Bft) 98,11 %
14.11.2017 06:14 -0,3 C 6,7 C 95 % 1023,8 hPa 0,0 l/m 0,2 km/h (0 Bft) SW 233 0 min 0,000 mm 0,0 UV-I 0 W/m -1,0 C -0,3 C 1,6 km/h (1 Bft) 100,00 %
14.11.2017 06:16 -0,3 C 6,7 C 95 % 1023,9 hPa 0,0 l/m 0,0 km/h (0 Bft) SW 233 0 min 0,000 mm 0,0 UV-I 0 W/m -1,0 C -0,3 C 1,6 km/h (1 Bft) 100,00 %
14.11.2017 06:18 -0,2 C 6,7 C 96 % 1023,9 hPa 0,0 l/m 0,4 km/h (0 Bft) SW 233 0 min 0,000 mm 0,0 UV-I 0 W/m -0,8 C -0,2 C 1,6 km/h (1 Bft) 100,00 %
14.11.2017 06:20 -0,2 C 6,7 C 96 % 1024,0 hPa 0,0 l/m 0,1 km/h (0 Bft) SW 233 0 min 0,000 mm 0,0 UV-I 0 W/m -0,8 C -0,2 C 1,6 km/h (1 Bft) 100,00 %
14.11.2017 06:22 -0,2 C 6,7 C 95 % 1024,0 hPa 0,0 l/m 0,1 km/h (0 Bft) SW 233 0 min 0,000 mm 0,0 UV-I 0 W/m -0,9 C -0,2 C 1,6 km/h (1 Bft) 96,92 %
14.11.2017 06:24 -0,2 C 6,7 C 96 % 1024,1 hPa 0,0 l/m 0,2 km/h (0 Bft) SW 233 0 min 0,000 mm 0,0 UV-I 0 W/m -0,8 C -0,2 C 1,6 km/h (1 Bft) 97,73 %
14.11.2017 06:26 -0,2 C 6,7 C 95 % 1024,1 hPa 0,0 l/m 0,5 km/h (0 Bft) SW 233 0 min 0,000 mm 0,0 UV-I 0 W/m -0,9 C -0,2 C 3,2 km/h (1 Bft) 96,00 %
14.11.2017 06:28 -0,2 C 6,7 C 95 % 1024,1 hPa 0,0 l/m 1,7 km/h (1 Bft) SW 233 0 min 0,000 mm 0,0 UV-I 0 W/m -0,9 C -0,2 C 4,8 km/h (1 Bft) 97,14 %
14.11.2017 06:30 -0,2 C 6,7 C 95 % 1024,1 hPa 0,0 l/m 2,2 km/h (1 Bft) S-SW 203 0 min 0,000 mm 0,0 UV-I 0 W/m -0,9 C -0,2 C 3,2 km/h (1 Bft) 96,23 %
14.11.2017 06:32 -0,3 C 6,7 C 95 % 1024,2 hPa 0,0 l/m 1,4 km/h (1 Bft) S-SW 203 0 min 0,000 mm 0,0 UV-I 0 W/m -1,0 C -0,3 C 3,2 km/h (1 Bft) 97,87 %
14.11.2017 06:34 -0,4 C 6,7 C 95 % 1024,2 hPa 0,0 l/m 0,6 km/h (0 Bft) S-SW 203 0 min 0,000 mm 0,0 UV-I 0 W/m -1,1 C -0,4 C 1,6 km/h (1 Bft) 93,62 %
14.11.2017 06:36 -0,6 C 6,7 C 95 % 1024,2 hPa 0,0 l/m 1,8 km/h (1 Bft) S-SW 203 0 min 0,000 mm 0,0 UV-I 0 W/m -1,3 C -0,6 C 3,2 km/h (1 Bft) 97,87 %
14.11.2017 06:38 -0,6 C 6,7 C 95 % 1024,3 hPa 0,0 l/m 1,9 km/h (1 Bft) S-SW 203 0 min 0,000 mm 0,0 UV-I 0 W/m -1,3 C -0,6 C 4,8 km/h (1 Bft) 97,92 %
14.11.2017 06:40 -0,5 C 6,7 C 95 % 1024,3 hPa 0,0 l/m 2,8 km/h (1 Bft) S-SW 203 0 min 0,000 mm 0,0 UV-I 0 W/m -1,2 C -0,5 C 3,2 km/h (1 Bft) 97,87 %
14.11.2017 06:42 -0,4 C 6,7 C 96 % 1024,3 hPa 0,0 l/m 1,7 km/h (1 Bft) S-SW 203 0 min 0,000 mm 0,0 UV-I 0 W/m -1,0 C -0,4 C 3,2 km/h (1 Bft) 97,87 %
14.11.2017 06:44 -0,4 C 6,7 C 96 % 1024,4 hPa 0,0 l/m 2,8 km/h (1 Bft) S-SW 203 0 min 0,000 mm 0,0 UV-I 0 W/m -1,0 C -0,4 C 4,8 km/h (1 Bft) 95,74 %
14.11.2017 06:46 -0,4 C 6,7 C 96 % 1024,4 hPa 0,0 l/m 1,9 km/h (1 Bft) S-SW 203 0 min 0,000 mm 0,0 UV-I 0 W/m -1,0 C -0,4 C 4,8 km/h (1 Bft) 97,87 %
14.11.2017 06:48 -0,4 C 6,7 C 96 % 1024,4 hPa 0,0 l/m 1,0 km/h (0 Bft) S-SW 203 0 min 0,000 mm 0,0 UV-I 0 W/m -1,0 C -0,4 C 3,2 km/h (1 Bft) 94,00 %
14.11.2017 06:50 -0,3 C 6,7 C 96 % 1024,5 hPa 0,0 l/m 1,4 km/h (1 Bft) S-SW 203 0 min 0,000 mm 0,0 UV-I 0 W/m -0,9 C -0,3 C 3,2 km/h (1 Bft) 93,62 %
14.11.2017 06:52 -0,3 C 6,7 C 96 % 1024,6 hPa 0,0 l/m 1,6 km/h (1 Bft) S-SW 203 0 min 0,000 mm 0,0 UV-I 0 W/m -0,9 C -0,3 C 3,2 km/h (1 Bft) 93,62 %
14.11.2017 06:54 -0,3 C 6,7 C 96 % 1024,6 hPa 0,0 l/m 1,6 km/h (1 Bft) S-SW 203 0 min 0,000 mm 0,0 UV-I 0 W/m -0,9 C -0,3 C 3,2 km/h (1 Bft) 95,74 %
14.11.2017 06:56 -0,2 C 6,7 C 96 % 1024,6 hPa 0,0 l/m 2,0 km/h (1 Bft) S-SW 202 0 min 0,000 mm 0,0 UV-I 0 W/m -0,8 C -0,2 C 3,2 km/h (1 Bft) 94,29 %
14.11.2017 06:58 -0,2 C 6,7 C 96 % 1024,6 hPa 0,0 l/m 2,9 km/h (1 Bft) S-SW 193 0 min 0,000 mm 0,0 UV-I 0 W/m -0,8 C -0,2 C 6,4 km/h (2 Bft) 96,23 %
14.11.2017 07:00 -0,1 C 6,7 C 96 % 1024,6 hPa 0,0 l/m 2,2 km/h (1 Bft) S-SW 193 0 min 0,000 mm 0,0 UV-I 4 W/m -0,7 C -0,1 C 3,2 km/h (1 Bft) 95,74 %
14.11.2017 07:02 -0,1 C 6,7 C 96 % 1024,7 hPa 0,0 l/m 2,2 km/h (1 Bft) S-SW 193 0 min 0,000 mm 0,0 UV-I 5 W/m -0,7 C -0,1 C 3,2 km/h (1 Bft) 92,00 %
14.11.2017 07:04 -0,1 C 6,7 C 96 % 1024,7 hPa 0,0 l/m 2,8 km/h (1 Bft) S-SW 193 0 min 0,000 mm 0,0 UV-I 5 W/m -0,7 C -0,1 C 3,2 km/h (1 Bft) 97,37 %
14.11.2017 07:06 -0,1 C 6,7 C 95 % 1024,7 hPa 0,0 l/m 2,8 km/h (1 Bft) S-SW 193 0 min 0,000 mm 0,0 UV-I 5 W/m -0,8 C -0,1 C 4,8 km/h (1 Bft) 97,87 %
14.11.2017 07:08 -0,1 C 6,7 C 95 % 1024,7 hPa 0,0 l/m 2,6 km/h (1 Bft) S-SW 193 0 min 0,000 mm 0,0 UV-I 6 W/m -0,8 C -0,1 C 3,2 km/h (1 Bft) 95,74 %
14.11.2017 07:10 -0,1 C 6,7 C 96 % 1024,7 hPa 0,0 l/m 2,2 km/h (1 Bft) S-SW 193 0 min 0,000 mm 0,0 UV-I 7 W/m -0,7 C -0,1 C 4,8 km/h (1 Bft) 95,74 %
14.11.2017 07:12 -0,1 C 6,7 C 95 % 1024,7 hPa 0,0 l/m 1,9 km/h (1 Bft) S-SW 193 0 min 0,000 mm 0,0 UV-I 7 W/m -0,8 C -0,1 C 4,8 km/h (1 Bft) 97,22 %
14.11.2017 07:14 -0,1 C 6,7 C 95 % 1024,8 hPa 0,0 l/m 1,0 km/h (0 Bft) S-SW 193 0 min 0,000 mm 0,0 UV-I 8 W/m -0,8 C -0,1 C 3,2 km/h (1 Bft) 96,72 %
14.11.2017 07:16 -0,1 C 6,7 C 95 % 1024,7 hPa 0,0 l/m 2,4 km/h (1 Bft) S-SW 193 0 min 0,000 mm 0,0 UV-I 9 W/m -0,8 C -0,1 C 4,8 km/h (1 Bft) 96,23 %
14.11.2017 07:18 -0,1 C 6,7 C 95 % 1024,8 hPa 0,0 l/m 2,7 km/h (1 Bft) S-SW 193 0 min 0,000 mm 0,0 UV-I 10 W/m -0,8 C -0,1 C 6,4 km/h (2 Bft) 97,87 %
14.11.2017 07:20 -0,1 C 6,7 C 95 % 1024,8 hPa 0,0 l/m 2,5 km/h (1 Bft) S-SW 193 0 min 0,000 mm 0,0 UV-I 11 W/m -0,8 C -0,1 C 4,8 km/h (1 Bft) 97,87 %
14.11.2017 07:22 0,1 C 6,7 C 96 % 1024,8 hPa 0,0 l/m 4,3 km/h (1 Bft) S-SW 193 2 min 0,000 mm 0,0 UV-I 11 W/m -0,5 C 0,1 C 4,8 km/h (1 Bft) 97,92 %
14.11.2017 07:24 0,1 C 6,7 C 96 % 1024,9 hPa 0,0 l/m 4,6 km/h (1 Bft) S-SW 193 0 min 0,000 mm 0,0 UV-I 11 W/m -0,5 C 0,1 C 6,4 km/h (2 Bft) 97,87 %
14.11.2017 07:26 0,1 C 6,7 C 95 % 1024,9 hPa 0,0 l/m 4,5 km/h (1 Bft) S-SW 193 0 min 0,000 mm 0,0 UV-I 12 W/m -0,6 C 0,1 C 6,4 km/h (2 Bft) 97,14 %
14.11.2017 07:28 0,1 C 6,7 C 95 % 1024,9 hPa 0,0 l/m 3,6 km/h (1 Bft) S-SW 194 0 min 0,000 mm 0,0 UV-I 13 W/m -0,6 C 0,1 C 6,4 km/h (2 Bft) 98,00 %
14.11.2017 07:30 0,1 C 6,7 C 95 % 1024,9 hPa 0,0 l/m 4,0 km/h (1 Bft) S-SW 194 0 min 0,000 mm 0,0 UV-I 16 W/m -0,6 C 0,1 C 4,8 km/h (1 Bft) 97,87 %
14.11.2017 07:33 0,1 C 6,7 C 95 % 1024,9 hPa 0,0 l/m 2,9 km/h (1 Bft) S-SW 194 0 min 0,000 mm 0,0 UV-I 16 W/m -0,6 C 0,1 C 4,8 km/h (1 Bft) 91,30 %
14.11.2017 07:36 0,1 C 6,7 C 95 % 1024,9 hPa 0,0 l/m 3,1 km/h (1 Bft) S-SW 194 0 min 0,000 mm 0,0 UV-I 18 W/m -0,6 C 0,1 C 4,8 km/h (1 Bft) 97,44 %
14.11.2017 07:38 0,0 C 6,7 C 95 % 1024,9 hPa 0,0 l/m 2,5 km/h (1 Bft) S-SW 194 0 min 0,000 mm 0,0 UV-I 19 W/m -0,7 C 0,0 C 4,8 km/h (1 Bft) 98,00 %
14.11.2017 07:40 -0,1 C 6,7 C 95 % 1024,9 hPa 0,0 l/m 2,8 km/h (1 Bft) S-SW 194 0 min 0,000 mm 0,0 UV-I 20 W/m -0,8 C -0,1 C 3,2 km/h (1 Bft) 97,56 %
14.11.2017 07:42 -0,1 C 6,7 C 95 % 1025,0 hPa 0,0 l/m 2,4 km/h (1 Bft) S-SW 194 0 min 0,000 mm 0,0 UV-I 24 W/m -0,8 C -0,1 C 3,2 km/h (1 Bft) 96,23 %
14.11.2017 07:44 -0,1 C 6,7 C 95 % 1025,0 hPa 0,0 l/m 2,8 km/h (1 Bft) S-SW 194 0 min 0,000 mm 0,0 UV-I 26 W/m -0,8 C -0,1 C 4,8 km/h (1 Bft) 95,74 %
14.11.2017 07:46 -0,2 C 6,7 C 95 % 1025,1 hPa 0,0 l/m 1,8 km/h (1 Bft) S-SW 194 0 min 0,000 mm 0,0 UV-I 29 W/m -0,9 C -0,2 C 3,2 km/h (1 Bft) 98,00 %
14.11.2017 07:48 -0,2 C 6,7 C 95 % 1025,1 hPa 0,0 l/m 2,2 km/h (1 Bft) S-SW 194 0 min 0,000 mm 0,0 UV-I 32 W/m -0,9 C -0,2 C 3,2 km/h (1 Bft) 97,87 %
14.11.2017 07:50 -0,1 C 6,7 C 96 % 1025,1 hPa 0,0 l/m 2,6 km/h (1 Bft) S-SW 194 0 min 0,000 mm 0,0 UV-I 34 W/m -0,7 C -0,1 C 3,2 km/h (1 Bft) 97,37 %
14.11.2017 07:52 -0,1 C 6,7 C 95 % 1025,1 hPa 0,0 l/m 2,2 km/h (1 Bft) S-SW 194 0 min 0,000 mm 0,0 UV-I 37 W/m -0,8 C -0,1 C 3,2 km/h (1 Bft) 100,00 %
14.11.2017 07:54 -0,1 C 6,7 C 95 % 1025,1 hPa 0,0 l/m 2,6 km/h (1 Bft) S-SW 194 0 min 0,000 mm 0,0 UV-I 44 W/m -0,8 C -0,1 C 3,2 km/h (1 Bft) 96,55 %
14.11.2017 07:56 0,1 C 6,7 C 96 % 1025,2 hPa 0,0 l/m 2,2 km/h (1 Bft) S-SW 194 0 min 0,000 mm 0,0 UV-I 33 W/m -0,5 C 0,1 C 3,2 km/h (1 Bft) 100,00 %
14.11.2017 07:58 0,1 C 6,7 C 95 % 1025,2 hPa 0,0 l/m 1,2 km/h (1 Bft) S-SW 194 0 min 0,000 mm 0,0 UV-I 46 W/m -0,6 C 0,1 C 3,2 km/h (1 Bft) 97,87 %
14.11.2017 08:00 0,1 C 6,7 C 95 % 1025,2 hPa 0,0 l/m 1,8 km/h (1 Bft) S-SW 194 2 min 0,000 mm 0,0 UV-I 67 W/m -0,6 C 0,1 C 3,2 km/h (1 Bft) 100,00 %
14.11.2017 08:02 0,1 C 6,7 C 95 % 1025,2 hPa 0,0 l/m 2,4 km/h (1 Bft) S-SW 194 2 min 0,000 mm 0,0 UV-I 94 W/m -0,6 C 0,1 C 4,8 km/h (1 Bft) 100,00 %
14.11.2017 08:04 0,2 C 6,7 C 95 % 1025,2 hPa 0,0 l/m 2,4 km/h (1 Bft) S-SW 194 2 min 0,000 mm 0,0 UV-I 74 W/m -0,5 C 0,2 C 3,2 km/h (1 Bft) 100,00 %
14.11.2017 08:06 0,2 C 6,7 C 95 % 1025,3 hPa 0,0 l/m 2,6 km/h (1 Bft) S-SW 194 0 min 0,000 mm 0,0 UV-I 63 W/m -0,5 C 0,2 C 3,2 km/h (1 Bft) 100,00 %
14.11.2017 08:08 0,2 C 6,7 C 95 % 1025,4 hPa 0,0 l/m 3,3 km/h (1 Bft) S-SW 194 0 min 0,000 mm 0,0 UV-I 66 W/m -0,5 C 0,2 C 4,8 km/h (1 Bft) 100,00 %
14.11.2017 08:10 0,2 C 6,7 C 95 % 1025,4 hPa 0,0 l/m 3,6 km/h (1 Bft) S-SW 194 0 min 0,000 mm 0,0 UV-I 74 W/m -0,5 C 0,2 C 4,8 km/h (1 Bft) 97,87 %
14.11.2017 08:12 0,3 C 6,7 C 95 % 1025,4 hPa 0,0 l/m 3,5 km/h (1 Bft) S-SW 194 0 min 0,000 mm 0,0 UV-I 77 W/m -0,4 C 0,3 C 4,8 km/h (1 Bft) 100,00 %
14.11.2017 08:14 0,3 C 6,7 C 95 % 1025,4 hPa 0,0 l/m 3,0 km/h (1 Bft) S-SW 194 0 min 0,000 mm 0,0 UV-I 76 W/m -0,4 C 0,3 C 4,8 km/h (1 Bft) 97,56 %
14.11.2017 08:16 0,3 C 6,7 C 95 % 1025,5 hPa 0,0 l/m 1,9 km/h (1 Bft) S-SW 194 0 min 0,000 mm 0,0 UV-I 72 W/m -0,4 C 0,3 C 3,2 km/h (1 Bft) 98,11 %
14.11.2017 08:18 0,3 C 6,7 C 95 % 1025,5 hPa 0,0 l/m 3,1 km/h (1 Bft) S-SW 194 0 min 0,000 mm 0,0 UV-I 76 W/m -0,4 C 0,3 C 4,8 km/h (1 Bft) 100,00 %
14.11.2017 08:20 0,3 C 6,7 C 95 % 1025,5 hPa 0,0 l/m 1,9 km/h (1 Bft) S-SW 194 0 min 0,000 mm 0,0 UV-I 83 W/m -0,4 C 0,3 C 3,2 km/h (1 Bft) 100,00 %
14.11.2017 08:22 0,3 C 6,7 C 95 % 1025,5 hPa 0,0 l/m 2,7 km/h (1 Bft) S-SW 194 0 min 0,000 mm 0,0 UV-I 84 W/m -0,4 C 0,3 C 4,8 km/h (1 Bft) 100,00 %
14.11.2017 08:24 0,3 C 6,7 C 95 % 1025,5 hPa 0,0 l/m 1,2 km/h (1 Bft) S-SW 194 0 min 0,000 mm 0,0 UV-I 79 W/m -0,4 C 0,3 C 3,2 km/h (1 Bft) 100,00 %
14.11.2017 08:26 0,4 C 6,7 C 95 % 1025,5 hPa 0,0 l/m 1,5 km/h (1 Bft) S-SW 194 0 min 0,000 mm 0,0 UV-I 76 W/m -0,3 C 0,4 C 3,2 km/h (1 Bft) 96,00 %
14.11.2017 08:28 0,4 C 6,7 C 95 % 1025,6 hPa 0,0 l/m 1,1 km/h (1 Bft) S-SW 194 0 min 0,000 mm 0,0 UV-I 80 W/m -0,3 C 0,4 C 3,2 km/h (1 Bft) 96,00 %
14.11.2017 08:30 0,6 C 6,7 C 95 % 1025,6 hPa 0,0 l/m 0,1 km/h (0 Bft) S-SW 194 0 min 0,000 mm 0,0 UV-I 95 W/m -0,1 C 0,6 C 1,6 km/h (1 Bft) 97,87 %
14.11.2017 08:32 0,6 C 6,7 C 95 % 1025,6 hPa 0,0 l/m 0,0 km/h (0 Bft) S-SW 194 0 min 0,000 mm 0,0 UV-I 93 W/m -0,1 C 0,6 C 0,0 km/h (0 Bft) 94,44 %
14.11.2017 08:34 0,6 C 6,7 C 95 % 1025,6 hPa 0,0 l/m 0,2 km/h (0 Bft) S-SW 194 0 min 0,000 mm 0,0 UV-I 101 W/m -0,1 C 0,6 C 3,2 km/h (1 Bft) 98,18 %
14.11.2017 08:36 0,6 C 6,7 C 95 % 1025,6 hPa 0,0 l/m 2,2 km/h (1 Bft) S-SW 194 0 min 0,000 mm 0,0 UV-I 97 W/m -0,1 C 0,6 C 3,2 km/h (1 Bft) 96,00 %
14.11.2017 08:38 0,6 C 6,7 C 95 % 1025,7 hPa 0,0 l/m 2,7 km/h (1 Bft) S-SW 194 0 min 0,000 mm 0,0 UV-I 95 W/m -0,1 C 0,6 C 4,8 km/h (1 Bft) 97,44 %
14.11.2017 08:40 0,7 C 6,7 C 95 % 1025,8 hPa 0,0 l/m 2,3 km/h (1 Bft) S-SW 194 0 min 0,000 mm 0,0 UV-I 99 W/m -0,0 C 0,7 C 3,2 km/h (1 Bft) 98,00 %
14.11.2017 08:42 0,8 C 6,7 C 95 % 1025,8 hPa 0,0 l/m 1,8 km/h (1 Bft) S-SW 194 0 min 0,000 mm 0,0 UV-I 104 W/m 0,1 C 0,8 C 3,2 km/h (1 Bft) 98,00 %
14.11.2017 08:44 0,8 C 6,7 C 95 % 1025,7 hPa 0,0 l/m 2,6 km/h (1 Bft) S-SW 194 0 min 0,000 mm 0,0 UV-I 113 W/m 0,1 C 0,8 C 4,8 km/h (1 Bft) 97,87 %
14.11.2017 08:46 0,9 C 6,7 C 95 % 1025,8 hPa 0,0 l/m 2,3 km/h (1 Bft) S-SW 194 0 min 0,000 mm 0,0 UV-I 110 W/m 0,2 C 0,9 C 4,8 km/h (1 Bft) 94,00 %
14.11.2017 08:48 0,9 C 6,7 C 95 % 1025,8 hPa 0,0 l/m 2,3 km/h (1 Bft) S-SW 194 0 min 0,000 mm 0,0 UV-I 104 W/m 0,2 C 0,9 C 3,2 km/h (1 Bft) 97,37 %
14.11.2017 08:50 1,0 C 6,7 C 95 % 1025,8 hPa 0,0 l/m 2,3 km/h (1 Bft) S-SW 194 0 min 0,000 mm 0,0 UV-I 104 W/m 0,3 C 1,0 C 4,8 km/h (1 Bft) 96,00 %
14.11.2017 08:52 1,0 C 6,7 C 95 % 1025,8 hPa 0,0 l/m 2,7 km/h (1 Bft) S-SW 194 0 min 0,000 mm 0,0 UV-I 112 W/m 0,3 C 1,0 C 4,8 km/h (1 Bft) 97,73 %
14.11.2017 08:54 1,1 C 6,7 C 95 % 1025,9 hPa 0,0 l/m 3,5 km/h (1 Bft) W 270 0 min 0,000 mm 0,0 UV-I 121 W/m 0,4 C 1,1 C 6,4 km/h (2 Bft) 98,11 %
14.11.2017 08:56 1,2 C 6,7 C 95 % 1025,8 hPa 0,0 l/m 3,5 km/h (1 Bft) W 275 0 min 0,000 mm 0,0 UV-I 126 W/m 0,5 C 1,2 C 4,8 km/h (1 Bft) 97,87 %
14.11.2017 08:58 1,2 C 6,7 C 95 % 1025,9 hPa 0,0 l/m 3,0 km/h (1 Bft) W 274 2 min 0,000 mm 0,0 UV-I 137 W/m 0,5 C 1,2 C 4,8 km/h (1 Bft) 97,87 %
14.11.2017 09:00 1,3 C 6,7 C 95 % 1025,9 hPa 0,0 l/m 1,5 km/h (1 Bft) W 275 0 min 0,000 mm 0,0 UV-I 132 W/m 0,6 C 1,3 C 4,8 km/h (1 Bft) 100,00 %
14.11.2017 09:02 1,3 C 6,7 C 95 % 1025,9 hPa 0,0 l/m 3,3 km/h (1 Bft) W 274 2 min 0,025 mm 0,0 UV-I 135 W/m 0,6 C 1,3 C 4,8 km/h (1 Bft) 98,11 %
14.11.2017 09:04 1,4 C 6,7 C 94 % 1025,9 hPa 0,0 l/m 4,4 km/h (1 Bft) W 272 0 min 0,000 mm 0,0 UV-I 136 W/m 0,5 C 1,4 C 6,4 km/h (2 Bft) 95,12 %
14.11.2017 09:06 1,4 C 6,7 C 94 % 1025,9 hPa 0,0 l/m 3,9 km/h (1 Bft) W 271 2 min 0,000 mm 0,0 UV-I 142 W/m 0,5 C 1,4 C 6,4 km/h (2 Bft) 98,04 %
14.11.2017 09:08 1,4 C 6,7 C 94 % 1025,9 hPa 0,0 l/m 4,4 km/h (1 Bft) W 273 0 min 0,000 mm 0,0 UV-I 135 W/m 0,5 C 1,4 C 9,7 km/h (2 Bft) 100,00 %
14.11.2017 09:10 1,4 C 6,7 C 94 % 1025,9 hPa 0,0 l/m 3,3 km/h (1 Bft) W 273 0 min 0,000 mm 0,0 UV-I 133 W/m 0,5 C 1,4 C 4,8 km/h (1 Bft) 100,00 %
14.11.2017 09:12 1,4 C 6,7 C 94 % 1026,0 hPa 0,0 l/m 4,9 km/h (1 Bft) W 277 2 min 0,000 mm 0,0 UV-I 147 W/m 0,5 C 1,4 C 9,7 km/h (2 Bft) 100,00 %
14.11.2017 09:14 1,4 C 6,7 C 93 % 1026,1 hPa 0,0 l/m 4,7 km/h (1 Bft) W-SW 254 2 min 0,000 mm 0,0 UV-I 195 W/m 0,4 C 1,4 C 6,4 km/h (2 Bft) 96,23 %
14.11.2017 09:16 1,5 C 6,7 C 94 % 1026,1 hPa 0,0 l/m 3,0 km/h (1 Bft) W 277 2 min 0,000 mm 0,0 UV-I 179 W/m 0,6 C 1,5 C 6,4 km/h (2 Bft) 100,00 %
14.11.2017 09:18 1,6 C 6,7 C 94 % 1026,0 hPa 0,0 l/m 3,6 km/h (1 Bft) W 260 2 min 0,000 mm 0,0 UV-I 194 W/m 0,7 C 1,6 C 6,4 km/h (2 Bft) 98,00 %
14.11.2017 09:20 1,7 C 6,7 C 93 % 1026,0 hPa 0,0 l/m 4,4 km/h (1 Bft) W-SW 255 2 min 0,000 mm 0,0 UV-I 193 W/m 0,7 C 1,7 C 6,4 km/h (2 Bft) 97,73 %
14.11.2017 09:22 1,7 C 6,7 C 93 % 1026,0 hPa 0,0 l/m 3,0 km/h (1 Bft) W-SW 254 2 min 0,000 mm 0,0 UV-I 172 W/m 0,7 C 1,7 C 4,8 km/h (1 Bft) 100,00 %
14.11.2017 09:24 1,7 C 6,7 C 93 % 1026,1 hPa 0,0 l/m 3,0 km/h (1 Bft) W-SW 255 2 min 0,000 mm 0,0 UV-I 170 W/m 0,7 C 1,7 C 4,8 km/h (1 Bft) 100,00 %
14.11.2017 09:25 1,7 C 6,7 C 93 % 1026,1 hPa 0,0 l/m 3,2 km/h (1 Bft) W-SW 247 1 min 0,000 mm 0,0 UV-I 172 W/m 0,7 C 1,7 C 6,4 km/h (2 Bft) 99,12 %
14.11.2017 09:30 1,8 C 6,7 C 93 % 1026,2 hPa 0,0 l/m 1,6 km/h (1 Bft) W-SW 247 5 min 0,000 mm 0,0 UV-I 176 W/m 0,8 C 1,8 C 6,4 km/h (2 Bft) 97,37 %
14.11.2017 09:35 1,9 C 6,7 C 93 % 1026,2 hPa 0,0 l/m 4,8 km/h (1 Bft) W 270 5 min 0,000 mm 0,0 UV-I 181 W/m 0,9 C 1,9 C 9,7 km/h (2 Bft) 97,37 %
14.11.2017 09:40 1,8 C 6,7 C 92 % 1026,2 hPa 0,0 l/m 4,8 km/h (1 Bft) W 270 5 min 0,000 mm 0,0 UV-I 175 W/m 0,6 C 1,8 C 11,3 km/h (2 Bft) 98,25 %
14.11.2017 09:45 1,9 C 6,7 C 92 % 1026,1 hPa 0,0 l/m 3,2 km/h (1 Bft) W-NW 292 0 min 0,000 mm 0,3 UV-I 162 W/m 0,7 C 1,9 C 8,0 km/h (2 Bft) 99,12 %
14.11.2017 09:50 1,9 C 6,7 C 92 % 1026,1 hPa 0,0 l/m 1,6 km/h (1 Bft) W-NW 292 0 min 0,000 mm 0,5 UV-I 173 W/m 0,7 C 1,9 C 6,4 km/h (2 Bft) 96,49 %
14.11.2017 09:55 1,9 C 6,7 C 92 % 1026,1 hPa 0,0 l/m 3,2 km/h (1 Bft) W-NW 292 5 min 0,000 mm 0,5 UV-I 243 W/m 0,7 C 1,9 C 6,4 km/h (2 Bft) 97,37 %
14.11.2017 10:00 2,2 C 6,7 C 92 % 1026,1 hPa 0,0 l/m 4,8 km/h (1 Bft) W-SW 247 5 min 0,076 mm 0,6 UV-I 370 W/m 1,0 C 2,2 C 11,3 km/h (2 Bft) 98,25 %
14.11.2017 10:05 2,3 C 6,7 C 91 % 1026,1 hPa 0,0 l/m 3,2 km/h (1 Bft) W-SW 247 5 min 0,000 mm 0,6 UV-I 303 W/m 1,0 C 2,3 C 6,4 km/h (2 Bft) 100,00 %
14.11.2017 10:10 2,4 C 6,7 C 91 % 1026,2 hPa 0,0 l/m 3,2 km/h (1 Bft) W-NW 292 5 min 0,000 mm 0,7 UV-I 346 W/m 1,1 C 2,4 C 6,4 km/h (2 Bft) 99,12 %
14.11.2017 10:15 2,7 C 6,7 C 90 % 1026,2 hPa 0,0 l/m 6,4 km/h (2 Bft) W 270 5 min 0,000 mm 0,7 UV-I 379 W/m 1,2 C 2,7 C 12,9 km/h (3 Bft) 100,00 %
14.11.2017 10:20 2,8 C 6,7 C 90 % 1026,2 hPa 0,0 l/m 3,2 km/h (1 Bft) W-SW 247 5 min 0,000 mm 0,7 UV-I 410 W/m 1,3 C 2,8 C 6,4 km/h (2 Bft) 99,12 %
14.11.2017 10:24 3,1 C 6,7 C 89 % 1026,3 hPa 0,0 l/m 6,1 km/h (2 Bft) W 270 4 min 0,001 mm 0,7 UV-I 327 W/m 1,5 C 3,1 C 11,3 km/h (2 Bft) 97,87 %
14.11.2017 10:25 3,1 C 6,7 C 89 % 1026,3 hPa 0,0 l/m 3,2 km/h (1 Bft) W 270 1 min 0,000 mm 0,7 UV-I 379 W/m 1,5 C 3,1 C 11,3 km/h (2 Bft) 94,74 %
14.11.2017 10:30 3,1 C 6,7 C 88 % 1026,3 hPa 0,0 l/m 4,0 km/h (1 Bft) W 266 5 min 0,000 mm 0,7 UV-I 358 W/m 1,3 C 3,1 C 9,7 km/h (2 Bft) 95,86 %
14.11.2017 10:32 3,3 C 6,7 C 90 % 1026,3 hPa 0,0 l/m 1,5 km/h (1 Bft) W 266 2 min 0,000 mm 0,8 UV-I 359 W/m 1,8 C 3,3 C 3,2 km/h (1 Bft) 97,73 %
14.11.2017 10:34 3,6 C 6,7 C 89 % 1026,3 hPa 0,0 l/m 1,6 km/h (1 Bft) W-NW 295 2 min 0,000 mm 0,8 UV-I 469 W/m 2,0 C 3,6 C 4,8 km/h (1 Bft) 96,00 %
14.11.2017 10:35 3,6 C 6,7 C 89 % 1026,3 hPa 0,0 l/m 1,6 km/h (1 Bft) W 270 1 min 0,000 mm 0,8 UV-I 445 W/m 2,0 C 3,6 C 4,8 km/h (1 Bft) 100,00 %
14.11.2017 10:40 3,7 C 6,7 C 89 % 1026,3 hPa 0,0 l/m 3,2 km/h (1 Bft) NW 315 5 min 0,000 mm 0,8 UV-I 480 W/m 2,1 C 3,7 C 11,3 km/h (2 Bft) 98,25 %
14.11.2017 10:45 3,6 C 6,7 C 89 % 1026,3 hPa 0,0 l/m 3,2 km/h (1 Bft) W-NW 292 5 min 0,000 mm 0,8 UV-I 366 W/m 2,0 C 3,6 C 11,3 km/h (2 Bft) 97,37 %
14.11.2017 10:50 3,7 C 6,7 C 89 % 1026,3 hPa 0,0 l/m 4,8 km/h (1 Bft) NW 315 5 min 0,000 mm 0,7 UV-I 327 W/m 2,1 C 3,7 C 12,9 km/h (3 Bft) 96,49 %
14.11.2017 10:55 3,3 C 6,7 C 88 % 1026,3 hPa 0,0 l/m 4,8 km/h (1 Bft) W 270 0 min 0,000 mm 0,6 UV-I 192 W/m 1,5 C 3,3 C 9,7 km/h (2 Bft) 97,37 %
14.11.2017 11:00 3,1 C 6,7 C 88 % 1026,4 hPa 0,0 l/m 3,2 km/h (1 Bft) NW 315 0 min 0,127 mm 0,7 UV-I 156 W/m 1,3 C 3,1 C 9,7 km/h (2 Bft) 99,12 %
14.11.2017 11:06 3,0 C 6,7 C 88 % 1026,3 hPa 0,0 l/m 4,1 km/h (1 Bft) W-NW 292 0 min 0,000 mm 0,6 UV-I 150 W/m 1,2 C 3,0 C 6,4 km/h (2 Bft) 99,60 %
14.11.2017 11:08 2,9 C 6,7 C 89 % 1026,3 hPa 0,0 l/m 4,2 km/h (1 Bft) NW 306 0 min 0,000 mm 0,6 UV-I 133 W/m 1,3 C 2,9 C 8,0 km/h (2 Bft) 98,00 %
14.11.2017 11:10 2,9 C 6,7 C 89 % 1026,2 hPa 0,0 l/m 2,2 km/h (1 Bft) W-NW 302 0 min 0,000 mm 0,7 UV-I 160 W/m 1,3 C 2,9 C 4,8 km/h (1 Bft) 100,00 %
14.11.2017 11:12 3,1 C 6,7 C 90 % 1026,3 hPa 0,0 l/m 0,4 km/h (0 Bft) W-NW 302 0 min 0,000 mm 0,7 UV-I 186 W/m 1,6 C 3,1 C 1,6 km/h (1 Bft) 98,00 %
14.11.2017 11:14 3,2 C 6,7 C 90 % 1026,2 hPa 0,0 l/m 3,5 km/h (1 Bft) N-NW 332 2 min 0,000 mm 0,8 UV-I 236 W/m 1,7 C 3,2 C 8,0 km/h (2 Bft) 97,44 %
14.11.2017 11:16 3,2 C 6,7 C 89 % 1026,2 hPa 0,0 l/m 1,0 km/h (0 Bft) NW 314 0 min 0,000 mm 0,7 UV-I 198 W/m 1,6 C 3,2 C 3,2 km/h (1 Bft) 100,00 %
14.11.2017 11:18 3,3 C 6,7 C 89 % 1026,2 hPa 0,0 l/m 2,6 km/h (1 Bft) W 280 2 min 0,000 mm 0,9 UV-I 344 W/m 1,7 C 3,3 C 6,4 km/h (2 Bft) 100,00 %
14.11.2017 11:20 3,5 C 6,7 C 90 % 1026,2 hPa 0,0 l/m 4,0 km/h (1 Bft) W 273 2 min 0,000 mm 0,9 UV-I 464 W/m 2,0 C 3,5 C 8,0 km/h (2 Bft) 100,00 %
14.11.2017 11:22 3,7 C 6,7 C 88 % 1026,2 hPa 0,0 l/m 5,5 km/h (1 Bft) W-SW 254 2 min 0,000 mm 1,0 UV-I 507 W/m 1,9 C 3,7 C 11,3 km/h (2 Bft) 98,11 %
14.11.2017 11:24 3,8 C 6,7 C 88 % 1026,1 hPa 0,0 l/m 2,3 km/h (1 Bft) W 268 2 min 0,000 mm 1,0 UV-I 489 W/m 2,0 C 3,8 C 6,4 km/h (2 Bft) 97,87 %
14.11.2017 11:26 3,8 C 6,7 C 86 % 1026,1 hPa 0,0 l/m 5,0 km/h (1 Bft) W 266 2 min 0,000 mm 1,0 UV-I 466 W/m 1,7 C 3,8 C 11,3 km/h (2 Bft) 100,00 %
14.11.2017 11:28 3,9 C 6,7 C 86 % 1026,1 hPa 0,0 l/m 6,2 km/h (2 Bft) W 267 2 min 0,000 mm 1,0 UV-I 443 W/m 1,8 C 3,9 C 11,3 km/h (2 Bft) 97,87 %
14.11.2017 11:30 4,0 C 6,7 C 86 % 1026,1 hPa 0,0 l/m 2,2 km/h (1 Bft) W-NW 290 2 min 0,000 mm 1,0 UV-I 448 W/m 1,9 C 4,0 C 4,8 km/h (1 Bft) 100,00 %
14.11.2017 11:32 4,0 C 6,7 C 85 % 1026,1 hPa 0,0 l/m 6,0 km/h (2 Bft) W 263 2 min 0,000 mm 1,0 UV-I 448 W/m 1,7 C 4,0 C 11,3 km/h (2 Bft) 100,00 %
14.11.2017 11:34 3,8 C 6,7 C 85 % 1026,1 hPa 0,0 l/m 5,4 km/h (1 Bft) W-NW 297 2 min 0,000 mm 1,0 UV-I 431 W/m 1,5 C 3,8 C 9,7 km/h (2 Bft) 97,06 %
14.11.2017 11:35 3,8 C 6,7 C 85 % 1026,1 hPa 0,0 l/m 6,4 km/h (2 Bft) W-NW 292 1 min 0,000 mm 1,0 UV-I 436 W/m 1,5 C 3,8 C 11,3 km/h (2 Bft) 98,25 %
14.11.2017 11:36 3,8 C 6,7 C 85 % 1026,1 hPa 0,0 l/m 6,4 km/h (2 Bft) W 262 1 min 0,000 mm 1,0 UV-I 426 W/m 1,5 C 3,8 C 6,4 km/h (2 Bft) 100,00 %
14.11.2017 11:38 3,8 C 6,7 C 85 % 1026,2 hPa 0,0 l/m 3,5 km/h (1 Bft) NW 304 2 min 0,000 mm 1,0 UV-I 426 W/m 1,5 C 3,8 C 6,4 km/h (2 Bft) 100,00 %
14.11.2017 11:40 3,9 C 6,7 C 86 % 1026,2 hPa 0,0 l/m 4,9 km/h (1 Bft) W 274 2 min 0,000 mm 1,0 UV-I 434 W/m 1,8 C 3,9 C 12,9 km/h (3 Bft) 97,37 %
14.11.2017 11:42 3,9 C 6,7 C 85 % 1026,2 hPa 0,0 l/m 3,1 km/h (1 Bft) S 181 2 min 0,000 mm 0,9 UV-I 344 W/m 1,6 C 3,9 C 6,4 km/h (2 Bft) 92,00 %
14.11.2017 11:44 3,9 C 6,7 C 86 % 1026,2 hPa 0,0 l/m 2,8 km/h (1 Bft) W-NW 295 2 min 0,000 mm 0,9 UV-I 305 W/m 1,8 C 3,9 C 4,8 km/h (1 Bft) 98,11 %
14.11.2017 11:46 3,9 C 6,7 C 85 % 1026,1 hPa 0,0 l/m 4,5 km/h (1 Bft) NW 317 2 min 0,000 mm 1,0 UV-I 383 W/m 1,6 C 3,9 C 9,7 km/h (2 Bft) 97,37 %
14.11.2017 11:48 3,9 C 6,7 C 85 % 1026,2 hPa 0,0 l/m 3,0 km/h (1 Bft) NW 324 2 min 0,000 mm 1,0 UV-I 416 W/m 1,6 C 3,9 C 6,4 km/h (2 Bft) 98,00 %
14.11.2017 11:50 3,9 C 6,7 C 85 % 1026,1 hPa 0,0 l/m 5,1 km/h (1 Bft) NW 305 2 min 0,000 mm 1,0 UV-I 364 W/m 1,6 C 3,9 C 12,9 km/h (3 Bft) 96,00 %
14.11.2017 11:52 3,9 C 6,7 C 84 % 1026,1 hPa 0,0 l/m 2,8 km/h (1 Bft) NW 316 2 min 0,000 mm 1,0 UV-I 250 W/m 1,4 C 3,9 C 11,3 km/h (2 Bft) 95,74 %
14.11.2017 11:54 3,8 C 6,7 C 85 % 1026,1 hPa 0,0 l/m 4,9 km/h (1 Bft) W-SW 253 2 min 0,000 mm 1,0 UV-I 328 W/m 1,5 C 3,8 C 11,3 km/h (2 Bft) 95,74 %
14.11.2017 11:56 4,0 C 6,7 C 86 % 1026,1 hPa 0,0 l/m 1,3 km/h (1 Bft) W 264 2 min 0,000 mm 1,0 UV-I 432 W/m 1,9 C 4,0 C 3,2 km/h (1 Bft) 96,00 %
14.11.2017 11:58 4,2 C 6,7 C 85 % 1026,0 hPa 0,0 l/m 2,0 km/h (1 Bft) W-NW 303 2 min 0,000 mm 0,9 UV-I 448 W/m 1,9 C 4,2 C 8,0 km/h (2 Bft) 97,14 %
14.11.2017 12:00 4,2 C 6,7 C 85 % 1026,0 hPa 0,0 l/m 3,4 km/h (1 Bft) W-SW 249 2 min 0,127 mm 0,9 UV-I 337 W/m 1,9 C 4,2 C 6,4 km/h (2 Bft) 96,23 %
14.11.2017 12:02 4,0 C 6,7 C 84 % 1026,1 hPa 0,0 l/m 2,3 km/h (1 Bft) W 270 0 min 0,000 mm 0,8 UV-I 157 W/m 1,5 C 4,0 C 4,8 km/h (1 Bft) 95,74 %
14.11.2017 12:04 3,8 C 6,7 C 85 % 1026,1 hPa 0,0 l/m 1,9 km/h (1 Bft) W 270 0 min 0,000 mm 0,8 UV-I 133 W/m 1,5 C 3,8 C 4,8 km/h (1 Bft) 92,00 %
14.11.2017 12:06 3,7 C 6,7 C 86 % 1026,0 hPa 0,0 l/m 3,0 km/h (1 Bft) N-NW 344 0 min 0,000 mm 0,8 UV-I 151 W/m 1,6 C 3,7 C 4,8 km/h (1 Bft) 97,37 %
14.11.2017 12:08 3,7 C 6,7 C 85 % 1026,0 hPa 0,0 l/m 0,6 km/h (0 Bft) N-NW 343 0 min 0,000 mm 0,8 UV-I 137 W/m 1,4 C 3,7 C 1,6 km/h (1 Bft) 98,11 %
14.11.2017 12:10 3,7 C 6,7 C 86 % 1026,0 hPa 0,0 l/m 4,5 km/h (1 Bft) N-NW 329 0 min 0,000 mm 0,8 UV-I 146 W/m 1,6 C 3,7 C 8,0 km/h (2 Bft) 100,00 %
14.11.2017 12:12 3,6 C 6,7 C 86 % 1025,9 hPa 0,0 l/m 3,1 km/h (1 Bft) NW 315 0 min 0,000 mm 0,8 UV-I 138 W/m 1,5 C 3,6 C 6,4 km/h (2 Bft) 100,00 %
14.11.2017 12:14 3,6 C 6,7 C 86 % 1025,9 hPa 0,0 l/m 2,8 km/h (1 Bft) W 269 0 min 0,000 mm 0,7 UV-I 126 W/m 1,5 C 3,6 C 4,8 km/h (1 Bft) 100,00 %
14.11.2017 12:16 3,6 C 6,7 C 86 % 1025,9 hPa 0,0 l/m 1,9 km/h (1 Bft) W-NW 291 0 min 0,000 mm 0,8 UV-I 183 W/m 1,5 C 3,6 C 6,4 km/h (2 Bft) 100,00 %
14.11.2017 12:18 3,7 C 6,7 C 87 % 1025,9 hPa 0,0 l/m 3,7 km/h (1 Bft) W-NW 298 0 min 0,000 mm 0,8 UV-I 207 W/m 1,7 C 3,7 C 8,0 km/h (2 Bft) 98,11 %
14.11.2017 12:20 3,9 C 6,7 C 87 % 1025,9 hPa 0,0 l/m 4,1 km/h (1 Bft) W-NW 286 2 min 0,000 mm 0,9 UV-I 418 W/m 1,9 C 3,9 C 9,7 km/h (2 Bft) 100,00 %
14.11.2017 12:22 4,1 C 6,7 C 86 % 1025,9 hPa 0,0 l/m 3,9 km/h (1 Bft) W-NW 297 2 min 0,000 mm 0,9 UV-I 405 W/m 2,0 C 4,1 C 8,0 km/h (2 Bft) 100,00 %
14.11.2017 12:24 4,2 C 6,7 C 85 % 1025,9 hPa 0,0 l/m 4,0 km/h (1 Bft) NW 319 2 min 0,000 mm 0,9 UV-I 338 W/m 1,9 C 4,2 C 6,4 km/h (2 Bft) 100,00 %
14.11.2017 12:26 4,3 C 6,7 C 85 % 1025,8 hPa 0,0 l/m 4,3 km/h (1 Bft) NW 322 2 min 0,000 mm 0,9 UV-I 422 W/m 2,0 C 4,3 C 9,7 km/h (2 Bft) 97,37 %
14.11.2017 12:28 4,3 C 6,7 C 84 % 1025,9 hPa 0,0 l/m 5,8 km/h (2 Bft) NW 319 2 min 0,000 mm 0,9 UV-I 416 W/m 1,8 C 4,3 C 11,3 km/h (2 Bft) 100,00 %
14.11.2017 12:30 4,3 C 6,7 C 84 % 1025,9 hPa 0,0 l/m 4,6 km/h (1 Bft) NW 317 2 min 0,000 mm 0,9 UV-I 428 W/m 1,8 C 4,3 C 12,9 km/h (3 Bft) 97,56 %
14.11.2017 12:32 4,4 C 6,7 C 85 % 1025,9 hPa 0,0 l/m 3,9 km/h (1 Bft) N-NW 343 2 min 0,000 mm 0,9 UV-I 437 W/m 2,1 C 4,4 C 11,3 km/h (2 Bft) 100,00 %
14.11.2017 12:34 4,6 C 6,7 C 84 % 1025,9 hPa 0,0 l/m 3,5 km/h (1 Bft) NW 306 2 min 0,000 mm 0,9 UV-I 478 W/m 2,1 C 4,6 C 6,4 km/h (2 Bft) 100,00 %
14.11.2017 12:36 4,6 C 6,7 C 84 % 1026,0 hPa 0,0 l/m 6,1 km/h (2 Bft) W-NW 296 2 min 0,000 mm 0,9 UV-I 467 W/m 2,1 C 4,6 C 11,3 km/h (2 Bft) 98,11 %
14.11.2017 12:38 4,6 C 6,7 C 84 % 1026,0 hPa 0,0 l/m 5,2 km/h (1 Bft) W 276 2 min 0,000 mm 0,9 UV-I 443 W/m 2,1 C 4,6 C 11,3 km/h (2 Bft) 100,00 %
14.11.2017 12:40 4,7 C 6,7 C 85 % 1026,0 hPa 0,0 l/m 1,8 km/h (1 Bft) W 280 2 min 0,000 mm 0,8 UV-I 324 W/m 2,4 C 4,7 C 3,2 km/h (1 Bft) 100,00 %
14.11.2017 12:42 4,7 C 6,7 C 85 % 1026,0 hPa 0,0 l/m 3,7 km/h (1 Bft) W-SW 251 2 min 0,000 mm 0,8 UV-I 327 W/m 2,4 C 4,7 C 9,7 km/h (2 Bft) 97,87 %
14.11.2017 12:44 4,4 C 6,7 C 84 % 1025,9 hPa 0,0 l/m 3,0 km/h (1 Bft) W-NW 287 0 min 0,000 mm 0,7 UV-I 114 W/m 1,9 C 4,4 C 4,8 km/h (1 Bft) 100,00 %
14.11.2017 12:46 4,3 C 6,7 C 85 % 1025,9 hPa 0,0 l/m 2,6 km/h (1 Bft) W-NW 284 0 min 0,000 mm 0,7 UV-I 94 W/m 2,0 C 4,3 C 6,4 km/h (2 Bft) 100,00 %
14.11.2017 12:48 4,1 C 6,7 C 85 % 1026,0 hPa 0,0 l/m 3,4 km/h (1 Bft) W-NW 301 0 min 0,000 mm 0,7 UV-I 109 W/m 1,8 C 4,1 C 6,4 km/h (2 Bft) 98,11 %
14.11.2017 12:50 4,1 C 6,7 C 85 % 1025,9 hPa 0,0 l/m 4,3 km/h (1 Bft) NW 314 2 min 0,000 mm 0,9 UV-I 307 W/m 1,8 C 4,1 C 11,3 km/h (2 Bft) 100,00 %
14.11.2017 12:52 4,2 C 6,7 C 86 % 1025,9 hPa 0,0 l/m 4,7 km/h (1 Bft) N-NW 327 2 min 0,000 mm 0,8 UV-I 322 W/m 2,1 C 4,2 C 9,7 km/h (2 Bft) 100,00 %
14.11.2017 12:54 4,3 C 6,7 C 86 % 1026,0 hPa 0,0 l/m 3,5 km/h (1 Bft) NW 325 2 min 0,000 mm 0,8 UV-I 296 W/m 2,2 C 4,3 C 6,4 km/h (2 Bft) 100,00 %
14.11.2017 12:56 4,5 C 6,7 C 86 % 1026,0 hPa 0,0 l/m 2,3 km/h (1 Bft) W-NW 294 2 min 0,000 mm 0,8 UV-I 370 W/m 2,4 C 4,5 C 6,4 km/h (2 Bft) 100,00 %
14.11.2017 12:58 4,6 C 6,7 C 85 % 1026,0 hPa 0,0 l/m 3,9 km/h (1 Bft) W 281 2 min 0,000 mm 0,8 UV-I 375 W/m 2,3 C 4,6 C 8,0 km/h (2 Bft) 100,00 %
14.11.2017 13:00 4,7 C 6,7 C 86 % 1025,9 hPa 0,0 l/m 2,9 km/h (1 Bft) NW 325 2 min 0,127 mm 0,8 UV-I 409 W/m 2,6 C 4,7 C 8,0 km/h (2 Bft) 100,00 %
14.11.2017 13:02 4,8 C 6,7 C 85 % 1025,9 hPa 0,0 l/m 3,8 km/h (1 Bft) W-NW 291 2 min 0,000 mm 0,8 UV-I 412 W/m 2,5 C 4,8 C 6,4 km/h (2 Bft) 100,00 %
14.11.2017 13:04 4,9 C 6,7 C 84 % 1025,9 hPa 0,0 l/m 2,2 km/h (1 Bft) N 11 2 min 0,000 mm 0,8 UV-I 391 W/m 2,4 C 4,9 C 4,8 km/h (1 Bft) 100,00 %
14.11.2017 13:06 4,8 C 6,7 C 84 % 1025,9 hPa 0,0 l/m 2,7 km/h (1 Bft) N-NW 333 2 min 0,000 mm 0,8 UV-I 382 W/m 2,3 C 4,8 C 4,8 km/h (1 Bft) 97,56 %
14.11.2017 13:08 4,8 C 6,7 C 84 % 1025,9 hPa 0,0 l/m 2,1 km/h (1 Bft) NW 306 2 min 0,000 mm 0,8 UV-I 387 W/m 2,3 C 4,8 C 3,2 km/h (1 Bft) 100,00 %
14.11.2017 13:10 4,8 C 6,7 C 84 % 1025,9 hPa 0,0 l/m 1,4 km/h (1 Bft) NW 311 2 min 0,000 mm 0,8 UV-I 370 W/m 2,3 C 4,8 C 3,2 km/h (1 Bft) 100,00 %
14.11.2017 13:12 4,8 C 6,7 C 84 % 1025,9 hPa 0,0 l/m 2,3 km/h (1 Bft) W 265 2 min 0,000 mm 0,8 UV-I 365 W/m 2,3 C 4,8 C 6,4 km/h (2 Bft) 100,00 %
14.11.2017 13:14 4,7 C 6,7 C 83 % 1025,9 hPa 0,0 l/m 2,1 km/h (1 Bft) W 267 2 min 0,000 mm 0,8 UV-I 363 W/m 2,1 C 4,7 C 4,8 km/h (1 Bft) 100,00 %
14.11.2017 13:16 4,7 C 6,7 C 83 % 1025,9 hPa 0,0 l/m 4,2 km/h (1 Bft) NW 313 2 min 0,000 mm 0,8 UV-I 362 W/m 2,1 C 4,7 C 8,0 km/h (2 Bft) 96,61 %
14.11.2017 13:18 4,6 C 6,7 C 83 % 1025,9 hPa 0,0 l/m 5,5 km/h (1 Bft) W 273 2 min 0,000 mm 0,8 UV-I 368 W/m 2,0 C 4,6 C 11,3 km/h (2 Bft) 97,87 %
14.11.2017 13:20 4,6 C 6,7 C 83 % 1025,9 hPa 0,0 l/m 1,7 km/h (1 Bft) W 273 2 min 0,000 mm 0,7 UV-I 367 W/m 2,0 C 4,6 C 3,2 km/h (1 Bft) 97,14 %
14.11.2017 13:22 4,6 C 6,7 C 83 % 1025,9 hPa 0,0 l/m 3,2 km/h (1 Bft) N-NW 332 2 min 0,000 mm 0,7 UV-I 263 W/m 2,0 C 4,6 C 8,0 km/h (2 Bft) 97,87 %
14.11.2017 13:24 4,5 C 6,7 C 83 % 1025,9 hPa 0,0 l/m 2,4 km/h (1 Bft) NW 304 2 min 0,000 mm 0,7 UV-I 275 W/m 1,9 C 4,5 C 6,4 km/h (2 Bft) 94,34 %
14.11.2017 13:26 4,5 C 6,7 C 84 % 1025,9 hPa 0,0 l/m 4,5 km/h (1 Bft) W-NW 300 2 min 0,000 mm 0,7 UV-I 342 W/m 2,0 C 4,5 C 11,3 km/h (2 Bft) 98,00 %
14.11.2017 13:28 4,5 C 6,7 C 84 % 1025,9 hPa 0,0 l/m 4,6 km/h (1 Bft) N-NW 331 2 min 0,000 mm 0,7 UV-I 340 W/m 2,0 C 4,5 C 8,0 km/h (2 Bft) 97,73 %
14.11.2017 13:30 4,4 C 6,7 C 83 % 1025,9 hPa 0,0 l/m 4,4 km/h (1 Bft) W-NW 294 2 min 0,000 mm 0,7 UV-I 363 W/m 1,8 C 4,4 C 12,9 km/h (3 Bft) 98,00 %
14.11.2017 13:32 4,6 C 6,7 C 84 % 1025,9 hPa 0,0 l/m 3,0 km/h (1 Bft) NW 304 2 min 0,000 mm 0,7 UV-I 344 W/m 2,1 C 4,6 C 6,4 km/h (2 Bft) 97,73 %
14.11.2017 13:34 4,6 C 6,7 C 83 % 1025,9 hPa 0,0 l/m 2,2 km/h (1 Bft) NW 320 2 min 0,000 mm 0,7 UV-I 312 W/m 2,0 C 4,6 C 4,8 km/h (1 Bft) 97,62 %
14.11.2017 13:36 4,6 C 6,7 C 83 % 1025,9 hPa 0,0 l/m 4,0 km/h (1 Bft) W 261 2 min 0,000 mm 0,6 UV-I 187 W/m 2,0 C 4,6 C 8,0 km/h (2 Bft) 96,00 %
14.11.2017 13:38 4,4 C 6,7 C 83 % 1025,9 hPa 0,0 l/m 2,4 km/h (1 Bft) W-NW 288 2 min 0,000 mm 0,6 UV-I 269 W/m 1,8 C 4,4 C 6,4 km/h (2 Bft) 98,00 %
14.11.2017 13:40 4,4 C 6,7 C 83 % 1025,9 hPa 0,0 l/m 3,5 km/h (1 Bft) W-NW 295 2 min 0,000 mm 0,6 UV-I 311 W/m 1,8 C 4,4 C 8,0 km/h (2 Bft) 94,00 %
14.11.2017 13:42 4,3 C 6,7 C 83 % 1025,9 hPa 0,0 l/m 5,1 km/h (1 Bft) W-NW 282 2 min 0,000 mm 0,6 UV-I 314 W/m 1,7 C 4,3 C 9,7 km/h (2 Bft) 97,56 %
14.11.2017 13:44 4,4 C 6,7 C 83 % 1025,8 hPa 0,0 l/m 3,9 km/h (1 Bft) W 259 2 min 0,000 mm 0,6 UV-I 292 W/m 1,8 C 4,4 C 9,7 km/h (2 Bft) 97,37 %
14.11.2017 13:46 4,4 C 6,7 C 84 % 1025,8 hPa 0,0 l/m 2,9 km/h (1 Bft) W-SW 252 2 min 0,000 mm 0,6 UV-I 295 W/m 1,9 C 4,4 C 6,4 km/h (2 Bft) 97,56 %
14.11.2017 13:48 4,4 C 6,7 C 84 % 1025,8 hPa 0,0 l/m 1,9 km/h (1 Bft) W-NW 302 2 min 0,000 mm 0,6 UV-I 294 W/m 1,9 C 4,4 C 6,4 km/h (2 Bft) 98,21 %
14.11.2017 13:50 4,4 C 6,7 C 83 % 1025,8 hPa 0,0 l/m 5,9 km/h (2 Bft) W-NW 290 2 min 0,000 mm 0,6 UV-I 298 W/m 1,8 C 4,4 C 11,3 km/h (2 Bft) 98,00 %
14.11.2017 13:52 4,3 C 6,7 C 83 % 1025,8 hPa 0,0 l/m 1,3 km/h (1 Bft) W-NW 299 2 min 0,000 mm 0,6 UV-I 299 W/m 1,7 C 4,3 C 6,4 km/h (2 Bft) 100,00 %
14.11.2017 13:54 4,3 C 6,7 C 85 % 1025,8 hPa 0,0 l/m 3,8 km/h (1 Bft) N-NW 331 2 min 0,000 mm 0,6 UV-I 309 W/m 2,0 C 4,3 C 8,0 km/h (2 Bft) 98,11 %
14.11.2017 13:56 4,3 C 6,7 C 84 % 1025,8 hPa 0,0 l/m 3,5 km/h (1 Bft) N-NW 333 2 min 0,000 mm 0,5 UV-I 293 W/m 1,8 C 4,3 C 6,4 km/h (2 Bft) 94,74 %
14.11.2017 13:58 4,3 C 6,7 C 84 % 1025,7 hPa 0,0 l/m 3,5 km/h (1 Bft) NW 326 2 min 0,000 mm 0,5 UV-I 291 W/m 1,8 C 4,3 C 8,0 km/h (2 Bft) 100,00 %
14.11.2017 14:00 4,3 C 6,7 C 84 % 1025,7 hPa 0,0 l/m 2,6 km/h (1 Bft) W 277 2 min 0,127 mm 0,5 UV-I 282 W/m 1,8 C 4,3 C 6,4 km/h (2 Bft) 97,56 %
14.11.2017 14:02 4,3 C 6,7 C 85 % 1025,7 hPa 0,0 l/m 3,2 km/h (1 Bft) W-NW 294 2 min 0,000 mm 0,5 UV-I 275 W/m 2,0 C 4,3 C 6,4 km/h (2 Bft) 97,87 %
14.11.2017 14:04 4,2 C 6,7 C 84 % 1025,7 hPa 0,0 l/m 3,4 km/h (1 Bft) W 281 2 min 0,000 mm 0,5 UV-I 266 W/m 1,7 C 4,2 C 11,3 km/h (2 Bft) 100,00 %
14.11.2017 14:06 4,1 C 6,7 C 84 % 1025,7 hPa 0,0 l/m 5,1 km/h (1 Bft) W-NW 292 2 min 0,000 mm 0,5 UV-I 261 W/m 1,6 C 4,1 C 12,9 km/h (3 Bft) 97,87 %
14.11.2017 14:08 4,1 C 6,7 C 84 % 1025,8 hPa 0,0 l/m 4,5 km/h (1 Bft) N-NW 329 2 min 0,000 mm 0,5 UV-I 257 W/m 1,6 C 4,1 C 8,0 km/h (2 Bft) 100,00 %
14.11.2017 14:10 4,1 C 6,7 C 84 % 1025,7 hPa 0,0 l/m 2,6 km/h (1 Bft) W-NW 285 2 min 0,000 mm 0,5 UV-I 260 W/m 1,6 C 4,1 C 4,8 km/h (1 Bft) 100,00 %
14.11.2017 14:12 4,1 C 6,7 C 84 % 1025,7 hPa 0,0 l/m 3,9 km/h (1 Bft) NW 317 2 min 0,000 mm 0,4 UV-I 254 W/m 1,6 C 4,1 C 9,7 km/h (2 Bft) 100,00 %
14.11.2017 14:14 4,1 C 6,7 C 84 % 1025,7 hPa 0,0 l/m 4,3 km/h (1 Bft) N-NW 333 2 min 0,000 mm 0,0 UV-I 253 W/m 1,6 C 4,1 C 8,0 km/h (2 Bft) 100,00 %
14.11.2017 14:16 4,1 C 6,7 C 85 % 1025,7 hPa 0,0 l/m 3,6 km/h (1 Bft) W-NW 297 2 min 0,000 mm 0,0 UV-I 247 W/m 1,8 C 4,1 C 6,4 km/h (2 Bft) 98,00 %
14.11.2017 14:18 4,0 C 6,7 C 85 % 1025,7 hPa 0,0 l/m 2,8 km/h (1 Bft) NW 310 2 min 0,000 mm 0,0 UV-I 240 W/m 1,7 C 4,0 C 4,8 km/h (1 Bft) 98,00 %
14.11.2017 14:20 3,9 C 6,7 C 86 % 1025,6 hPa 0,0 l/m 1,9 km/h (1 Bft) N 349 2 min 0,000 mm 0,0 UV-I 240 W/m 1,8 C 3,9 C 6,4 km/h (2 Bft) 100,00 %
14.11.2017 14:22 3,9 C 6,7 C 85 % 1025,7 hPa 0,0 l/m 3,1 km/h (1 Bft) NW 311 2 min 0,000 mm 0,0 UV-I 240 W/m 1,6 C 3,9 C 9,7 km/h (2 Bft) 100,00 %
14.11.2017 14:24 3,9 C 6,7 C 85 % 1025,7 hPa 0,0 l/m 1,9 km/h (1 Bft) NW 308 2 min 0,000 mm 0,0 UV-I 235 W/m 1,6 C 3,9 C 3,2 km/h (1 Bft) 100,00 %
14.11.2017 14:26 3,8 C 6,7 C 85 % 1025,7 hPa 0,0 l/m 3,1 km/h (1 Bft) W-NW 301 2 min 0,000 mm 0,0 UV-I 229 W/m 1,5 C 3,8 C 4,8 km/h (1 Bft) 100,00 %
14.11.2017 14:28 3,7 C 6,7 C 85 % 1025,7 hPa 0,0 l/m 2,9 km/h (1 Bft) NW 307 2 min 0,000 mm 0,0 UV-I 223 W/m 1,4 C 3,7 C 6,4 km/h (2 Bft) 100,00 %
14.11.2017 14:30 3,7 C 6,7 C 86 % 1025,7 hPa 0,0 l/m 3,6 km/h (1 Bft) NW 314 2 min 0,000 mm 0,0 UV-I 218 W/m 1,6 C 3,7 C 6,4 km/h (2 Bft) 100,00 %
14.11.2017 14:32 3,6 C 6,7 C 85 % 1025,6 hPa 0,0 l/m 2,8 km/h (1 Bft) NW 306 2 min 0,000 mm 0,0 UV-I 211 W/m 1,3 C 3,6 C 6,4 km/h (2 Bft) 100,00 %
14.11.2017 14:34 3,6 C 6,7 C 86 % 1025,7 hPa 0,0 l/m 3,1 km/h (1 Bft) W-NW 289 2 min 0,000 mm 0,0 UV-I 199 W/m 1,5 C 3,6 C 4,8 km/h (1 Bft) 100,00 %
14.11.2017 14:36 3,7 C 6,7 C 86 % 1025,7 hPa 0,0 l/m 1,8 km/h (1 Bft) W-NW 291 2 min 0,000 mm 0,0 UV-I 201 W/m 1,6 C 3,7 C 3,2 km/h (1 Bft) 100,00 %
14.11.2017 14:38 3,6 C 6,7 C 87 % 1025,7 hPa 0,0 l/m 2,4 km/h (1 Bft) W 279 2 min 0,000 mm 0,0 UV-I 189 W/m 1,6 C 3,6 C 4,8 km/h (1 Bft) 100,00 %
14.11.2017 14:40 3,6 C 6,7 C 87 % 1025,7 hPa 0,0 l/m 2,4 km/h (1 Bft) W-NW 286 2 min 0,000 mm 0,0 UV-I 181 W/m 1,6 C 3,6 C 4,8 km/h (1 Bft) 97,73 %
14.11.2017 14:42 3,6 C 6,7 C 86 % 1025,7 hPa 0,0 l/m 3,2 km/h (1 Bft) NW 319 2 min 0,000 mm 0,0 UV-I 180 W/m 1,5 C 3,6 C 6,4 km/h (2 Bft) 100,00 %
14.11.2017 14:44 3,4 C 6,7 C 86 % 1025,7 hPa 0,0 l/m 4,9 km/h (1 Bft) W-NW 294 2 min 0,000 mm 0,0 UV-I 175 W/m 1,3 C 3,4 C 11,3 km/h (2 Bft) 100,00 %
14.11.2017 14:46 3,3 C 6,7 C 86 % 1025,7 hPa 0,0 l/m 3,5 km/h (1 Bft) W-NW 299 2 min 0,000 mm 0,0 UV-I 172 W/m 1,2 C 3,3 C 6,4 km/h (2 Bft) 100,00 %
14.11.2017 14:48 3,3 C 6,7 C 87 % 1025,7 hPa 0,0 l/m 1,4 km/h (1 Bft) W-NW 288 2 min 0,000 mm 0,0 UV-I 127 W/m 1,3 C 3,3 C 6,4 km/h (2 Bft) 96,97 %
14.11.2017 14:50 3,3 C 6,7 C 87 % 1025,7 hPa 0,0 l/m 3,0 km/h (1 Bft) NW 311 2 min 0,000 mm 0,0 UV-I 155 W/m 1,3 C 3,3 C 9,7 km/h (2 Bft) 100,00 %
14.11.2017 14:52 3,2 C 6,7 C 87 % 1025,7 hPa 0,0 l/m 4,1 km/h (1 Bft) W-NW 301 2 min 0,000 mm 0,0 UV-I 164 W/m 1,2 C 3,2 C 6,4 km/h (2 Bft) 97,22 %
14.11.2017 14:54 3,2 C 6,7 C 87 % 1025,7 hPa 0,0 l/m 2,8 km/h (1 Bft) W-NW 284 2 min 0,000 mm 0,0 UV-I 156 W/m 1,2 C 3,2 C 4,8 km/h (1 Bft) 100,00 %
14.11.2017 14:56 3,2 C 6,7 C 87 % 1025,8 hPa 0,0 l/m 4,6 km/h (1 Bft) W-NW 289 2 min 0,000 mm 0,0 UV-I 115 W/m 1,2 C 3,2 C 6,4 km/h (2 Bft) 100,00 %
14.11.2017 14:58 3,1 C 6,7 C 87 % 1025,8 hPa 0,0 l/m 3,5 km/h (1 Bft) NW 308 2 min 0,000 mm 0,0 UV-I 140 W/m 1,2 C 3,1 C 9,7 km/h (2 Bft) 98,00 %
14.11.2017 15:00 3,1 C 6,7 C 87 % 1025,8 hPa 0,0 l/m 2,3 km/h (1 Bft) W-NW 292 2 min 0,076 mm 0,0 UV-I 114 W/m 1,2 C 3,1 C 4,8 km/h (1 Bft) 100,00 %
14.11.2017 15:02 3,0 C 6,7 C 87 % 1025,7 hPa 0,0 l/m 5,8 km/h (2 Bft) NW 308 2 min 0,000 mm 0,0 UV-I 107 W/m 1,1 C 3,0 C 11,3 km/h (2 Bft) 100,00 %
14.11.2017 15:04 3,0 C 6,7 C 88 % 1025,8 hPa 0,0 l/m 2,4 km/h (1 Bft) W 276 2 min 0,000 mm 0,0 UV-I 124 W/m 1,2 C 3,0 C 4,8 km/h (1 Bft) 100,00 %
14.11.2017 15:06 3,0 C 6,7 C 88 % 1025,8 hPa 0,0 l/m 1,8 km/h (1 Bft) W 277 2 min 0,000 mm 0,0 UV-I 128 W/m 1,2 C 3,0 C 4,8 km/h (1 Bft) 100,00 %
14.11.2017 15:08 2,9 C 6,7 C 88 % 1025,8 hPa 0,0 l/m 3,4 km/h (1 Bft) NW 311 2 min 0,000 mm 0,0 UV-I 129 W/m 1,1 C 2,9 C 6,4 km/h (2 Bft) 100,00 %
14.11.2017 15:10 2,9 C 6,7 C 88 % 1025,8 hPa 0,0 l/m 4,7 km/h (1 Bft) W-SW 254 2 min 0,000 mm 0,0 UV-I 126 W/m 1,1 C 2,9 C 8,0 km/h (2 Bft) 100,00 %
14.11.2017 15:13 2,9 C 6,7 C 87 % 1025,8 hPa 0,0 l/m 4,4 km/h (1 Bft) W-SW 258 3 min 0,000 mm 0,0 UV-I 128 W/m 1,0 C 2,9 C 11,3 km/h (2 Bft) 98,78 %
14.11.2017 15:14 2,8 C 6,7 C 87 % 1025,8 hPa 0,0 l/m 3,6 km/h (1 Bft) W 275 0 min 0,000 mm 0,0 UV-I 87 W/m 0,9 C 2,8 C 4,8 km/h (1 Bft) 100,00 %
14.11.2017 15:16 2,8 C 6,7 C 87 % 1025,8 hPa 0,0 l/m 3,0 km/h (1 Bft) W 265 2 min 0,000 mm 0,0 UV-I 101 W/m 0,9 C 2,8 C 6,4 km/h (2 Bft) 100,00 %
14.11.2017 15:18 2,7 C 6,7 C 88 % 1025,9 hPa 0,0 l/m 3,3 km/h (1 Bft) W-NW 302 0 min 0,000 mm 0,0 UV-I 82 W/m 0,9 C 2,7 C 8,0 km/h (2 Bft) 97,87 %
14.11.2017 15:20 2,7 C 6,7 C 88 % 1025,8 hPa 0,0 l/m 1,5 km/h (1 Bft) W-NW 300 2 min 0,000 mm 0,0 UV-I 99 W/m 0,9 C 2,7 C 4,8 km/h (1 Bft) 100,00 %
14.11.2017 15:22 2,7 C 6,7 C 89 % 1025,9 hPa 0,0 l/m 1,4 km/h (1 Bft) W-NW 300 2 min 0,000 mm 0,0 UV-I 90 W/m 1,1 C 2,7 C 3,2 km/h (1 Bft) 98,21 %
14.11.2017 15:24 2,7 C 6,7 C 89 % 1025,9 hPa 0,0 l/m 3,1 km/h (1 Bft) W-NW 298 2 min 0,000 mm 0,0 UV-I 83 W/m 1,1 C 2,7 C 8,0 km/h (2 Bft) 100,00 %
14.11.2017 15:26 2,6 C 6,7 C 89 % 1026,0 hPa 0,0 l/m 2,0 km/h (1 Bft) W-NW 290 2 min 0,000 mm 0,0 UV-I 103 W/m 1,0 C 2,6 C 9,7 km/h (2 Bft) 96,23 %
14.11.2017 15:28 2,6 C 6,7 C 89 % 1026,0 hPa 0,0 l/m 2,9 km/h (1 Bft) W 275 2 min 0,000 mm 0,0 UV-I 100 W/m 1,0 C 2,6 C 8,0 km/h (2 Bft) 97,44 %
14.11.2017 15:30 2,6 C 6,7 C 89 % 1026,0 hPa 0,0 l/m 3,7 km/h (1 Bft) W-SW 254 2 min 0,000 mm 0,0 UV-I 95 W/m 1,0 C 2,6 C 6,4 km/h (2 Bft) 97,87 %
14.11.2017 15:32 2,6 C 6,7 C 89 % 1026,0 hPa 0,0 l/m 2,7 km/h (1 Bft) W 271 2 min 0,000 mm 0,0 UV-I 91 W/m 1,0 C 2,6 C 4,8 km/h (1 Bft) 98,36 %
14.11.2017 15:34 2,5 C 6,7 C 89 % 1026,0 hPa 0,0 l/m 3,0 km/h (1 Bft) W 271 2 min 0,000 mm 0,0 UV-I 88 W/m 0,9 C 2,5 C 4,8 km/h (1 Bft) 97,87 %
14.11.2017 15:36 2,5 C 6,7 C 89 % 1026,0 hPa 0,0 l/m 2,7 km/h (1 Bft) W 271 2 min 0,000 mm 0,0 UV-I 84 W/m 0,9 C 2,5 C 4,8 km/h (1 Bft) 97,44 %
14.11.2017 15:38 2,5 C 6,7 C 89 % 1025,9 hPa 0,0 l/m 3,3 km/h (1 Bft) W 275 2 min 0,000 mm 0,0 UV-I 82 W/m 0,9 C 2,5 C 4,8 km/h (1 Bft) 94,00 %
14.11.2017 15:40 2,4 C 6,7 C 89 % 1025,9 hPa 0,0 l/m 0,6 km/h (0 Bft) W 275 2 min 0,000 mm 0,0 UV-I 77 W/m 0,8 C 2,4 C 3,2 km/h (1 Bft) 97,87 %
14.11.2017 15:42 2,4 C 6,7 C 89 % 1025,9 hPa 0,0 l/m 0,2 km/h (0 Bft) W 275 2 min 0,000 mm 0,0 UV-I 74 W/m 0,8 C 2,4 C 1,6 km/h (1 Bft) 97,56 %
14.11.2017 15:44 2,3 C 6,7 C 90 % 1025,9 hPa 0,0 l/m 0,5 km/h (0 Bft) W 275 2 min 0,000 mm 0,0 UV-I 71 W/m 0,8 C 2,3 C 3,2 km/h (1 Bft) 97,37 %
14.11.2017 15:46 2,3 C 6,7 C 90 % 1026,0 hPa 0,0 l/m 0,9 km/h (0 Bft) W 275 2 min 0,000 mm 0,0 UV-I 69 W/m 0,8 C 2,3 C 3,2 km/h (1 Bft) 96,92 %
14.11.2017 15:48 2,2 C 6,7 C 90 % 1026,0 hPa 0,0 l/m 0,6 km/h (0 Bft) W 275 2 min 0,000 mm 0,0 UV-I 63 W/m 0,7 C 2,2 C 1,6 km/h (1 Bft) 97,87 %
14.11.2017 15:50 2,2 C 6,7 C 90 % 1026,0 hPa 0,0 l/m 1,0 km/h (0 Bft) W 275 2 min 0,000 mm 0,0 UV-I 60 W/m 0,7 C 2,2 C 1,6 km/h (1 Bft) 97,14 %
14.11.2017 15:52 2,2 C 6,7 C 90 % 1026,0 hPa 0,0 l/m 0,1 km/h (0 Bft) W 275 2 min 0,000 mm 0,0 UV-I 54 W/m 0,7 C 2,2 C 1,6 km/h (1 Bft) 98,00 %
14.11.2017 15:54 2,1 C 6,7 C 90 % 1026,0 hPa 0,0 l/m 0,3 km/h (0 Bft) W 275 2 min 0,000 mm 0,0 UV-I 52 W/m 0,6 C 2,1 C 1,6 km/h (1 Bft) 98,11 %
14.11.2017 15:56 2,1 C 6,7 C 91 % 1026,1 hPa 0,0 l/m 0,7 km/h (0 Bft) W 275 2 min 0,000 mm 0,0 UV-I 47 W/m 0,8 C 2,1 C 1,6 km/h (1 Bft) 97,37 %
14.11.2017 15:58 2,0 C 6,7 C 91 % 1026,1 hPa 0,0 l/m 0,7 km/h (0 Bft) W 275 2 min 0,000 mm 0,0 UV-I 42 W/m 0,7 C 2,0 C 3,2 km/h (1 Bft) 96,43 %
14.11.2017 16:00 1,9 C 6,7 C 91 % 1026,1 hPa 0,0 l/m 0,0 km/h (0 Bft) W 275 2 min 0,025 mm 0,0 UV-I 38 W/m 0,6 C 1,9 C 1,6 km/h (1 Bft) 100,00 %
14.11.2017 16:02 1,8 C 6,7 C 91 % 1026,1 hPa 0,0 l/m 2,0 km/h (1 Bft) W-NW 302 2 min 0,000 mm 0,0 UV-I 33 W/m 0,5 C 1,8 C 4,8 km/h (1 Bft) 95,74 %
14.11.2017 16:04 1,8 C 6,7 C 91 % 1026,1 hPa 0,0 l/m 1,6 km/h (1 Bft) W-NW 302 2 min 0,000 mm 0,0 UV-I 30 W/m 0,5 C 1,8 C 3,2 km/h (1 Bft) 96,23 %
14.11.2017 16:06 1,8 C 6,7 C 91 % 1026,1 hPa 0,0 l/m 0,9 km/h (0 Bft) W-NW 302 2 min 0,000 mm 0,0 UV-I 30 W/m 0,5 C 1,8 C 3,2 km/h (1 Bft) 97,22 %
14.11.2017 16:08 1,8 C 6,7 C 91 % 1026,2 hPa 0,0 l/m 1,5 km/h (1 Bft) W-NW 302 2 min 0,000 mm 0,0 UV-I 32 W/m 0,5 C 1,8 C 3,2 km/h (1 Bft) 98,00 %
14.11.2017 16:10 1,7 C 6,7 C 91 % 1026,2 hPa 0,0 l/m 2,3 km/h (1 Bft) W-NW 302 2 min 0,000 mm 0,0 UV-I 26 W/m 0,4 C 1,7 C 4,8 km/h (1 Bft) 94,44 %
14.11.2017 16:12 1,6 C 6,7 C 91 % 1026,2 hPa 0,0 l/m 1,6 km/h (1 Bft) W-NW 302 2 min 0,000 mm 0,0 UV-I 22 W/m 0,3 C 1,6 C 3,2 km/h (1 Bft) 94,87 %
14.11.2017 16:14 1,6 C 6,7 C 91 % 1026,2 hPa 0,0 l/m 4,3 km/h (1 Bft) SW 232 2 min 0,000 mm 0,0 UV-I 18 W/m 0,3 C 1,6 C 6,4 km/h (2 Bft) 98,11 %
14.11.2017 16:16 1,6 C 6,7 C 91 % 1026,2 hPa 0,0 l/m 5,0 km/h (1 Bft) W-NW 290 0 min 0,000 mm 0,0 UV-I 17 W/m 0,3 C 1,6 C 6,4 km/h (2 Bft) 96,00 %
14.11.2017 16:18 1,6 C 6,7 C 91 % 1026,2 hPa 0,0 l/m 4,7 km/h (1 Bft) W-SW 257 0 min 0,000 mm 0,0 UV-I 15 W/m 0,3 C 1,6 C 8,0 km/h (2 Bft) 97,87 %
14.11.2017 16:20 1,5 C 6,7 C 91 % 1026,2 hPa 0,0 l/m 3,3 km/h (1 Bft) SW 235 0 min 0,000 mm 0,0 UV-I 14 W/m 0,2 C 1,5 C 4,8 km/h (1 Bft) 97,56 %
14.11.2017 16:22 1,5 C 6,7 C 91 % 1026,2 hPa 0,0 l/m 2,0 km/h (1 Bft) W-SW 242 0 min 0,000 mm 0,0 UV-I 12 W/m 0,2 C 1,5 C 3,2 km/h (1 Bft) 98,00 %
14.11.2017 16:24 1,4 C 6,7 C 91 % 1026,1 hPa 0,0 l/m 2,9 km/h (1 Bft) W 265 0 min 0,000 mm 0,0 UV-I 11 W/m 0,1 C 1,4 C 6,4 km/h (2 Bft) 97,56 %
14.11.2017 16:26 1,3 C 6,7 C 91 % 1026,2 hPa 0,0 l/m 3,2 km/h (1 Bft) W 274 0 min 0,000 mm 0,0 UV-I 9 W/m -0,0 C 1,3 C 6,4 km/h (2 Bft) 98,11 %
14.11.2017 16:28 1,3 C 6,7 C 91 % 1026,2 hPa 0,0 l/m 2,3 km/h (1 Bft) W 274 0 min 0,000 mm 0,0 UV-I 9 W/m -0,0 C 1,3 C 4,8 km/h (1 Bft) 97,37 %
14.11.2017 16:30 1,2 C 6,7 C 91 % 1026,2 hPa 0,0 l/m 1,1 km/h (1 Bft) W 274 0 min 0,000 mm 0,0 UV-I 7 W/m -0,1 C 1,2 C 3,2 km/h (1 Bft) 92,86 %
14.11.2017 16:32 1,2 C 6,7 C 92 % 1026,2 hPa 0,0 l/m 0,1 km/h (0 Bft) W 274 0 min 0,000 mm 0,0 UV-I 7 W/m 0,0 C 1,2 C 1,6 km/h (1 Bft) 95,74 %
14.11.2017 16:34 1,1 C 6,7 C 92 % 1026,3 hPa 0,0 l/m 0,2 km/h (0 Bft) W 274 0 min 0,000 mm 0,0 UV-I 7 W/m -0,1 C 1,1 C 1,6 km/h (1 Bft) 94,00 %
14.11.2017 16:36 1,0 C 6,7 C 92 % 1026,3 hPa 0,0 l/m 2,1 km/h (1 Bft) W 274 0 min 0,000 mm 0,0 UV-I 7 W/m -0,2 C 1,0 C 4,8 km/h (1 Bft) 95,74 %
14.11.2017 16:38 1,0 C 6,7 C 92 % 1026,3 hPa 0,0 l/m 3,2 km/h (1 Bft) W-SW 252 0 min 0,000 mm 0,0 UV-I 7 W/m -0,2 C 1,0 C 6,4 km/h (2 Bft) 92,11 %
14.11.2017 16:40 0,9 C 6,7 C 92 % 1026,4 hPa 0,0 l/m 3,9 km/h (1 Bft) W-NW 287 0 min 0,000 mm 0,0 UV-I 6 W/m -0,2 C 0,9 C 6,4 km/h (2 Bft) 98,11 %
14.11.2017 16:42 0,9 C 6,7 C 92 % 1026,4 hPa 0,0 l/m 3,4 km/h (1 Bft) SW 218 0 min 0,000 mm 0,0 UV-I 5 W/m -0,2 C 0,9 C 6,4 km/h (2 Bft) 93,62 %
14.11.2017 16:44 0,9 C 6,7 C 92 % 1026,4 hPa 0,0 l/m 3,8 km/h (1 Bft) W-SW 258 0 min 0,000 mm 0,0 UV-I 5 W/m -0,2 C 0,9 C 6,4 km/h (2 Bft) 97,56 %
14.11.2017 16:46 0,9 C 6,7 C 92 % 1026,4 hPa 0,0 l/m 4,4 km/h (1 Bft) W 275 0 min 0,000 mm 0,0 UV-I 3 W/m -0,2 C 0,9 C 9,7 km/h (2 Bft) 100,00 %
14.11.2017 16:48 1,0 C 6,7 C 92 % 1026,4 hPa 0,0 l/m 4,6 km/h (1 Bft) W-NW 285 0 min 0,000 mm 0,0 UV-I 0 W/m -0,2 C 1,0 C 11,3 km/h (2 Bft) 94,55 %
14.11.2017 16:50 1,0 C 6,7 C 92 % 1026,5 hPa 0,0 l/m 1,2 km/h (1 Bft) W-NW 285 0 min 0,000 mm 0,0 UV-I 0 W/m -0,2 C 1,0 C 3,2 km/h (1 Bft) 95,74 %
14.11.2017 16:52 0,9 C 6,7 C 92 % 1026,5 hPa 0,0 l/m 3,4 km/h (1 Bft) W-NW 284 0 min 0,000 mm 0,0 UV-I 0 W/m -0,2 C 0,9 C 4,8 km/h (1 Bft) 94,00 %
14.11.2017 16:54 0,9 C 6,7 C 92 % 1026,5 hPa 0,0 l/m 3,4 km/h (1 Bft) W 263 0 min 0,000 mm 0,0 UV-I 0 W/m -0,2 C 0,9 C 4,8 km/h (1 Bft) 97,22 %
14.11.2017 16:56 0,9 C 6,7 C 92 % 1026,5 hPa 0,0 l/m 4,9 km/h (1 Bft) W 261 0 min 0,000 mm 0,0 UV-I 0 W/m -0,2 C 0,9 C 6,4 km/h (2 Bft) 98,21 %
14.11.2017 16:58 0,9 C 6,7 C 92 % 1026,5 hPa 0,0 l/m 5,6 km/h (1 Bft) W-SW 255 0 min 0,000 mm 0,0 UV-I 0 W/m -0,2 C 0,9 C 9,7 km/h (2 Bft) 97,37 %
14.11.2017 17:00 0,9 C 6,7 C 92 % 1026,6 hPa 0,0 l/m 5,6 km/h (1 Bft) W 278 0 min 0,000 mm 0,0 UV-I 0 W/m -0,2 C 0,9 C 8,0 km/h (2 Bft) 96,23 %
14.11.2017 17:02 0,9 C 6,7 C 92 % 1026,5 hPa 0,0 l/m 4,9 km/h (1 Bft) W 275 0 min 0,000 mm 0,0 UV-I 0 W/m -0,2 C 0,9 C 6,4 km/h (2 Bft) 95,12 %
14.11.2017 17:04 0,8 C 6,7 C 92 % 1026,6 hPa 0,0 l/m 4,6 km/h (1 Bft) W 275 0 min 0,000 mm 0,0 UV-I 0 W/m -0,3 C 0,8 C 6,4 km/h (2 Bft) 97,87 %
14.11.2017 17:06 0,8 C 6,7 C 92 % 1026,6 hPa 0,0 l/m 4,8 km/h (1 Bft) W 274 0 min 0,000 mm 0,0 UV-I 0 W/m -0,3 C 0,8 C 6,4 km/h (2 Bft) 95,74 %
14.11.2017 17:08 0,7 C 6,7 C 93 % 1026,7 hPa 0,0 l/m 4,5 km/h (1 Bft) W 268 0 min 0,000 mm 0,0 UV-I 0 W/m -0,3 C 0,7 C 6,4 km/h (2 Bft) 96,00 %
14.11.2017 17:10 0,7 C 6,7 C 93 % 1026,7 hPa 0,0 l/m 4,0 km/h (1 Bft) W-SW 250 0 min 0,000 mm 0,0 UV-I 0 W/m -0,3 C 0,7 C 4,8 km/h (1 Bft) 97,87 %
14.11.2017 17:12 0,8 C 6,7 C 93 % 1026,7 hPa 0,0 l/m 4,7 km/h (1 Bft) W-SW 238 0 min 0,000 mm 0,0 UV-I 0 W/m -0,2 C 0,8 C 6,4 km/h (2 Bft) 97,87 %
14.11.2017 17:14 0,7 C 6,7 C 93 % 1026,7 hPa 0,0 l/m 4,5 km/h (1 Bft) SW 223 0 min 0,000 mm 0,0 UV-I 0 W/m -0,3 C 0,7 C 8,0 km/h (2 Bft) 96,00 %
14.11.2017 17:16 0,7 C 6,7 C 93 % 1026,8 hPa 0,0 l/m 4,6 km/h (1 Bft) SW 223 0 min 0,000 mm 0,0 UV-I 0 W/m -0,3 C 0,7 C 8,0 km/h (2 Bft) 97,87 %
14.11.2017 17:18 0,7 C 6,7 C 93 % 1026,8 hPa 0,0 l/m 5,6 km/h (1 Bft) W-SW 239 0 min 0,000 mm 0,0 UV-I 0 W/m -0,3 C 0,7 C 8,0 km/h (2 Bft) 97,87 %
14.11.2017 17:20 0,8 C 6,7 C 93 % 1026,8 hPa 0,0 l/m 5,1 km/h (1 Bft) W-SW 239 0 min 0,000 mm 0,0 UV-I 0 W/m -0,2 C 0,8 C 8,0 km/h (2 Bft) 97,87 %
14.11.2017 17:22 0,8 C 6,7 C 93 % 1026,8 hPa 0,0 l/m 5,5 km/h (1 Bft) SW 227 0 min 0,000 mm 0,0 UV-I 0 W/m -0,2 C 0,8 C 9,7 km/h (2 Bft) 97,87 %
14.11.2017 17:24 0,8 C 6,7 C 93 % 1026,9 hPa 0,0 l/m 8,0 km/h (2 Bft) W-SW 253 0 min 0,000 mm 0,0 UV-I 0 W/m -0,2 C -0,8 C 11,3 km/h (2 Bft) 97,56 %
14.11.2017 17:26 0,8 C 6,7 C 93 % 1026,9 hPa 0,0 l/m 7,2 km/h (2 Bft) W 268 0 min 0,000 mm 0,0 UV-I 0 W/m -0,2 C -0,0 C 11,3 km/h (2 Bft) 98,00 %
14.11.2017 17:28 0,8 C 6,7 C 93 % 1026,9 hPa 0,0 l/m 5,9 km/h (2 Bft) W 263 0 min 0,000 mm 0,0 UV-I 0 W/m -0,2 C 0,8 C 11,3 km/h (2 Bft) 100,00 %
14.11.2017 17:30 0,8 C 6,7 C 93 % 1027,0 hPa 0,0 l/m 4,9 km/h (1 Bft) W 263 0 min 0,000 mm 0,0 UV-I 0 W/m -0,2 C 0,8 C 9,7 km/h (2 Bft) 100,00 %
14.11.2017 17:32 0,7 C 6,7 C 93 % 1027,0 hPa 0,0 l/m 4,0 km/h (1 Bft) W 263 0 min 0,000 mm 0,0 UV-I 0 W/m -0,3 C 0,7 C 6,4 km/h (2 Bft) 100,00 %
14.11.2017 17:34 0,7 C 6,7 C 93 % 1027,0 hPa 0,0 l/m 6,0 km/h (2 Bft) W-SW 250 0 min 0,000 mm 0,0 UV-I 0 W/m -0,3 C 0,7 C 11,3 km/h (2 Bft) 96,55 %
14.11.2017 17:36 0,7 C 6,7 C 93 % 1027,1 hPa 0,0 l/m 5,4 km/h (1 Bft) W-SW 257 0 min 0,000 mm 0,0 UV-I 0 W/m -0,3 C 0,7 C 8,0 km/h (2 Bft) 98,46 %
14.11.2017 17:38 0,7 C 6,7 C 93 % 1027,1 hPa 0,0 l/m 5,0 km/h (1 Bft) W-SW 245 0 min 0,000 mm 0,0 UV-I 0 W/m -0,3 C 0,7 C 6,4 km/h (2 Bft) 100,00 %
14.11.2017 17:40 0,7 C 6,7 C 93 % 1027,1 hPa 0,0 l/m 4,7 km/h (1 Bft) W-SW 247 0 min 0,000 mm 0,0 UV-I 0 W/m -0,3 C 0,7 C 6,4 km/h (2 Bft) 100,00 %
14.11.2017 17:42 0,7 C 6,7 C 93 % 1027,1 hPa 0,0 l/m 4,7 km/h (1 Bft) W-SW 248 0 min 0,000 mm 0,0 UV-I 0 W/m -0,3 C 0,7 C 6,4 km/h (2 Bft) 100,00 %
14.11.2017 17:44 0,6 C 6,7 C 93 % 1027,0 hPa 0,0 l/m 4,0 km/h (1 Bft) W 260 0 min 0,000 mm 0,0 UV-I 0 W/m -0,4 C 0,6 C 4,8 km/h (1 Bft) 100,00 %
14.11.2017 17:46 0,6 C 6,7 C 93 % 1027,0 hPa 0,0 l/m 4,5 km/h (1 Bft) W-SW 257 0 min 0,000 mm 0,0 UV-I 0 W/m -0,4 C 0,6 C 6,4 km/h (2 Bft) 100,00 %
14.11.2017 17:48 0,6 C 6,7 C 93 % 1027,0 hPa 0,0 l/m 4,4 km/h (1 Bft) SW 234 0 min 0,000 mm 0,0 UV-I 0 W/m -0,4 C 0,6 C 6,4 km/h (2 Bft) 100,00 %
14.11.2017 17:50 0,6 C 6,7 C 93 % 1027,0 hPa 0,0 l/m 5,1 km/h (1 Bft) W-SW 242 0 min 0,000 mm 0,0 UV-I 0 W/m -0,4 C 0,6 C 8,0 km/h (2 Bft) 97,37 %
14.11.2017 17:52 0,6 C 6,7 C 94 % 1027,0 hPa 0,0 l/m 6,2 km/h (2 Bft) W-SW 246 0 min 0,000 mm 0,0 UV-I 0 W/m -0,3 C 0,6 C 8,0 km/h (2 Bft) 100,00 %
14.11.2017 17:54 0,6 C 6,7 C 94 % 1027,1 hPa 0,0 l/m 6,6 km/h (2 Bft) W-SW 244 0 min 0,000 mm 0,0 UV-I 0 W/m -0,3 C 0,4 C 9,7 km/h (2 Bft) 98,21 %
14.11.2017 17:56 0,6 C 6,7 C 93 % 1027,1 hPa 0,0 l/m 3,7 km/h (1 Bft) W-SW 244 0 min 0,000 mm 0,0 UV-I 0 W/m -0,4 C 0,6 C 6,4 km/h (2 Bft) 100,00 %
14.11.2017 17:58 0,6 C 6,7 C 93 % 1027,2 hPa 0,0 l/m 3,8 km/h (1 Bft) W-SW 244 0 min 0,000 mm 0,0 UV-I 0 W/m -0,4 C 0,6 C 4,8 km/h (1 Bft) 100,00 %
14.11.2017 18:00 0,5 C 6,7 C 94 % 1027,2 hPa 0,0 l/m 4,3 km/h (1 Bft) SW 220 0 min 0,000 mm 0,0 UV-I 0 W/m -0,4 C 0,5 C 8,0 km/h (2 Bft) 100,00 %
14.11.2017 18:03 0,5 C 6,7 C 93 % 1027,2 hPa 0,0 l/m 4,3 km/h (1 Bft) SW 218 0 min 0,000 mm 0,0 UV-I 0 W/m -0,5 C 0,5 C 6,4 km/h (2 Bft) 98,61 %
14.11.2017 18:04 0,4 C 6,7 C 94 % 1027,3 hPa 0,0 l/m 3,3 km/h (1 Bft) SW 218 0 min 0,000 mm 0,0 UV-I 0 W/m -0,5 C 0,4 C 4,8 km/h (1 Bft) 100,00 %
14.11.2017 18:06 0,4 C 6,7 C 94 % 1027,3 hPa 0,0 l/m 4,6 km/h (1 Bft) SW 220 0 min 0,000 mm 0,0 UV-I 0 W/m -0,5 C 0,4 C 6,4 km/h (2 Bft) 100,00 %
14.11.2017 18:08 0,5 C 6,7 C 94 % 1027,3 hPa 0,0 l/m 4,4 km/h (1 Bft) SW 220 0 min 0,000 mm 0,0 UV-I 0 W/m -0,4 C 0,5 C 6,4 km/h (2 Bft) 100,00 %
14.11.2017 18:10 0,5 C 6,7 C 94 % 1027,3 hPa 0,0 l/m 4,2 km/h (1 Bft) SW 221 0 min 0,000 mm 0,0 UV-I 0 W/m -0,4 C 0,5 C 8,0 km/h (2 Bft) 100,00 %
14.11.2017 18:12 0,5 C 6,7 C 94 % 1027,3 hPa 0,0 l/m 4,9 km/h (1 Bft) SW 235 0 min 0,000 mm 0,0 UV-I 0 W/m -0,4 C 0,5 C 6,4 km/h (2 Bft) 100,00 %
14.11.2017 18:14 0,5 C 6,7 C 94 % 1027,3 hPa 0,0 l/m 4,5 km/h (1 Bft) SW 235 0 min 0,000 mm 0,0 UV-I 0 W/m -0,4 C 0,5 C 8,0 km/h (2 Bft) 100,00 %
14.11.2017 18:16 0,5 C 6,7 C 94 % 1027,3 hPa 0,0 l/m 4,2 km/h (1 Bft) SW 224 0 min 0,000 mm 0,0 UV-I 0 W/m -0,4 C 0,5 C 6,4 km/h (2 Bft) 97,87 %
14.11.2017 18:18 0,6 C 6,7 C 94 % 1027,3 hPa 0,0 l/m 5,3 km/h (1 Bft) SW 229 0 min 0,000 mm 0,0 UV-I 0 W/m -0,3 C 0,6 C 8,0 km/h (2 Bft) 97,87 %
14.11.2017 18:20 0,5 C 6,7 C 94 % 1027,3 hPa 0,0 l/m 3,3 km/h (1 Bft) SW 229 0 min 0,000 mm 0,0 UV-I 0 W/m -0,4 C 0,5 C 4,8 km/h (1 Bft) 95,92 %
14.11.2017 18:22 0,5 C 6,7 C 93 % 1027,3 hPa 0,0 l/m 3,7 km/h (1 Bft) SW 229 0 min 0,000 mm 0,0 UV-I 0 W/m -0,5 C 0,5 C 4,8 km/h (1 Bft) 95,74 %
14.11.2017 18:24 0,4 C 6,7 C 93 % 1027,3 hPa 0,0 l/m 4,8 km/h (1 Bft) SW 229 0 min 0,000 mm 0,0 UV-I 0 W/m -0,6 C 0,4 C 6,4 km/h (2 Bft) 97,56 %
14.11.2017 18:26 0,4 C 6,7 C 94 % 1027,3 hPa 0,0 l/m 4,8 km/h (1 Bft) SW 221 0 min 0,000 mm 0,0 UV-I 0 W/m -0,5 C 0,4 C 6,4 km/h (2 Bft) 98,00 %
14.11.2017 18:28 0,4 C 6,7 C 94 % 1027,3 hPa 0,0 l/m 6,2 km/h (2 Bft) SW 231 0 min 0,000 mm 0,0 UV-I 0 W/m -0,5 C 0,4 C 9,7 km/h (2 Bft) 98,00 %
14.11.2017 18:30 0,4 C 6,7 C 94 % 1027,3 hPa 0,0 l/m 4,6 km/h (1 Bft) W-SW 243 0 min 0,000 mm 0,0 UV-I 0 W/m -0,5 C 0,4 C 6,4 km/h (2 Bft) 98,00 %
14.11.2017 18:32 0,4 C 6,7 C 94 % 1027,4 hPa 0,0 l/m 5,4 km/h (1 Bft) SW 229 0 min 0,000 mm 0,0 UV-I 0 W/m -0,5 C 0,4 C 6,4 km/h (2 Bft) 97,56 %
14.11.2017 18:34 0,4 C 6,7 C 94 % 1027,4 hPa 0,0 l/m 5,6 km/h (1 Bft) W-SW 244 0 min 0,000 mm 0,0 UV-I 0 W/m -0,5 C 0,4 C 8,0 km/h (2 Bft) 97,37 %
14.11.2017 18:36 0,4 C 6,7 C 94 % 1027,4 hPa 0,0 l/m 4,9 km/h (1 Bft) W-SW 255 0 min 0,000 mm 0,0 UV-I 0 W/m -0,5 C 0,4 C 6,4 km/h (2 Bft) 94,64 %
14.11.2017 18:39 0,4 C 6,7 C 94 % 1027,5 hPa 0,0 l/m 3,9 km/h (1 Bft) W-SW 255 0 min 0,000 mm 0,0 UV-I 0 W/m -0,5 C 0,4 C 6,4 km/h (2 Bft) 98,65 %
14.11.2017 18:40 0,4 C 6,7 C 94 % 1027,5 hPa 0,0 l/m 3,4 km/h (1 Bft) W-SW 255 0 min 0,000 mm 0,0 UV-I 0 W/m -0,5 C 0,4 C 4,8 km/h (1 Bft) 95,65 %
14.11.2017 18:42 0,3 C 6,7 C 94 % 1027,5 hPa 0,0 l/m 3,7 km/h (1 Bft) W-NW 299 0 min 0,000 mm 0,0 UV-I 0 W/m -0,5 C 0,3 C 6,4 km/h (2 Bft) 97,56 %
14.11.2017 18:44 0,3 C 6,7 C 94 % 1027,6 hPa 0,0 l/m 3,6 km/h (1 Bft) W 277 0 min 0,000 mm 0,0 UV-I 0 W/m -0,5 C 0,3 C 6,4 km/h (2 Bft) 100,00 %
14.11.2017 18:46 0,3 C 6,7 C 94 % 1027,6 hPa 0,0 l/m 2,7 km/h (1 Bft) W 277 0 min 0,000 mm 0,0 UV-I 0 W/m -0,5 C 0,3 C 4,8 km/h (1 Bft) 98,11 %
14.11.2017 18:48 0,3 C 6,7 C 94 % 1027,6 hPa 0,0 l/m 1,5 km/h (1 Bft) W 277 0 min 0,000 mm 0,0 UV-I 0 W/m -0,5 C 0,3 C 3,2 km/h (1 Bft) 97,56 %
14.11.2017 18:50 0,3 C 6,7 C 94 % 1027,7 hPa 0,0 l/m 1,4 km/h (1 Bft) W 277 0 min 0,000 mm 0,0 UV-I 0 W/m -0,5 C 0,3 C 3,2 km/h (1 Bft) 97,92 %
14.11.2017 18:52 0,3 C 6,7 C 94 % 1027,7 hPa 0,0 l/m 0,9 km/h (0 Bft) W 277 0 min 0,000 mm 0,0 UV-I 0 W/m -0,5 C 0,3 C 3,2 km/h (1 Bft) 95,74 %
14.11.2017 18:54 0,3 C 6,7 C 94 % 1027,7 hPa 0,0 l/m 1,5 km/h (1 Bft) W 277 0 min 0,000 mm 0,0 UV-I 0 W/m -0,5 C 0,3 C 3,2 km/h (1 Bft) 100,00 %
14.11.2017 18:56 0,3 C 6,7 C 94 % 1027,8 hPa 0,0 l/m 1,8 km/h (1 Bft) W 277 0 min 0,000 mm 0,0 UV-I 0 W/m -0,5 C 0,3 C 3,2 km/h (1 Bft) 98,11 %
14.11.2017 18:58 0,3 C 6,7 C 95 % 1027,8 hPa 0,0 l/m 1,9 km/h (1 Bft) W 277 0 min 0,000 mm 0,0 UV-I 0 W/m -0,4 C 0,3 C 3,2 km/h (1 Bft) 97,87 %
14.11.2017 19:00 0,3 C 6,7 C 95 % 1027,9 hPa 0,0 l/m 2,4 km/h (1 Bft) W 277 0 min 0,000 mm 0,0 UV-I 0 W/m -0,4 C 0,3 C 4,8 km/h (1 Bft) 97,56 %
14.11.2017 19:02 0,3 C 6,7 C 95 % 1027,9 hPa 0,0 l/m 3,1 km/h (1 Bft) W 277 0 min 0,000 mm 0,0 UV-I 0 W/m -0,4 C 0,3 C 4,8 km/h (1 Bft) 98,00 %
14.11.2017 19:04 0,3 C 6,7 C 95 % 1027,9 hPa 0,0 l/m 3,2 km/h (1 Bft) W 277 0 min 0,000 mm 0,0 UV-I 0 W/m -0,4 C 0,3 C 4,8 km/h (1 Bft) 98,00 %
14.11.2017 19:06 0,4 C 6,7 C 95 % 1027,9 hPa 0,0 l/m 2,5 km/h (1 Bft) W 277 0 min 0,000 mm 0,0 UV-I 0 W/m -0,3 C 0,4 C 4,8 km/h (1 Bft) 97,37 %
14.11.2017 19:08 0,4 C 6,7 C 95 % 1027,9 hPa 0,0 l/m 3,5 km/h (1 Bft) W 279 0 min 0,000 mm 0,0 UV-I 0 W/m -0,3 C 0,4 C 6,4 km/h (2 Bft) 100,00 %
14.11.2017 19:10 0,4 C 6,7 C 94 % 1027,9 hPa 0,0 l/m 5,4 km/h (1 Bft) W 261 0 min 0,000 mm 0,0 UV-I 0 W/m -0,5 C 0,4 C 11,3 km/h (2 Bft) 96,00 %
14.11.2017 19:12 0,5 C 6,7 C 94 % 1028,0 hPa 0,0 l/m 3,5 km/h (1 Bft) W 274 0 min 0,000 mm 0,0 UV-I 0 W/m -0,4 C 0,5 C 4,8 km/h (1 Bft) 100,00 %
14.11.2017 19:14 0,6 C 6,7 C 94 % 1027,9 hPa 0,0 l/m 2,2 km/h (1 Bft) W 274 0 min 0,000 mm 0,0 UV-I 0 W/m -0,3 C 0,6 C 4,8 km/h (1 Bft) 100,00 %
14.11.2017 19:16 0,6 C 6,7 C 95 % 1027,9 hPa 0,0 l/m 2,5 km/h (1 Bft) NW 305 0 min 0,000 mm 0,0 UV-I 0 W/m -0,1 C 0,6 C 6,4 km/h (2 Bft) 100,00 %
14.11.2017 19:18 0,6 C 6,7 C 94 % 1028,0 hPa 0,0 l/m 4,2 km/h (1 Bft) W-NW 299 0 min 0,000 mm 0,0 UV-I 0 W/m -0,3 C 0,6 C 6,4 km/h (2 Bft) 98,00 %
14.11.2017 19:20 0,5 C 6,7 C 94 % 1028,0 hPa 0,0 l/m 3,2 km/h (1 Bft) W 259 0 min 0,000 mm 0,0 UV-I 0 W/m -0,4 C 0,5 C 6,4 km/h (2 Bft) 100,00 %
14.11.2017 19:22 0,6 C 6,7 C 94 % 1028,0 hPa 0,0 l/m 2,5 km/h (1 Bft) W 259 0 min 0,000 mm 0,0 UV-I 0 W/m -0,3 C 0,6 C 4,8 km/h (1 Bft) 96,00 %
14.11.2017 19:24 0,6 C 6,7 C 94 % 1028,0 hPa 0,0 l/m 4,0 km/h (1 Bft) W 281 0 min 0,000 mm 0,0 UV-I 0 W/m -0,3 C 0,6 C 6,4 km/h (2 Bft) 98,00 %
14.11.2017 19:26 0,5 C 6,7 C 94 % 1028,0 hPa 0,0 l/m 4,1 km/h (1 Bft) W-NW 292 0 min 0,000 mm 0,0 UV-I 0 W/m -0,4 C 0,5 C 9,7 km/h (2 Bft) 100,00 %
14.11.2017 19:28 0,5 C 6,7 C 94 % 1028,0 hPa 0,0 l/m 4,5 km/h (1 Bft) W-SW 257 0 min 0,000 mm 0,0 UV-I 0 W/m -0,4 C 0,5 C 8,0 km/h (2 Bft) 100,00 %
14.11.2017 19:30 0,5 C 6,7 C 94 % 1028,1 hPa 0,0 l/m 4,4 km/h (1 Bft) W 271 0 min 0,000 mm 0,0 UV-I 0 W/m -0,4 C 0,5 C 9,7 km/h (2 Bft) 100,00 %
14.11.2017 19:32 0,5 C 6,7 C 94 % 1028,1 hPa 0,0 l/m 3,6 km/h (1 Bft) W 269 0 min 0,000 mm 0,0 UV-I 0 W/m -0,4 C 0,5 C 9,7 km/h (2 Bft) 100,00 %
14.11.2017 19:34 0,5 C 6,7 C 94 % 1028,1 hPa 0,0 l/m 3,3 km/h (1 Bft) SW 235 0 min 0,000 mm 0,0 UV-I 0 W/m -0,4 C 0,5 C 6,4 km/h (2 Bft) 100,00 %
14.11.2017 19:36 0,5 C 6,7 C 94 % 1028,1 hPa 0,0 l/m 4,6 km/h (1 Bft) W 269 0 min 0,000 mm 0,0 UV-I 0 W/m -0,4 C 0,5 C 6,4 km/h (2 Bft) 96,55 %
14.11.2017 19:38 0,5 C 6,7 C 94 % 1028,1 hPa 0,0 l/m 3,9 km/h (1 Bft) W 280 0 min 0,000 mm 0,0 UV-I 0 W/m -0,4 C 0,5 C 6,4 km/h (2 Bft) 100,00 %
14.11.2017 19:40 0,4 C 6,7 C 94 % 1028,1 hPa 0,0 l/m 5,6 km/h (1 Bft) W 266 0 min 0,000 mm 0,0 UV-I 0 W/m -0,5 C 0,4 C 9,7 km/h (2 Bft) 97,37 %
14.11.2017 19:42 0,4 C 6,7 C 94 % 1028,2 hPa 0,0 l/m 3,5 km/h (1 Bft) W 271 0 min 0,000 mm 0,0 UV-I 0 W/m -0,5 C 0,4 C 4,8 km/h (1 Bft) 100,00 %
14.11.2017 19:44 0,4 C 6,7 C 94 % 1028,1 hPa 0,0 l/m 5,2 km/h (1 Bft) W 261 0 min 0,000 mm 0,0 UV-I 0 W/m -0,5 C 0,4 C 9,7 km/h (2 Bft) 100,00 %
14.11.2017 19:46 0,5 C 6,7 C 94 % 1028,2 hPa 0,0 l/m 8,1 km/h (2 Bft) W-SW 244 0 min 0,000 mm 0,0 UV-I 0 W/m -0,4 C -1,2 C 14,5 km/h (3 Bft) 98,00 %
14.11.2017 19:48 0,5 C 6,7 C 94 % 1028,2 hPa 0,0 l/m 6,2 km/h (2 Bft) W-SW 252 0 min 0,000 mm 0,0 UV-I 0 W/m -0,4 C 0,5 C 9,7 km/h (2 Bft) 97,87 %
14.11.2017 19:50 0,5 C 6,7 C 94 % 1028,2 hPa 0,0 l/m 6,8 km/h (2 Bft) W 262 0 min 0,000 mm 0,0 UV-I 0 W/m -0,4 C 0,1 C 9,7 km/h (2 Bft) 96,23 %
14.11.2017 19:52 0,6 C 6,7 C 94 % 1028,1 hPa 0,0 l/m 2,7 km/h (1 Bft) W 264 0 min 0,000 mm 0,0 UV-I 0 W/m -0,3 C 0,6 C 4,8 km/h (1 Bft) 97,37 %
14.11.2017 19:54 0,6 C 6,7 C 94 % 1028,2 hPa 0,0 l/m 4,0 km/h (1 Bft) W-SW 246 0 min 0,000 mm 0,0 UV-I 0 W/m -0,3 C 0,6 C 6,4 km/h (2 Bft) 96,43 %
14.11.2017 19:56 0,6 C 6,7 C 94 % 1028,2 hPa 0,0 l/m 4,4 km/h (1 Bft) SW 228 0 min 0,000 mm 0,0 UV-I 0 W/m -0,3 C 0,6 C 6,4 km/h (2 Bft) 100,00 %
14.11.2017 19:58 0,6 C 6,7 C 94 % 1028,1 hPa 0,0 l/m 6,3 km/h (2 Bft) W 269 0 min 0,000 mm 0,0 UV-I 0 W/m -0,3 C 0,6 C 11,3 km/h (2 Bft) 94,00 %
14.11.2017 20:00 0,6 C 6,7 C 93 % 1028,1 hPa 0,0 l/m 4,5 km/h (1 Bft) W 261 0 min 0,000 mm 0,0 UV-I 0 W/m -0,4 C 0,6 C 6,4 km/h (2 Bft) 98,00 %
14.11.2017 20:02 0,6 C 6,7 C 93 % 1028,1 hPa 0,0 l/m 7,9 km/h (2 Bft) W 261 0 min 0,000 mm 0,0 UV-I 0 W/m -0,4 C -0,9 C 14,5 km/h (3 Bft) 98,00 %
14.11.2017 20:04 0,6 C 6,7 C 93 % 1028,0 hPa 0,0 l/m 9,3 km/h (2 Bft) SW 236 0 min 0,000 mm 0,0 UV-I 0 W/m -0,4 C -2,2 C 16,1 km/h (3 Bft) 97,37 %
14.11.2017 20:06 0,6 C 6,7 C 93 % 1028,1 hPa 0,0 l/m 5,1 km/h (1 Bft) W-SW 248 0 min 0,000 mm 0,0 UV-I 0 W/m -0,4 C 0,6 C 6,4 km/h (2 Bft) 97,62 %
14.11.2017 20:08 0,6 C 6,7 C 93 % 1028,1 hPa 0,0 l/m 4,5 km/h (1 Bft) W 259 0 min 0,000 mm 0,0 UV-I 0 W/m -0,4 C 0,6 C 6,4 km/h (2 Bft) 98,28 %
14.11.2017 20:10 0,6 C 6,7 C 93 % 1028,2 hPa 0,0 l/m 4,5 km/h (1 Bft) W 269 0 min 0,000 mm 0,0 UV-I 0 W/m -0,4 C 0,6 C 6,4 km/h (2 Bft) 97,62 %
14.11.2017 20:12 0,6 C 6,7 C 94 % 1028,1 hPa 0,0 l/m 4,4 km/h (1 Bft) W 272 0 min 0,000 mm 0,0 UV-I 0 W/m -0,3 C 0,6 C 6,4 km/h (2 Bft) 95,45 %
14.11.2017 20:14 0,6 C 6,7 C 93 % 1028,2 hPa 0,0 l/m 4,7 km/h (1 Bft) SW 227 0 min 0,000 mm 0,0 UV-I 0 W/m -0,4 C 0,6 C 8,0 km/h (2 Bft) 98,00 %
14.11.2017 20:16 0,6 C 6,7 C 94 % 1028,2 hPa 0,0 l/m 6,0 km/h (2 Bft) W-SW 248 0 min 0,000 mm 0,0 UV-I 0 W/m -0,3 C 0,6 C 9,7 km/h (2 Bft) 98,00 %
14.11.2017 20:18 0,6 C 6,7 C 93 % 1028,2 hPa 0,0 l/m 5,5 km/h (1 Bft) W-SW 240 0 min 0,000 mm 0,0 UV-I 0 W/m -0,4 C 0,6 C 8,0 km/h (2 Bft) 94,00 %
14.11.2017 20:20 0,6 C 6,7 C 93 % 1028,2 hPa 0,0 l/m 5,1 km/h (1 Bft) W-SW 248 0 min 0,000 mm 0,0 UV-I 0 W/m -0,4 C 0,6 C 8,0 km/h (2 Bft) 98,00 %
14.11.2017 20:22 0,6 C 6,7 C 93 % 1028,1 hPa 0,0 l/m 3,6 km/h (1 Bft) W-SW 249 0 min 0,000 mm 0,0 UV-I 0 W/m -0,4 C 0,6 C 4,8 km/h (1 Bft) 97,14 %
14.11.2017 20:24 0,5 C 6,7 C 93 % 1028,1 hPa 0,0 l/m 5,3 km/h (1 Bft) W-SW 250 0 min 0,000 mm 0,0 UV-I 0 W/m -0,5 C 0,5 C 8,0 km/h (2 Bft) 89,36 %
14.11.2017 20:26 0,6 C 6,7 C 93 % 1028,1 hPa 0,0 l/m 2,7 km/h (1 Bft) W-SW 254 0 min 0,000 mm 0,0 UV-I 0 W/m -0,4 C 0,6 C 4,8 km/h (1 Bft) 94,64 %
14.11.2017 20:30 0,5 C 6,7 C 93 % 1028,1 hPa 0,0 l/m 4,8 km/h (1 Bft) W-SW 247 0 min 0,000 mm 0,0 UV-I 0 W/m -0,5 C 0,5 C 8,0 km/h (2 Bft) 100,00 %
14.11.2017 20:32 0,5 C 6,7 C 93 % 1028,2 hPa 0,0 l/m 4,0 km/h (1 Bft) W 261 0 min 0,000 mm 0,0 UV-I 0 W/m -0,5 C 0,5 C 6,4 km/h (2 Bft) 95,00 %
14.11.2017 20:34 0,5 C 6,7 C 93 % 1028,2 hPa 0,0 l/m 4,7 km/h (1 Bft) SW 234 0 min 0,000 mm 0,0 UV-I 0 W/m -0,5 C 0,5 C 6,4 km/h (2 Bft) 93,62 %
14.11.2017 20:36 0,5 C 6,7 C 94 % 1028,2 hPa 0,0 l/m 4,3 km/h (1 Bft) SW 233 0 min 0,000 mm 0,0 UV-I 0 W/m -0,4 C 0,5 C 6,4 km/h (2 Bft) 91,67 %
14.11.2017 20:38 0,5 C 6,7 C 93 % 1028,3 hPa 0,0 l/m 6,8 km/h (2 Bft) SW 224 0 min 0,000 mm 0,0 UV-I 0 W/m -0,5 C 0,1 C 14,5 km/h (3 Bft) 97,37 %
14.11.2017 20:40 0,6 C 6,7 C 93 % 1028,3 hPa 0,0 l/m 4,7 km/h (1 Bft) SW 225 0 min 0,000 mm 0,0 UV-I 0 W/m -0,4 C 0,6 C 6,4 km/h (2 Bft) 92,00 %
14.11.2017 20:42 0,6 C 6,7 C 93 % 1028,3 hPa 0,0 l/m 4,6 km/h (1 Bft) SW 233 0 min 0,000 mm 0,0 UV-I 0 W/m -0,4 C 0,6 C 6,4 km/h (2 Bft) 96,00 %
14.11.2017 20:44 0,6 C 6,7 C 93 % 1028,3 hPa 0,0 l/m 4,0 km/h (1 Bft) SW 236 0 min 0,000 mm 0,0 UV-I 0 W/m -0,4 C 0,6 C 8,0 km/h (2 Bft) 92,68 %
14.11.2017 20:46 0,6 C 6,7 C 93 % 1028,4 hPa 0,0 l/m 5,5 km/h (1 Bft) W 261 0 min 0,000 mm 0,0 UV-I 0 W/m -0,4 C 0,6 C 9,7 km/h (2 Bft) 98,00 %
14.11.2017 20:48 0,6 C 6,7 C 93 % 1028,4 hPa 0,0 l/m 5,5 km/h (1 Bft) W-SW 248 0 min 0,000 mm 0,0 UV-I 0 W/m -0,4 C 0,6 C 11,3 km/h (2 Bft) 97,87 %
14.11.2017 20:50 0,6 C 6,7 C 93 % 1028,3 hPa 0,0 l/m 5,2 km/h (1 Bft) W-SW 242 0 min 0,000 mm 0,0 UV-I 0 W/m -0,4 C 0,6 C 8,0 km/h (2 Bft) 98,11 %
14.11.2017 20:52 0,6 C 6,7 C 93 % 1028,3 hPa 0,0 l/m 6,6 km/h (2 Bft) W-NW 283 0 min 0,000 mm 0,0 UV-I 0 W/m -0,4 C 0,4 C 11,3 km/h (2 Bft) 93,62 %
14.11.2017 20:54 0,6 C 6,7 C 93 % 1028,3 hPa 0,0 l/m 5,6 km/h (1 Bft) SW 231 0 min 0,000 mm 0,0 UV-I 0 W/m -0,4 C 0,6 C 11,3 km/h (2 Bft) 100,00 %
14.11.2017 20:56 0,6 C 6,7 C 93 % 1028,3 hPa 0,0 l/m 9,8 km/h (2 Bft) W-SW 243 0 min 0,000 mm 0,0 UV-I 0 W/m -0,4 C -2,6 C 14,5 km/h (3 Bft) 94,00 %
14.11.2017 20:58 0,5 C 6,7 C 93 % 1028,3 hPa 0,0 l/m 10,4 km/h (2 Bft) W-SW 244 0 min 0,000 mm 0,0 UV-I 0 W/m -0,5 C -3,2 C 14,5 km/h (3 Bft) 96,00 %
14.11.2017 21:00 0,5 C 6,7 C 93 % 1028,3 hPa 0,0 l/m 7,5 km/h (2 Bft) W-SW 238 0 min 0,000 mm 0,0 UV-I 0 W/m -0,5 C -0,6 C 12,9 km/h (3 Bft) 97,56 %
14.11.2017 21:02 0,4 C 6,7 C 93 % 1028,4 hPa 0,0 l/m 7,0 km/h (2 Bft) S 190 0 min 0,000 mm 0,0 UV-I 0 W/m -0,6 C -0,2 C 11,3 km/h (2 Bft) 100,00 %
14.11.2017 21:04 0,5 C 6,7 C 94 % 1028,3 hPa 0,0 l/m 8,6 km/h (2 Bft) S-SW 211 0 min 0,000 mm 0,0 UV-I 0 W/m -0,4 C -1,7 C 12,9 km/h (3 Bft) 97,56 %
14.11.2017 21:06 0,4 C 6,7 C 94 % 1028,4 hPa 0,0 l/m 6,9 km/h (2 Bft) S-SW 212 0 min 0,000 mm 0,0 UV-I 0 W/m -0,5 C -0,1 C 9,7 km/h (2 Bft) 98,00 %
14.11.2017 21:08 0,5 C 6,7 C 94 % 1028,4 hPa 0,0 l/m 4,8 km/h (1 Bft) SW 231 0 min 0,000 mm 0,0 UV-I 0 W/m -0,4 C 0,5 C 8,0 km/h (2 Bft) 97,44 %
14.11.2017 21:10 0,5 C 6,7 C 94 % 1028,4 hPa 0,0 l/m 8,4 km/h (2 Bft) W-SW 244 0 min 0,000 mm 0,0 UV-I 0 W/m -0,4 C -1,5 C 12,9 km/h (3 Bft) 100,00 %
14.11.2017 21:12 0,4 C 6,7 C 94 % 1028,4 hPa 0,0 l/m 5,9 km/h (2 Bft) W-SW 257 0 min 0,000 mm 0,0 UV-I 0 W/m -0,5 C 0,4 C 9,7 km/h (2 Bft) 100,00 %
14.11.2017 21:14 0,4 C 6,7 C 94 % 1028,4 hPa 0,0 l/m 4,0 km/h (1 Bft) W 260 0 min 0,000 mm 0,0 UV-I 0 W/m -0,5 C 0,4 C 6,4 km/h (2 Bft) 100,00 %
14.11.2017 21:16 0,4 C 6,7 C 94 % 1028,5 hPa 0,0 l/m 4,2 km/h (1 Bft) W 267 0 min 0,000 mm 0,0 UV-I 0 W/m -0,5 C 0,4 C 6,4 km/h (2 Bft) 100,00 %
14.11.2017 21:18 0,5 C 6,7 C 94 % 1028,5 hPa 0,0 l/m 5,6 km/h (1 Bft) W-SW 249 0 min 0,000 mm 0,0 UV-I 0 W/m -0,4 C 0,5 C 9,7 km/h (2 Bft) 100,00 %
14.11.2017 21:20 0,4 C 6,7 C 94 % 1028,4 hPa 0,0 l/m 4,2 km/h (1 Bft) W-SW 257 0 min 0,000 mm 0,0 UV-I 0 W/m -0,5 C 0,4 C 6,4 km/h (2 Bft) 97,62 %
14.11.2017 21:22 0,5 C 6,7 C 94 % 1028,4 hPa 0,0 l/m 5,2 km/h (1 Bft) W-SW 256 0 min 0,000 mm 0,0 UV-I 0 W/m -0,4 C 0,5 C 8,0 km/h (2 Bft) 100,00 %
14.11.2017 21:24 0,6 C 6,7 C 94 % 1028,4 hPa 0,0 l/m 5,3 km/h (1 Bft) W-NW 286 0 min 0,000 mm 0,0 UV-I 0 W/m -0,3 C 0,6 C 9,7 km/h (2 Bft) 100,00 %
14.11.2017 21:26 0,5 C 6,7 C 94 % 1028,5 hPa 0,0 l/m 6,3 km/h (2 Bft) SW 227 0 min 0,000 mm 0,0 UV-I 0 W/m -0,4 C 0,5 C 11,3 km/h (2 Bft) 100,00 %
14.11.2017 21:28 0,6 C 6,7 C 94 % 1028,5 hPa 0,0 l/m 6,5 km/h (2 Bft) W 271 0 min 0,000 mm 0,0 UV-I 0 W/m -0,3 C 0,5 C 9,7 km/h (2 Bft) 100,00 %
14.11.2017 21:30 0,6 C 6,7 C 94 % 1028,5 hPa 0,0 l/m 3,3 km/h (1 Bft) NW 326 0 min 0,000 mm 0,0 UV-I 0 W/m -0,3 C 0,6 C 14,5 km/h (3 Bft) 100,00 %
14.11.2017 21:32 0,5 C 6,7 C 94 % 1028,5 hPa 0,0 l/m 8,0 km/h (2 Bft) W-NW 294 0 min 0,000 mm 0,0 UV-I 0 W/m -0,4 C -1,1 C 14,5 km/h (3 Bft) 100,00 %
14.11.2017 21:34 0,5 C 6,7 C 94 % 1028,5 hPa 0,0 l/m 5,9 km/h (2 Bft) W-SW 247 0 min 0,000 mm 0,0 UV-I 0 W/m -0,4 C 0,5 C 9,7 km/h (2 Bft) 98,11 %
14.11.2017 21:36 0,5 C 6,7 C 94 % 1028,5 hPa 0,0 l/m 6,0 km/h (2 Bft) W-SW 246 0 min 0,000 mm 0,0 UV-I 0 W/m -0,4 C 0,5 C 8,0 km/h (2 Bft) 100,00 %
14.11.2017 21:38 0,5 C 6,7 C 94 % 1028,4 hPa 0,0 l/m 4,2 km/h (1 Bft) W-SW 242 0 min 0,000 mm 0,0 UV-I 0 W/m -0,4 C 0,5 C 6,4 km/h (2 Bft) 100,00 %
14.11.2017 21:40 0,5 C 6,7 C 94 % 1028,4 hPa 0,0 l/m 4,2 km/h (1 Bft) W-SW 257 0 min 0,000 mm 0,0 UV-I 0 W/m -0,4 C 0,5 C 8,0 km/h (2 Bft) 100,00 %
14.11.2017 21:42 0,5 C 6,7 C 94 % 1028,4 hPa 0,0 l/m 4,1 km/h (1 Bft) W-NW 284 0 min 0,000 mm 0,0 UV-I 0 W/m -0,4 C 0,5 C 6,4 km/h (2 Bft) 98,11 %
14.11.2017 21:44 0,6 C 6,7 C 94 % 1028,4 hPa 0,0 l/m 1,8 km/h (1 Bft) W-NW 286 0 min 0,000 mm 0,0 UV-I 0 W/m -0,3 C 0,6 C 3,2 km/h (1 Bft) 100,00 %
14.11.2017 21:46 0,6 C 6,7 C 94 % 1028,4 hPa 0,0 l/m 3,2 km/h (1 Bft) W-NW 294 0 min 0,000 mm 0,0 UV-I 0 W/m -0,3 C 0,6 C 9,7 km/h (2 Bft) 97,87 %
14.11.2017 21:48 0,5 C 6,7 C 94 % 1028,5 hPa 0,0 l/m 3,9 km/h (1 Bft) W-SW 253 0 min 0,000 mm 0,0 UV-I 0 W/m -0,4 C 0,5 C 11,3 km/h (2 Bft) 100,00 %
14.11.2017 21:50 0,4 C 6,7 C 94 % 1028,4 hPa 0,0 l/m 5,9 km/h (2 Bft) W-SW 254 0 min 0,000 mm 0,0 UV-I 0 W/m -0,5 C 0,4 C 11,3 km/h (2 Bft) 100,00 %
14.11.2017 21:52 0,4 C 6,7 C 94 % 1028,4 hPa 0,0 l/m 2,3 km/h (1 Bft) W-SW 255 0 min 0,000 mm 0,0 UV-I 0 W/m -0,5 C 0,4 C 4,8 km/h (1 Bft) 100,00 %
14.11.2017 21:54 0,4 C 6,7 C 94 % 1028,4 hPa 0,0 l/m 4,0 km/h (1 Bft) W-SW 244 0 min 0,000 mm 0,0 UV-I 0 W/m -0,5 C 0,4 C 6,4 km/h (2 Bft) 100,00 %
14.11.2017 21:56 0,4 C 6,7 C 94 % 1028,4 hPa 0,0 l/m 7,6 km/h (2 Bft) W 276 0 min 0,000 mm 0,0 UV-I 0 W/m -0,5 C -0,8 C 11,3 km/h (2 Bft) 100,00 %
14.11.2017 21:58 0,4 C 6,7 C 94 % 1028,4 hPa 0,0 l/m 5,4 km/h (1 Bft) W 270 0 min 0,000 mm 0,0 UV-I 0 W/m -0,5 C 0,4 C 11,3 km/h (2 Bft) 100,00 %
14.11.2017 22:00 0,4 C 6,7 C 94 % 1028,4 hPa 0,0 l/m 4,0 km/h (1 Bft) W-SW 244 0 min 0,000 mm 0,0 UV-I 0 W/m -0,5 C 0,4 C 8,0 km/h (2 Bft) 100,00 %
14.11.2017 22:02 0,3 C 6,7 C 94 % 1028,4 hPa 0,0 l/m 3,3 km/h (1 Bft) W-SW 248 0 min 0,000 mm 0,0 UV-I 0 W/m -0,5 C 0,3 C 8,0 km/h (2 Bft) 100,00 %
14.11.2017 22:04 0,3 C 6,7 C 94 % 1028,4 hPa 0,0 l/m 4,9 km/h (1 Bft) W-NW 286 0 min 0,000 mm 0,0 UV-I 0 W/m -0,5 C 0,3 C 9,7 km/h (2 Bft) 100,00 %
14.11.2017 22:06 0,3 C 6,7 C 94 % 1028,4 hPa 0,0 l/m 3,3 km/h (1 Bft) W-NW 286 0 min 0,000 mm 0,0 UV-I 0 W/m -0,5 C 0,3 C 4,8 km/h (1 Bft) 100,00 %
14.11.2017 22:08 0,4 C 6,7 C 94 % 1028,5 hPa 0,0 l/m 5,2 km/h (1 Bft) SW 227 0 min 0,000 mm 0,0 UV-I 0 W/m -0,5 C 0,4 C 8,0 km/h (2 Bft) 100,00 %
14.11.2017 22:10 0,4 C 6,7 C 94 % 1028,5 hPa 0,0 l/m 4,9 km/h (1 Bft) SW 232 0 min 0,000 mm 0,0 UV-I 0 W/m -0,5 C 0,4 C 8,0 km/h (2 Bft) 100,00 %
14.11.2017 22:12 0,4 C 6,7 C 94 % 1028,5 hPa 0,0 l/m 2,4 km/h (1 Bft) SW 232 0 min 0,000 mm 0,0 UV-I 0 W/m -0,5 C 0,4 C 4,8 km/h (1 Bft) 97,37 %
14.11.2017 22:14 0,4 C 6,7 C 94 % 1028,4 hPa 0,0 l/m 2,5 km/h (1 Bft) SW 232 0 min 0,000 mm 0,0 UV-I 0 W/m -0,5 C 0,4 C 4,8 km/h (1 Bft) 98,11 %
14.11.2017 22:16 0,5 C 6,7 C 94 % 1028,4 hPa 0,0 l/m 2,4 km/h (1 Bft) W 268 0 min 0,000 mm 0,0 UV-I 0 W/m -0,4 C 0,5 C 6,4 km/h (2 Bft) 100,00 %
14.11.2017 22:18 0,4 C 6,7 C 94 % 1028,4 hPa 0,0 l/m 4,0 km/h (1 Bft) W-NW 288 0 min 0,000 mm 0,0 UV-I 0 W/m -0,5 C 0,4 C 6,4 km/h (2 Bft) 97,87 %
14.11.2017 22:20 0,4 C 6,7 C 94 % 1028,5 hPa 0,0 l/m 2,1 km/h (1 Bft) W-NW 288 0 min 0,000 mm 0,0 UV-I 0 W/m -0,5 C 0,4 C 4,8 km/h (1 Bft) 100,00 %
14.11.2017 22:22 0,4 C 6,7 C 94 % 1028,5 hPa 0,0 l/m 3,9 km/h (1 Bft) SW 225 0 min 0,000 mm 0,0 UV-I 0 W/m -0,5 C 0,4 C 6,4 km/h (2 Bft) 97,37 %
14.11.2017 22:24 0,4 C 6,7 C 94 % 1028,4 hPa 0,0 l/m 5,9 km/h (2 Bft) SW 225 0 min 0,000 mm 0,0 UV-I 0 W/m -0,5 C 0,4 C 8,0 km/h (2 Bft) 98,11 %
14.11.2017 22:26 0,4 C 6,7 C 94 % 1028,4 hPa 0,0 l/m 3,3 km/h (1 Bft) SW 234 0 min 0,000 mm 0,0 UV-I 0 W/m -0,5 C 0,4 C 4,8 km/h (1 Bft) 100,00 %
14.11.2017 22:28 0,4 C 6,7 C 94 % 1028,4 hPa 0,0 l/m 3,3 km/h (1 Bft) SW 234 0 min 0,000 mm 0,0 UV-I 0 W/m -0,5 C 0,4 C 8,0 km/h (2 Bft) 97,87 %
14.11.2017 22:30 0,4 C 6,7 C 94 % 1028,4 hPa 0,0 l/m 6,5 km/h (2 Bft) W-SW 253 0 min 0,000 mm 0,0 UV-I 0 W/m -0,5 C 0,3 C 9,7 km/h (2 Bft) 96,23 %
14.11.2017 22:32 0,4 C 6,7 C 94 % 1028,4 hPa 0,0 l/m 5,5 km/h (1 Bft) W 267 0 min 0,000 mm 0,0 UV-I 0 W/m -0,5 C 0,4 C 9,7 km/h (2 Bft) 97,87 %
14.11.2017 22:34 0,4 C 6,7 C 95 % 1028,3 hPa 0,0 l/m 6,4 km/h (2 Bft) W 273 0 min 0,000 mm 0,0 UV-I 0 W/m -0,3 C 0,4 C 9,7 km/h (2 Bft) 97,44 %
14.11.2017 22:36 0,3 C 6,7 C 95 % 1028,3 hPa 0,0 l/m 3,2 km/h (1 Bft) W 273 0 min 0,000 mm 0,0 UV-I 0 W/m -0,4 C 0,3 C 6,4 km/h (2 Bft) 96,00 %
14.11.2017 22:38 0,3 C 6,7 C 95 % 1028,3 hPa 0,0 l/m 1,4 km/h (1 Bft) W 273 0 min 0,000 mm 0,0 UV-I 0 W/m -0,4 C 0,3 C 3,2 km/h (1 Bft) 97,56 %
14.11.2017 22:40 0,4 C 6,7 C 95 % 1028,3 hPa 0,0 l/m 1,4 km/h (1 Bft) W 273 0 min 0,000 mm 0,0 UV-I 0 W/m -0,3 C 0,4 C 4,8 km/h (1 Bft) 96,23 %
14.11.2017 22:42 0,4 C 6,7 C 95 % 1028,3 hPa 0,0 l/m 3,4 km/h (1 Bft) W 265 0 min 0,000 mm 0,0 UV-I 0 W/m -0,3 C 0,4 C 6,4 km/h (2 Bft) 94,00 %
14.11.2017 22:44 0,3 C 6,7 C 95 % 1028,3 hPa 0,0 l/m 1,3 km/h (1 Bft) W 265 0 min 0,000 mm 0,0 UV-I 0 W/m -0,4 C 0,3 C 4,8 km/h (1 Bft) 95,12 %
14.11.2017 22:46 0,3 C 6,7 C 95 % 1028,2 hPa 0,0 l/m 1,7 km/h (1 Bft) W 265 0 min 0,000 mm 0,0 UV-I 0 W/m -0,4 C 0,3 C 3,2 km/h (1 Bft) 96,00 %
14.11.2017 22:48 0,4 C 6,7 C 95 % 1028,2 hPa 0,0 l/m 2,7 km/h (1 Bft) W 265 0 min 0,000 mm 0,0 UV-I 0 W/m -0,3 C 0,4 C 4,8 km/h (1 Bft) 95,74 %
14.11.2017 22:50 0,3 C 6,7 C 95 % 1028,2 hPa 0,0 l/m 2,2 km/h (1 Bft) W 265 0 min 0,000 mm 0,0 UV-I 0 W/m -0,4 C 0,3 C 4,8 km/h (1 Bft) 95,74 %
14.11.2017 22:52 0,4 C 6,7 C 95 % 1028,3 hPa 0,0 l/m 1,3 km/h (1 Bft) W 265 0 min 0,000 mm 0,0 UV-I 0 W/m -0,3 C 0,4 C 3,2 km/h (1 Bft) 97,73 %
14.11.2017 22:54 0,4 C 6,7 C 95 % 1028,3 hPa 0,0 l/m 0,7 km/h (0 Bft) W 265 0 min 0,000 mm 0,0 UV-I 0 W/m -0,3 C 0,4 C 3,2 km/h (1 Bft) 97,87 %
14.11.2017 22:56 0,3 C 6,7 C 95 % 1028,3 hPa 0,0 l/m 1,8 km/h (1 Bft) W 265 0 min 0,000 mm 0,0 UV-I 0 W/m -0,4 C 0,3 C 3,2 km/h (1 Bft) 96,00 %
14.11.2017 22:58 0,3 C 6,7 C 95 % 1028,3 hPa 0,0 l/m 3,9 km/h (1 Bft) N-NW 333 0 min 0,000 mm 0,0 UV-I 0 W/m -0,4 C 0,3 C 8,0 km/h (2 Bft) 97,56 %
14.11.2017 23:00 0,3 C 6,7 C 95 % 1028,3 hPa 0,0 l/m 5,8 km/h (2 Bft) W-SW 240 0 min 0,000 mm 0,0 UV-I 0 W/m -0,4 C 0,3 C 11,3 km/h (2 Bft) 98,00 %
14.11.2017 23:02 0,3 C 6,7 C 95 % 1028,3 hPa 0,0 l/m 9,6 km/h (2 Bft) SW 222 0 min 0,000 mm 0,0 UV-I 0 W/m -0,4 C -2,8 C 16,1 km/h (3 Bft) 98,00 %
14.11.2017 23:04 0,3 C 6,7 C 95 % 1028,3 hPa 0,0 l/m 3,2 km/h (1 Bft) W 277 0 min 0,000 mm 0,0 UV-I 0 W/m -0,4 C 0,3 C 6,4 km/h (2 Bft) 100,00 %
14.11.2017 23:06 0,3 C 6,7 C 95 % 1028,3 hPa 0,0 l/m 3,7 km/h (1 Bft) W-NW 291 0 min 0,000 mm 0,0 UV-I 0 W/m -0,4 C 0,3 C 6,4 km/h (2 Bft) 100,00 %
14.11.2017 23:08 0,3 C 6,7 C 95 % 1028,3 hPa 0,0 l/m 2,4 km/h (1 Bft) W-NW 302 0 min 0,000 mm 0,0 UV-I 0 W/m -0,4 C 0,3 C 4,8 km/h (1 Bft) 98,11 %
14.11.2017 23:10 0,2 C 6,7 C 95 % 1028,3 hPa 0,0 l/m 3,3 km/h (1 Bft) W-NW 284 0 min 0,000 mm 0,0 UV-I 0 W/m -0,5 C 0,2 C 6,4 km/h (2 Bft) 97,44 %
14.11.2017 23:12 0,3 C 6,7 C 95 % 1028,4 hPa 0,0 l/m 4,3 km/h (1 Bft) W 264 0 min 0,000 mm 0,0 UV-I 0 W/m -0,4 C 0,3 C 6,4 km/h (2 Bft) 100,00 %
14.11.2017 23:14 0,3 C 6,7 C 95 % 1028,3 hPa 0,0 l/m 3,4 km/h (1 Bft) W 263 0 min 0,000 mm 0,0 UV-I 0 W/m -0,4 C 0,3 C 6,4 km/h (2 Bft) 100,00 %
14.11.2017 23:16 0,3 C 6,7 C 95 % 1028,4 hPa 0,0 l/m 5,8 km/h (2 Bft) W-NW 284 0 min 0,000 mm 0,0 UV-I 0 W/m -0,4 C 0,3 C 9,7 km/h (2 Bft) 98,00 %
14.11.2017 23:18 0,3 C 6,7 C 95 % 1028,4 hPa 0,0 l/m 6,7 km/h (2 Bft) W 264 0 min 0,000 mm 0,0 UV-I 0 W/m -0,4 C 0,0 C 11,3 km/h (2 Bft) 97,37 %
14.11.2017 23:20 0,3 C 6,7 C 95 % 1028,5 hPa 0,0 l/m 5,4 km/h (1 Bft) W 260 0 min 0,000 mm 0,0 UV-I 0 W/m -0,4 C 0,3 C 6,4 km/h (2 Bft) 95,65 %
14.11.2017 23:22 0,3 C 6,7 C 95 % 1028,5 hPa 0,0 l/m 7,0 km/h (2 Bft) W-SW 246 0 min 0,000 mm 0,0 UV-I 0 W/m -0,4 C -0,3 C 11,3 km/h (2 Bft) 98,11 %
14.11.2017 23:24 0,3 C 6,7 C 95 % 1028,4 hPa 0,0 l/m 6,6 km/h (2 Bft) SW 225 0 min 0,000 mm 0,0 UV-I 0 W/m -0,4 C 0,1 C 9,7 km/h (2 Bft) 96,15 %
14.11.2017 23:26 0,3 C 6,7 C 95 % 1028,4 hPa 0,0 l/m 4,5 km/h (1 Bft) W 281 0 min 0,000 mm 0,0 UV-I 0 W/m -0,4 C 0,3 C 6,4 km/h (2 Bft) 98,46 %
14.11.2017 23:28 0,3 C 6,7 C 95 % 1028,4 hPa 0,0 l/m 6,5 km/h (2 Bft) W-SW 250 0 min 0,000 mm 0,0 UV-I 0 W/m -0,4 C 0,2 C 12,9 km/h (3 Bft) 97,87 %
14.11.2017 23:30 0,4 C 6,7 C 95 % 1028,4 hPa 0,0 l/m 5,1 km/h (1 Bft) W 273 0 min 0,000 mm 0,0 UV-I 0 W/m -0,3 C 0,4 C 11,3 km/h (2 Bft) 96,00 %
14.11.2017 23:32 0,4 C 6,7 C 95 % 1028,4 hPa 0,0 l/m 2,4 km/h (1 Bft) W 273 0 min 0,000 mm 0,0 UV-I 0 W/m -0,3 C 0,4 C 3,2 km/h (1 Bft) 98,00 %
14.11.2017 23:34 0,4 C 6,7 C 95 % 1028,4 hPa 0,0 l/m 4,3 km/h (1 Bft) W 279 0 min 0,000 mm 0,0 UV-I 0 W/m -0,3 C 0,4 C 9,7 km/h (2 Bft) 97,37 %
14.11.2017 23:36 0,4 C 6,7 C 95 % 1028,5 hPa 0,0 l/m 6,3 km/h (2 Bft) W-NW 303 0 min 0,000 mm 0,0 UV-I 0 W/m -0,3 C 0,4 C 11,3 km/h (2 Bft) 94,00 %
14.11.2017 23:38 0,3 C 6,7 C 95 % 1028,4 hPa 0,0 l/m 5,0 km/h (1 Bft) W 270 0 min 0,000 mm 0,0 UV-I 0 W/m -0,4 C 0,3 C 6,4 km/h (2 Bft) 96,23 %
14.11.2017 23:40 0,3 C 6,7 C 95 % 1028,4 hPa 0,0 l/m 4,2 km/h (1 Bft) W 267 0 min 0,000 mm 0,0 UV-I 0 W/m -0,4 C 0,3 C 6,4 km/h (2 Bft) 97,50 %
14.11.2017 23:42 0,3 C 6,7 C 95 % 1028,5 hPa 0,0 l/m 2,7 km/h (1 Bft) W 268 0 min 0,000 mm 0,0 UV-I 0 W/m -0,4 C 0,3 C 4,8 km/h (1 Bft) 98,00 %
14.11.2017 23:44 0,3 C 6,7 C 95 % 1028,6 hPa 0,0 l/m 3,4 km/h (1 Bft) W 270 0 min 0,000 mm 0,0 UV-I 0 W/m -0,4 C 0,3 C 6,4 km/h (2 Bft) 98,00 %
14.11.2017 23:46 0,4 C 6,7 C 95 % 1028,6 hPa 0,0 l/m 1,6 km/h (1 Bft) W 270 0 min 0,000 mm 0,0 UV-I 0 W/m -0,3 C 0,4 C 4,8 km/h (1 Bft) 97,22 %
14.11.2017 23:48 0,3 C 6,7 C 95 % 1028,6 hPa 0,0 l/m 3,5 km/h (1 Bft) W-NW 286 0 min 0,000 mm 0,0 UV-I 0 W/m -0,4 C 0,3 C 9,7 km/h (2 Bft) 96,00 %
14.11.2017 23:50 0,3 C 6,7 C 95 % 1028,6 hPa 0,0 l/m 3,5 km/h (1 Bft) W 279 0 min 0,000 mm 0,0 UV-I 0 W/m -0,4 C 0,3 C 9,7 km/h (2 Bft) 97,37 %
14.11.2017 23:52 0,3 C 6,7 C 95 % 1028,6 hPa 0,0 l/m 4,2 km/h (1 Bft) W 281 0 min 0,000 mm 0,0 UV-I 0 W/m -0,4 C 0,3 C 6,4 km/h (2 Bft) 97,56 %
14.11.2017 23:54 0,3 C 6,7 C 95 % 1028,6 hPa 0,0 l/m 2,3 km/h (1 Bft) W 281 0 min 0,000 mm 0,0 UV-I 0 W/m -0,4 C 0,3 C 4,8 km/h (1 Bft) 97,06 %
14.11.2017 23:56 0,3 C 6,7 C 95 % 1028,6 hPa 0,0 l/m 1,2 km/h (1 Bft) W 281 0 min 0,000 mm 0,0 UV-I 0 W/m -0,4 C 0,3 C 3,2 km/h (1 Bft) 97,37 %
14.11.2017 23:58 0,3 C 6,7 C 95 % 1028,5 hPa 0,0 l/m 3,5 km/h (1 Bft) W 267 0 min 0,000 mm 0,0 UV-I 0 W/m -0,4 C 0,3 C 6,4 km/h (2 Bft) 98,00 %
_ Min-Zeit 06:36 04:16 13:14 00:00 - 06:16 - - - - - - 06:36 20:58 08:32 20:24
Minimum _ -0,6 C 6,7 C 83 % 1019,9 hPa - 0,0 km/h (0 Bft) - - - - - - -1,3 C -3,2 C 0,0 km/h (0 Bft) 89,36 %
_ Max-Zeit 13:04 00:00 06:18 23:44 00:00 20:58 - - 09:30 11:00 11:22 11:22 13:00 13:04 20:04 00:14
Maximum _ 4,9 C 7,2 C 96 % 1028,6 hPa 0,0 l/m 10,4 km/h
W-SW (2 Bft)
- - 5 min 0,127 mm 1,0 UV-I 507 W/m 2,6 C 4,9 C 16,1 km/h
W (3 Bft)
100,00 %
Durchschnitt _ 1,5 C 6,8 C 92 % 1025,4 hPa #0,0 l/m 4,1 km/h (1 Bft) W - #6:17 h #0,711 mm 0,7 UV-I 194 W/m 0,3 C 1,4 C 7,2 km/h (2 Bft) 97,96 %